[[{"header":{"parameterUnit":"m.s-1","parameterCategory":1,"la1":31.0,"la2":29.5877,"lo1":-88.7671,"lo2":-86.6584,"dy":0.0162,"dx":0.0185,"nx":115,"ny":88,"refTime":"2026-04-23T12:00:00:Z","depth":0,"parameterNumber":2,"parameterNumberName":"U-component_of_WINDS"},"data":[0.0,0.0,0.0,0.0,0.0,0.0,0.0,0.0,0.0,0.0,0.0,0.0,0.0,0.0,0.0,0.0,0.0,0.0,0.0,0.0,0.0,0.0,0.0,0.0,0.0,0.0,0.0,0.0,0.0,0.0,0.0,0.0,0.0,0.0,0.0,0.0,0.0,0.0,0.0,0.0,0.0,0.0,0.0,0.0,0.0,0.0,0.0,0.0,0.0,0.0,0.0,0.0,0.0,0.0,0.0,0.0,0.0,0.0,0.0,0.0,0.0,0.0,0.0,0.0,0.0,0.0,0.0,0.0,0.0,0.0,0.0,0.0,0.0,0.0,0.0,0.0,0.0,0.0,0.0,0.0,0.0,0.0,0.0,0.0,0.0,0.0,0.0,0.0,0.0,0.0,0.0,0.0,0.0,0.0,0.0,0.0,0.0,0.0,0.0,0.0,0.0,0.0,0.0,0.0,0.0,0.0,0.0,0.0,0.0,0.0,0.0,0.0,0.0,0.0,0.0,0.0,0.0,0.0,0.0,0.0,0.0,0.0,0.0,0.0,0.0,0.0,0.0,0.0,0.0,0.0,0.0,0.0,0.0,0.0,0.0,0.0,0.0,0.0,0.0,0.0,0.0,0.0,0.0,0.0,0.0,0.0,0.0,0.0,0.0,0.0,0.0,0.0,0.0,0.0,0.0,0.0,0.0,0.0,0.0,0.0,0.0,0.0,0.0,0.0,0.0,0.0,0.0,0.0,0.0,0.0,0.0,0.0,0.0,0.0,0.0,0.0,0.0,0.0,0.0,0.0,0.0,0.0,0.0,0.0,0.0,0.0,0.0,0.0,0.0,0.0,0.0,0.0,0.0,0.0,0.0,0.0,0.0,0.0,0.0,0.0,0.0,0.0,0.0,0.0,0.0,0.0,0.0,0.0,0.0,0.0,0.0,0.0,0.0,0.0,0.0,0.0,0.0,0.0,0.0,0.0,0.0,0.0,0.0,0.0,0.0,0.0,0.0,0.0,0.0,0.0,0.0,0.0,0.0,0.0,0.0,0.0,0.0,0.0,0.0,0.0,0.0,0.0,0.0,0.0,0.0,0.0,0.0,0.0,0.0,0.0,0.0,0.0,0.0,0.0,0.0,0.0,0.0,0.0,0.0,0.0,0.0,0.0,0.0,0.0,0.0,0.0,0.0,0.0,0.0,0.0,0.0,0.0,0.0,0.0,0.0,0.0,0.0,0.0,0.0,0.0,0.0,0.0,0.0,0.0,0.0,0.0,0.0,0.0,0.0,0.0,0.0,0.0,0.0,0.0,0.0,0.0,0.0,0.0,0.0,0.0,0.0,0.0,0.0,0.0,0.0,0.0,0.0,0.0,0.0,0.0,0.0,0.0,0.0,0.0,0.0,0.0,0.0,0.0,0.0,0.0,0.0,0.0,0.0,0.0,0.0,0.0,0.0,0.0,0.0,0.0,0.0,0.0,0.0,0.0,0.0,0.0,0.0,0.0,0.0,0.0,0.0,0.0,0.0,0.0,0.0,0.0,0.0,0.0,0.0,0.0,0.0,0.0,0.0,0.0,0.0,0.0,0.0,0.0,0.0,0.0,0.0,0.0,0.0,0.0,0.0,0.0,0.0,0.0,0.0,0.0,0.0,0.0,0.0,0.0,0.0,0.0,0.0,0.0,0.0,0.0,0.0,0.0,0.0,0.0,0.0,0.0,0.0,0.0,0.0,0.0,0.0,0.0,0.0,0.0,0.0,0.0,0.0,0.0,0.0,0.0,0.0,0.0,0.0,0.0,0.0,0.0,0.0,0.0,0.0,0.0,0.0,0.0,0.0,0.0,0.0,0.0,0.0,0.0,0.0,0.0,0.0,0.0,0.0,0.0,0.0,0.0,0.0,0.0,0.0,0.0,0.0,0.0,0.0,0.0,0.0,0.0,0.0,0.0,0.0,0.0,0.0,0.0,0.0,0.0,0.0,0.0,0.0,0.0,0.0,0.0,0.0,0.0,0.0,0.0,0.0,0.0,0.0,0.0,0.0,0.0,0.0,0.0,0.0,0.0,0.0,0.0,0.0,0.0,0.0,0.0,0.0,0.0,0.0,0.0,0.0,0.0,0.0,0.0,0.0,0.0,0.0,0.0,0.0,0.0,0.0,0.0,0.0,0.0,0.0,0.0,0.0,0.0,0.0,0.0,0.0,0.0,0.0,0.0,0.0,0.0,0.0,0.0,0.0,0.0,0.0,0.0,0.0,0.0,0.0,0.0,0.0,0.0,0.0,0.0,0.0,0.0,0.0,0.0,0.0,0.0,0.0,0.0,0.0,0.0,0.0,0.0,0.0,0.0,0.0,0.0,0.0,0.0,0.0,0.0,0.0,0.0,0.0,0.0,0.0,0.0,0.0,0.0,0.0,0.0,0.0,0.0,0.0,0.0,0.0,0.0,0.0,0.0,0.0,0.0,0.0,0.0,0.0,0.0,0.0,0.0,0.0,0.0,0.0,0.0,0.0,0.0,0.0,0.0,0.0,0.0,0.0,0.0,0.0,0.0,0.0,0.0,0.0,0.0,0.0,0.0,0.0,0.0,0.0,0.0,0.0,0.0,0.0,0.0,0.0,0.0,0.0,0.0,0.0,0.0,0.0,0.0,0.0,0.0,0.0,0.0,0.0,0.0,0.0,0.0,0.0,0.0,0.0,0.0,0.0,0.0,0.0,0.0,0.0,0.0,0.0,0.0,0.0,0.0,0.0,0.0,0.0,0.0,0.0,0.0,0.0,0.0,0.0,0.0,0.0,0.0,0.0,0.0,0.0,0.0,0.0,0.0,0.0,0.0,0.0,0.0,0.0,0.0,0.0,0.0,0.0,0.0,0.0,0.0,0.0,0.0,0.0,0.0,0.0,0.0,0.0,0.0,0.0,0.0,0.0,0.0,0.0,0.0,0.0,0.0,0.0,0.0,0.0,0.0,0.0,0.0,0.0,0.0,0.0,0.0,0.0,0.0,0.0,0.0,0.0,0.0,0.0,0.0,0.0,0.0,0.0,0.0,0.0,0.0,0.0,0.0,0.0,0.0,0.0,0.0,0.0,0.0,0.0,0.0,0.0,0.0,0.0,0.0,0.0,0.0,0.0,0.0,0.0,0.0,0.0,0.0,0.0,0.0,0.0,0.0,0.0,0.0,0.0,0.0,0.0,0.0,0.0,0.0,0.0,0.0,0.0,0.0,0.0,0.0,0.0,0.0,0.0,0.0,0.0,0.0,0.0,0.0,0.0,0.0,0.0,0.0,0.0,0.0,0.0,0.0,0.0,0.0,0.0,0.0,0.0,0.0,0.0,0.0,0.0,0.0,0.0,0.0,0.0,0.0,0.0,0.0,0.0,0.0,0.0,0.0,0.0,0.0,0.0,0.0,0.0,0.0,0.0,0.0,0.0,0.0,0.0,0.0,0.0,0.0,0.0,0.0,0.0,0.0,0.0,0.0,0.0,0.0,0.0,0.0,0.0,0.0,0.0,0.0,0.0,0.0,0.0,0.0,0.0,0.0,0.0,0.0,0.0,0.0,0.0,0.0,0.0,0.0,0.0,0.0,0.0,0.0,0.0,0.0,0.0,0.0,0.0,0.0,0.0,0.0,0.0,0.0,0.0,0.0,0.0,0.0,0.0,0.0,0.0,0.0,0.0,0.0,0.0,0.0,0.0,0.0,0.0,0.0,0.0,0.0,0.0,0.0,0.0,0.0,0.0,0.0,0.0,0.0,0.0,0.0,0.0,0.0,0.0,0.0,0.0,0.0,0.0,0.0,0.0,0.0,0.0,0.0,0.0,0.0,0.0,0.0,0.0,0.0,0.0,0.0,0.0,0.0,0.0,0.0,0.0,0.0,0.0,0.0,0.0,0.0,0.0,0.0,0.0,0.0,0.0,0.0,0.0,0.0,0.0,0.0,0.0,0.0,0.0,0.0,0.0,0.0,0.0,0.0,0.0,0.0,0.0,0.0,0.0,0.0,0.0,0.0,0.0,0.0,0.0,0.0,0.0,0.0,0.0,0.0,0.0,0.0,0.0,0.0,0.0,0.0,0.0,0.0,0.0,0.0,0.0,0.0,0.0,0.0,0.0,0.0,0.0,0.0,0.0,0.0,0.0,0.0,0.0,0.0,0.0,0.0,0.0,0.0,0.0,0.0,0.0,0.0,0.0,0.0,0.0,0.0,0.0,0.0,0.0,0.0,0.0,0.0,0.0,0.0,0.0,0.0,0.0,0.0,0.0,0.0,0.0,0.0,0.0,0.0,-3.0106,0.0,0.0,0.0,0.0,0.0,0.0,0.0,0.0,0.0,0.0,0.0,0.0,0.0,0.0,0.0,0.0,0.0,0.0,0.0,0.0,0.0,0.0,0.0,0.0,0.0,0.0,0.0,0.0,0.0,0.0,0.0,0.0,0.0,0.0,0.0,0.0,0.0,0.0,0.0,0.0,0.0,0.0,0.0,0.0,0.0,0.0,0.0,0.0,0.0,0.0,0.0,0.0,0.0,0.0,0.0,0.0,0.0,0.0,0.0,0.0,0.0,0.0,0.0,0.0,0.0,0.0,0.0,0.0,0.0,0.0,0.0,0.0,0.0,0.0,0.0,0.0,0.0,0.0,0.0,0.0,0.0,0.0,0.0,0.0,0.0,0.0,0.0,0.0,0.0,0.0,0.0,0.0,0.0,0.0,0.0,0.0,0.0,0.0,0.0,0.0,0.0,0.0,0.0,0.0,0.0,0.0,0.0,0.0,0.0,0.0,-3.3623,-3.3275,-3.2821,-3.2063,-3.0876,0.0,0.0,0.0,0.0,0.0,0.0,0.0,0.0,0.0,0.0,0.0,0.0,0.0,0.0,0.0,0.0,0.0,0.0,0.0,0.0,0.0,0.0,0.0,0.0,0.0,0.0,0.0,0.0,0.0,0.0,0.0,0.0,0.0,0.0,0.0,0.0,0.0,0.0,0.0,0.0,0.0,0.0,0.0,0.0,0.0,0.0,0.0,0.0,0.0,0.0,0.0,0.0,0.0,0.0,0.0,0.0,0.0,0.0,0.0,0.0,0.0,0.0,0.0,0.0,0.0,0.0,0.0,0.0,0.0,0.0,0.0,0.0,0.0,0.0,0.0,0.0,0.0,0.0,0.0,0.0,0.0,0.0,0.0,0.0,0.0,0.0,0.0,0.0,0.0,0.0,0.0,0.0,0.0,0.0,0.0,0.0,0.0,0.0,0.0,0.0,0.0,0.0,0.0,0.0,0.0,0.0,0.0,0.0,0.0,0.0,0.0,0.0,-3.3201,-3.2329,-3.1201,0.0,0.0,0.0,0.0,0.0,0.0,0.0,0.0,0.0,0.0,0.0,0.0,0.0,0.0,0.0,0.0,0.0,0.0,0.0,0.0,0.0,0.0,0.0,0.0,0.0,0.0,0.0,0.0,0.0,0.0,0.0,0.0,0.0,0.0,0.0,0.0,0.0,0.0,0.0,0.0,0.0,0.0,0.0,0.0,0.0,0.0,0.0,0.0,0.0,0.0,0.0,0.0,0.0,0.0,0.0,0.0,0.0,0.0,0.0,0.0,0.0,0.0,0.0,0.0,0.0,0.0,0.0,0.0,0.0,0.0,0.0,0.0,0.0,0.0,0.0,0.0,0.0,0.0,0.0,0.0,0.0,0.0,0.0,0.0,0.0,0.0,0.0,0.0,0.0,0.0,0.0,0.0,0.0,0.0,0.0,0.0,0.0,0.0,0.0,0.0,0.0,0.0,0.0,0.0,0.0,0.0,0.0,0.0,0.0,0.0,-3.3807,-3.3807,-3.3715,0.0,-3.07,0.0,0.0,0.0,0.0,0.0,0.0,0.0,0.0,0.0,0.0,0.0,0.0,0.0,0.0,0.0,0.0,0.0,0.0,0.0,0.0,0.0,0.0,0.0,0.0,0.0,0.0,0.0,0.0,0.0,0.0,0.0,0.0,0.0,0.0,0.0,0.0,0.0,0.0,0.0,0.0,0.0,0.0,0.0,0.0,0.0,0.0,0.0,0.0,0.0,0.0,0.0,0.0,0.0,0.0,0.0,0.0,0.0,0.0,0.0,0.0,0.0,0.0,0.0,0.0,0.0,0.0,0.0,0.0,0.0,0.0,0.0,0.0,0.0,0.0,0.0,0.0,0.0,0.0,0.0,0.0,0.0,0.0,0.0,0.0,0.0,0.0,0.0,0.0,0.0,0.0,0.0,0.0,0.0,0.0,0.0,0.0,0.0,0.0,0.0,0.0,0.0,0.0,0.0,0.0,0.0,0.0,0.0,0.0,0.0,0.0,-3.3807,-3.3807,-3.2871,-3.1889,0.0,0.0,0.0,0.0,0.0,0.0,0.0,0.0,0.0,0.0,0.0,0.0,0.0,0.0,0.0,0.0,0.0,0.0,0.0,0.0,0.0,0.0,0.0,0.0,0.0,0.0,0.0,0.0,0.0,0.0,0.0,0.0,0.0,0.0,0.0,0.0,0.0,0.0,0.0,0.0,0.0,0.0,0.0,0.0,0.0,0.0,0.0,0.0,0.0,0.0,0.0,0.0,0.0,0.0,0.0,0.0,0.0,0.0,0.0,0.0,0.0,0.0,0.0,0.0,0.0,0.0,0.0,0.0,0.0,0.0,0.0,0.0,0.0,0.0,0.0,0.0,0.0,0.0,0.0,0.0,0.0,0.0,0.0,0.0,0.0,0.0,0.0,0.0,0.0,0.0,0.0,0.0,0.0,0.0,0.0,0.0,0.0,0.0,0.0,0.0,0.0,0.0,0.0,0.0,0.0,0.0,0.0,0.0,0.0,0.0,-3.3807,-3.3807,-3.3752,-3.2669,-3.1728,-3.1021,0.0,0.0,0.0,0.0,0.0,0.0,0.0,0.0,0.0,0.0,0.0,0.0,0.0,0.0,0.0,0.0,0.0,0.0,0.0,0.0,0.0,0.0,0.0,0.0,0.0,0.0,0.0,0.0,0.0,0.0,0.0,0.0,0.0,0.0,0.0,0.0,0.0,0.0,0.0,0.0,0.0,0.0,0.0,0.0,0.0,0.0,0.0,0.0,0.0,0.0,0.0,0.0,0.0,0.0,0.0,0.0,0.0,0.0,0.0,0.0,0.0,0.0,0.0,0.0,0.0,0.0,0.0,0.0,0.0,0.0,0.0,0.0,0.0,0.0,0.0,0.0,0.0,0.0,0.0,0.0,0.0,0.0,0.0,0.0,0.0,0.0,0.0,0.0,0.0,0.0,0.0,0.0,0.0,0.0,0.0,0.0,0.0,0.0,0.0,0.0,0.0,0.0,0.0,0.0,0.0,0.0,0.0,0.0,0.0,-3.3807,-3.3807,-3.3788,-3.3715,-3.2825,0.0,0.0,0.0,0.0,0.0,0.0,0.0,0.0,0.0,0.0,0.0,0.0,0.0,0.0,0.0,0.0,0.0,0.0,0.0,0.0,0.0,0.0,0.0,0.0,0.0,0.0,0.0,0.0,0.0,0.0,0.0,0.0,0.0,0.0,0.0,0.0,0.0,0.0,0.0,0.0,0.0,0.0,0.0,0.0,0.0,0.0,0.0,0.0,0.0,0.0,0.0,0.0,0.0,0.0,0.0,0.0,0.0,0.0,0.0,0.0,0.0,0.0,0.0,0.0,0.0,0.0,0.0,0.0,0.0,0.0,0.0,0.0,0.0,0.0,0.0,0.0,0.0,0.0,0.0,0.0,0.0,0.0,0.0,0.0,0.0,0.0,0.0,0.0,0.0,0.0,0.0,0.0,0.0,0.0,0.0,0.0,0.0,0.0,0.0,0.0,0.0,0.0,0.0,0.0,0.0,0.0,0.0,0.0,0.0,-3.3807,-3.3807,-3.3807,-3.377,-3.2797,-3.1952,0.0,0.0,0.0,0.0,0.0,0.0,0.0,0.0,0.0,0.0,0.0,0.0,0.0,0.0,0.0,0.0,0.0,0.0,0.0,0.0,0.0,0.0,0.0,0.0,0.0,0.0,0.0,0.0,0.0,0.0,0.0,0.0,0.0,0.0,0.0,0.0,0.0,0.0,0.0,0.0,0.0,0.0,0.0,0.0,0.0,0.0,0.0,0.0,0.0,0.0,0.0,0.0,0.0,0.0,0.0,0.0,0.0,0.0,0.0,0.0,0.0,0.0,0.0,0.0,0.0,0.0,0.0,0.0,0.0,0.0,0.0,0.0,0.0,0.0,0.0,0.0,0.0,0.0,0.0,0.0,0.0,0.0,0.0,0.0,0.0,0.0,0.0,0.0,0.0,0.0,0.0,0.0,0.0,0.0,0.0,0.0,0.0,0.0,0.0,0.0,0.0,0.0,0.0,0.0,0.0,0.0,0.0,0.0,0.0,-3.3921,0.0,-3.3881,0.0,-3.2504,-3.1659,0.0,0.0,0.0,0.0,0.0,0.0,0.0,0.0,0.0,0.0,0.0,0.0,0.0,0.0,0.0,0.0,0.0,0.0,0.0,0.0,0.0,0.0,0.0,0.0,0.0,0.0,0.0,0.0,0.0,0.0,0.0,0.0,0.0,0.0,0.0,0.0,0.0,0.0,0.0,0.0,0.0,0.0,0.0,0.0,0.0,0.0,0.0,0.0,0.0,0.0,0.0,0.0,0.0,0.0,0.0,0.0,0.0,0.0,0.0,0.0,0.0,0.0,0.0,0.0,0.0,0.0,0.0,0.0,0.0,0.0,0.0,0.0,0.0,0.0,0.0,0.0,0.0,0.0,0.0,0.0,0.0,0.0,0.0,0.0,0.0,0.0,0.0,0.0,0.0,0.0,0.0,0.0,0.0,0.0,0.0,0.0,0.0,0.0,0.0,0.0,0.0,0.0,0.0,0.0,0.0,0.0,0.0,0.0,-3.4197,-3.4185,-3.4166,-3.408,-3.382,-3.3018,-3.2241,0.0,0.0,0.0,0.0,0.0,0.0,0.0,0.0,0.0,0.0,0.0,0.0,0.0,0.0,0.0,0.0,0.0,0.0,0.0,0.0,0.0,0.0,0.0,0.0,0.0,0.0,0.0,0.0,0.0,0.0,0.0,0.0,0.0,0.0,0.0,0.0,0.0,0.0,0.0,0.0,0.0,0.0,0.0,0.0,0.0,0.0,0.0,0.0,0.0,0.0,0.0,0.0,0.0,0.0,0.0,0.0,0.0,0.0,0.0,0.0,0.0,0.0,0.0,0.0,0.0,0.0,0.0,0.0,0.0,0.0,0.0,0.0,0.0,0.0,0.0,0.0,0.0,0.0,0.0,0.0,0.0,0.0,0.0,0.0,0.0,0.0,0.0,0.0,0.0,0.0,0.0,0.0,0.0,0.0,0.0,0.0,0.0,0.0,0.0,0.0,0.0,0.0,0.0,0.0,0.0,0.0,0.0,0.0,0.0,-3.3952,-3.4111,-3.432,-3.4573,-3.3493,-3.2674,0.0,0.0,0.0,0.0,0.0,0.0,0.0,0.0,0.0,0.0,0.0,0.0,0.0,0.0,0.0,0.0,0.0,0.0,0.0,0.0,0.0,0.0,0.0,0.0,0.0,0.0,0.0,0.0,0.0,0.0,0.0,0.0,0.0,0.0,0.0,0.0,0.0,0.0,0.0,0.0,0.0,0.0,0.0,0.0,0.0,0.0,0.0,0.0,0.0,0.0,0.0,0.0,0.0,0.0,0.0,0.0,0.0,0.0,0.0,0.0,0.0,0.0,0.0,0.0,0.0,0.0,0.0,0.0,0.0,0.0,0.0,0.0,0.0,0.0,0.0,0.0,0.0,0.0,0.0,0.0,0.0,0.0,0.0,0.0,0.0,0.0,0.0,0.0,0.0,0.0,0.0,0.0,0.0,0.0,0.0,0.0,0.0,0.0,0.0,0.0,0.0,0.0,0.0,0.0,0.0,0.0,0.0,0.0,0.0,-3.4415,-3.4637,-3.4878,-3.5145,-3.3937,-3.3087,-3.2583,0.0,0.0,0.0,0.0,0.0,0.0,0.0,0.0,0.0,0.0,0.0,0.0,0.0,0.0,0.0,0.0,0.0,0.0,0.0,0.0,0.0,0.0,0.0,0.0,0.0,0.0,0.0,0.0,0.0,0.0,0.0,0.0,0.0,0.0,0.0,0.0,0.0,0.0,0.0,0.0,0.0,0.0,0.0,0.0,0.0,0.0,0.0,0.0,0.0,0.0,0.0,0.0,0.0,0.0,0.0,0.0,0.0,0.0,0.0,0.0,0.0,0.0,0.0,0.0,0.0,0.0,0.0,0.0,0.0,0.0,0.0,0.0,0.0,0.0,0.0,0.0,0.0,0.0,0.0,0.0,0.0,0.0,0.0,0.0,0.0,0.0,0.0,0.0,0.0,0.0,0.0,0.0,0.0,0.0,0.0,0.0,0.0,0.0,0.0,0.0,0.0,0.0,0.0,0.0,0.0,0.0,0.0,0.0,-3.5541,-3.5741,-3.571,-3.5535,-3.4458,-3.3526,0.0,0.0,0.0,0.0,0.0,0.0,0.0,0.0,0.0,0.0,0.0,0.0,0.0,0.0,0.0,0.0,0.0,0.0,0.0,0.0,0.0,0.0,0.0,0.0,0.0,0.0,0.0,0.0,0.0,0.0,0.0,0.0,0.0,0.0,0.0,0.0,0.0,0.0,0.0,0.0,0.0,0.0,0.0,0.0,0.0,0.0,0.0,0.0,0.0,0.0,0.0,0.0,0.0,0.0,0.0,0.0,0.0,0.0,0.0,0.0,0.0,0.0,0.0,0.0,0.0,0.0,0.0,0.0,0.0,0.0,0.0,0.0,0.0,0.0,0.0,0.0,0.0,0.0,0.0,0.0,0.0,0.0,0.0,0.0,0.0,0.0,0.0,0.0,0.0,0.0,0.0,0.0,0.0,0.0,0.0,0.0,0.0,0.0,0.0,0.0,0.0,0.0,0.0,0.0,0.0,0.0,0.0,0.0,0.0,-3.7469,-3.7362,-3.7167,-3.6924,-3.5682,-3.4792,0.0,0.0,0.0,0.0,0.0,0.0,0.0,0.0,0.0,0.0,0.0,0.0,0.0,0.0,0.0,0.0,0.0,0.0,0.0,0.0,0.0,0.0,0.0,0.0,0.0,0.0,0.0,0.0,0.0,0.0,0.0,0.0,0.0,0.0,0.0,0.0,0.0,0.0,0.0,0.0,0.0,0.0,0.0,0.0,0.0,0.0,0.0,0.0,0.0,0.0,0.0,0.0,0.0,0.0,0.0,0.0,0.0,0.0,0.0,0.0,0.0,0.0,0.0,0.0,0.0,0.0,0.0,0.0,0.0,0.0,0.0,0.0,0.0,0.0,0.0,0.0,0.0,0.0,0.0,0.0,0.0,0.0,0.0,0.0,0.0,0.0,0.0,0.0,0.0,0.0,0.0,0.0,0.0,0.0,0.0,0.0,0.0,0.0,0.0,0.0,0.0,0.0,0.0,0.0,0.0,0.0,0.0,0.0,-3.6357,-3.7573,-3.7978,-3.8118,-3.8025,-3.6878,-3.5878,0.0,0.0,0.0,0.0,0.0,0.0,0.0,0.0,0.0,0.0,0.0,0.0,0.0,0.0,0.0,0.0,0.0,0.0,0.0,0.0,0.0,0.0,0.0,0.0,0.0,0.0,0.0,0.0,0.0,0.0,0.0,0.0,0.0,0.0,0.0,0.0,0.0,0.0,0.0,0.0,0.0,0.0,0.0,0.0,0.0,0.0,0.0,0.0,0.0,0.0,0.0,0.0,0.0,0.0,0.0,0.0,0.0,0.0,0.0,0.0,0.0,0.0,0.0,0.0,0.0,0.0,0.0,0.0,0.0,0.0,0.0,0.0,0.0,0.0,0.0,0.0,0.0,0.0,0.0,0.0,0.0,0.0,0.0,0.0,0.0,0.0,0.0,0.0,0.0,0.0,0.0,0.0,0.0,0.0,0.0,0.0,0.0,0.0,0.0,0.0,0.0,0.0,0.0,0.0,0.0,0.0,0.0,0.0,-3.6408,-3.6864,-3.79,-3.8502,-3.8603,-3.7819,-3.667,0.0,0.0,0.0,0.0,0.0,0.0,0.0,0.0,0.0,0.0,0.0,0.0,0.0,0.0,0.0,0.0,0.0,0.0,0.0,0.0,0.0,0.0,0.0,0.0,0.0,0.0,0.0,0.0,0.0,0.0,0.0,0.0,0.0,0.0,0.0,0.0,0.0,0.0,0.0,0.0,0.0,0.0,0.0,0.0,0.0,0.0,0.0,0.0,0.0,0.0,0.0,0.0,0.0,0.0,0.0,0.0,0.0,0.0,0.0,0.0,0.0,0.0,0.0,0.0,0.0,0.0,0.0,0.0,0.0,0.0,0.0,0.0,0.0,0.0,0.0,0.0,0.0,0.0,0.0,0.0,0.0,0.0,0.0,0.0,0.0,0.0,0.0,0.0,0.0,0.0,0.0,0.0,0.0,0.0,0.0,0.0,0.0,0.0,0.0,0.0,0.0,0.0,0.0,0.0,0.0,0.0,0.0,0.0,-3.6344,-3.8463,-3.7423,-3.72,-3.8029,-3.71,-3.6376,0.0,0.0,0.0,0.0,0.0,0.0,0.0,0.0,0.0,0.0,0.0,0.0,0.0,0.0,0.0,0.0,0.0,0.0,0.0,0.0,0.0,0.0,0.0,0.0,0.0,0.0,0.0,0.0,0.0,0.0,0.0,0.0,0.0,0.0,0.0,0.0,0.0,0.0,0.0,0.0,0.0,0.0,0.0,0.0,0.0,0.0,0.0,0.0,-3.4819,0.0,0.0,0.0,0.0,0.0,0.0,0.0,0.0,0.0,0.0,0.0,0.0,0.0,0.0,0.0,0.0,0.0,0.0,0.0,0.0,0.0,0.0,0.0,0.0,0.0,0.0,0.0,0.0,0.0,0.0,0.0,0.0,0.0,0.0,0.0,0.0,0.0,0.0,0.0,0.0,0.0,0.0,0.0,0.0,0.0,0.0,0.0,0.0,0.0,0.0,0.0,0.0,0.0,0.0,0.0,0.0,0.0,0.0,0.0,-3.6495,-3.8243,-3.7006,-3.6767,-3.7632,-3.6803,-3.6101,0.0,0.0,0.0,0.0,0.0,0.0,0.0,0.0,0.0,0.0,0.0,0.0,0.0,0.0,0.0,0.0,0.0,0.0,0.0,0.0,0.0,0.0,0.0,0.0,0.0,0.0,0.0,0.0,0.0,0.0,0.0,0.0,0.0,0.0,0.0,0.0,0.0,0.0,0.0,0.0,0.0,0.0,0.0,0.0,0.0,0.0,0.0,0.0,0.0,0.0,0.0,0.0,0.0,0.0,0.0,0.0,0.0,0.0,0.0,0.0,0.0,0.0,0.0,0.0,0.0,0.0,0.0,0.0,0.0,0.0,0.0,0.0,0.0,0.0,0.0,0.0,0.0,0.0,0.0,0.0,0.0,0.0,0.0,0.0,0.0,0.0,0.0,0.0,0.0,0.0,0.0,0.0,0.0,0.0,0.0,0.0,0.0,0.0,0.0,0.0,0.0,0.0,0.0,0.0,0.0,0.0,0.0,-3.5848,-3.6615,-3.7584,-3.6652,-3.6556,-3.7437,-3.6707,-3.5917,-3.5059,0.0,0.0,0.0,0.0,0.0,0.0,0.0,0.0,0.0,0.0,0.0,0.0,0.0,0.0,0.0,0.0,0.0,0.0,0.0,0.0,0.0,0.0,0.0,0.0,0.0,0.0,0.0,0.0,0.0,0.0,0.0,0.0,0.0,0.0,0.0,0.0,0.0,0.0,-3.4362,-3.5802,0.0,0.0,0.0,0.0,0.0,0.0,0.0,0.0,-3.5425,0.0,0.0,0.0,0.0,0.0,0.0,0.0,0.0,0.0,0.0,0.0,0.0,0.0,0.0,0.0,0.0,0.0,0.0,0.0,0.0,0.0,0.0,0.0,0.0,0.0,0.0,0.0,0.0,0.0,0.0,0.0,0.0,0.0,0.0,0.0,0.0,0.0,0.0,0.0,0.0,0.0,0.0,0.0,0.0,0.0,0.0,0.0,0.0,0.0,0.0,0.0,0.0,0.0,0.0,0.0,0.0,-3.7052,-3.5848,-3.6288,-3.8414,-3.6343,-3.5936,-3.7401,-3.674,-3.5899,-3.5045,0.0,0.0,0.0,0.0,0.0,0.0,0.0,0.0,0.0,0.0,0.0,0.0,0.0,0.0,0.0,0.0,0.0,0.0,0.0,0.0,0.0,0.0,0.0,0.0,0.0,0.0,0.0,0.0,0.0,0.0,0.0,0.0,0.0,0.0,0.0,0.0,0.0,0.0,0.0,-3.6915,-3.7058,0.0,0.0,0.0,0.0,0.0,0.0,0.0,0.0,-3.579,0.0,0.0,0.0,0.0,0.0,0.0,0.0,0.0,0.0,0.0,0.0,0.0,0.0,0.0,0.0,0.0,0.0,0.0,0.0,0.0,0.0,0.0,0.0,0.0,0.0,0.0,0.0,0.0,0.0,0.0,0.0,0.0,0.0,0.0,0.0,0.0,0.0,0.0,0.0,0.0,0.0,0.0,0.0,0.0,0.0,0.0,0.0,0.0,0.0,0.0,0.0,0.0,0.0,0.0,0.0,-3.6795,-3.6486,-3.7092,-3.8579,-3.6725,-3.6266,-3.7437,-3.6707,-3.5917,0.0,0.0,0.0,0.0,0.0,0.0,0.0,0.0,0.0,0.0,0.0,0.0,0.0,0.0,0.0,0.0,0.0,0.0,0.0,0.0,0.0,0.0,0.0,0.0,0.0,0.0,0.0,0.0,0.0,0.0,0.0,0.0,0.0,0.0,0.0,0.0,0.0,0.0,0.0,0.0,-3.7697,-3.7666,-3.8373,0.0,0.0,0.0,0.0,0.0,0.0,-3.6292,-3.5925,0.0,0.0,0.0,0.0,0.0,0.0,0.0,0.0,0.0,0.0,0.0,0.0,0.0,0.0,0.0,0.0,0.0,0.0,0.0,0.0,0.0,0.0,0.0,0.0,0.0,0.0,0.0,0.0,0.0,0.0,0.0,0.0,0.0,0.0,0.0,0.0,0.0,0.0,0.0,0.0,0.0,0.0,0.0,0.0,0.0,0.0,0.0,0.0,0.0,0.0,0.0,0.0,0.0,0.0,0.0,-3.6321,-3.7088,-3.7896,-3.8582,-3.7276,-3.6942,-3.7694,-3.6945,-3.6138,0.0,0.0,0.0,0.0,0.0,0.0,0.0,0.0,0.0,0.0,0.0,0.0,0.0,0.0,0.0,0.0,0.0,0.0,0.0,0.0,0.0,0.0,0.0,0.0,0.0,0.0,0.0,0.0,0.0,0.0,0.0,0.0,0.0,0.0,0.0,0.0,0.0,0.0,0.0,0.0,0.0,-3.8499,-3.9241,-3.8306,0.0,0.0,0.0,0.0,-3.8032,-3.7118,0.0,0.0,0.0,0.0,0.0,0.0,0.0,0.0,0.0,0.0,0.0,0.0,0.0,0.0,0.0,0.0,0.0,0.0,0.0,0.0,0.0,0.0,0.0,0.0,0.0,0.0,0.0,0.0,0.0,0.0,0.0,0.0,0.0,0.0,0.0,0.0,0.0,0.0,0.0,0.0,0.0,0.0,0.0,0.0,0.0,0.0,0.0,0.0,0.0,0.0,0.0,0.0,0.0,0.0,0.0,0.0,-3.6285,-3.7107,-3.7896,-3.8615,-3.7841,-3.7731,-3.8524,-3.7804,-3.6978,0.0,0.0,0.0,0.0,0.0,0.0,0.0,0.0,0.0,0.0,0.0,0.0,0.0,0.0,0.0,0.0,0.0,0.0,0.0,0.0,0.0,0.0,0.0,0.0,0.0,0.0,0.0,0.0,0.0,0.0,0.0,0.0,0.0,0.0,0.0,0.0,0.0,0.0,0.0,0.0,0.0,-3.9462,-3.8052,-3.8289,-3.8269,0.0,0.0,-3.8467,-3.8683,-3.9178,0.0,0.0,0.0,0.0,0.0,0.0,0.0,0.0,0.0,0.0,0.0,0.0,0.0,0.0,0.0,0.0,0.0,0.0,0.0,0.0,0.0,0.0,0.0,0.0,0.0,0.0,0.0,0.0,0.0,0.0,0.0,0.0,0.0,0.0,0.0,0.0,0.0,0.0,0.0,0.0,0.0,0.0,0.0,0.0,0.0,0.0,0.0,0.0,0.0,0.0,0.0,0.0,0.0,0.0,0.0,-3.5978,-3.6336,-3.7573,-3.8401,-3.8689,-3.8358,-3.834,-3.8707,-3.7477,-3.6413,0.0,0.0,0.0,0.0,0.0,0.0,0.0,0.0,0.0,0.0,0.0,0.0,0.0,0.0,0.0,0.0,0.0,0.0,0.0,0.0,0.0,0.0,0.0,0.0,0.0,0.0,0.0,0.0,0.0,0.0,0.0,0.0,0.0,0.0,0.0,0.0,0.0,0.0,0.0,0.0,0.0,0.0,-3.909,-3.8966,0.0,0.0,0.0,-3.9374,-3.8868,0.0,0.0,0.0,0.0,0.0,0.0,0.0,0.0,0.0,0.0,0.0,0.0,0.0,0.0,0.0,0.0,0.0,0.0,0.0,0.0,0.0,0.0,0.0,0.0,0.0,0.0,0.0,0.0,0.0,0.0,0.0,0.0,0.0,0.0,0.0,0.0,0.0,0.0,0.0,0.0,0.0,0.0,0.0,0.0,0.0,0.0,0.0,0.0,0.0,0.0,0.0,0.0,0.0,0.0,0.0,0.0,0.0,-3.6346,-3.7566,-3.8265,-3.8426,-3.8208,-3.8102,-3.8083,-3.6927,0.0,0.0,0.0,0.0,0.0,0.0,0.0,0.0,0.0,0.0,0.0,0.0,0.0,0.0,0.0,0.0,0.0,0.0,0.0,0.0,0.0,0.0,0.0,0.0,0.0,0.0,0.0,-2.7749,0.0,0.0,0.0,0.0,0.0,0.0,0.0,0.0,0.0,0.0,0.0,0.0,0.0,0.0,-3.8839,-4.0129,-3.9881,-3.9614,0.0,0.0,-3.9985,-3.9546,-3.9964,-3.9726,0.0,0.0,0.0,0.0,0.0,0.0,0.0,0.0,0.0,0.0,0.0,0.0,0.0,0.0,0.0,0.0,0.0,0.0,0.0,0.0,0.0,0.0,0.0,0.0,0.0,0.0,0.0,0.0,0.0,0.0,0.0,0.0,0.0,0.0,0.0,0.0,0.0,0.0,0.0,0.0,0.0,0.0,0.0,0.0,0.0,0.0,0.0,0.0,0.0,0.0,0.0,0.0,0.0,0.0,0.0,-3.6329,-3.6495,-3.6932,-3.7632,-3.6879,-3.6468,-3.645,-3.634,-3.5532,0.0,0.0,0.0,0.0,0.0,0.0,0.0,0.0,0.0,0.0,0.0,0.0,0.0,0.0,0.0,0.0,0.0,0.0,0.0,0.0,0.0,0.0,0.0,0.0,0.0,0.0,0.0,0.0,0.0,0.0,0.0,0.0,0.0,0.0,0.0,0.0,0.0,0.0,0.0,0.0,0.0,-4.0148,-4.0301,-4.0903,-4.1609,0.0,-4.1256,-4.053,-4.1199,-4.1371,-4.0521,-3.8014,0.0,0.0,0.0,0.0,0.0,0.0,0.0,0.0,0.0,0.0,0.0,0.0,0.0,0.0,0.0,0.0,0.0,0.0,0.0,0.0,0.0,0.0,0.0,0.0,0.0,0.0,0.0,0.0,0.0,0.0,0.0,0.0,0.0,0.0,0.0,0.0,0.0,0.0,0.0,0.0,0.0,0.0,0.0,0.0,0.0,0.0,0.0,0.0,0.0,0.0,0.0,0.0,0.0,-3.431,-3.4929,-3.5938,-3.6588,-3.684,-3.6475,-3.6285,-3.6285,-3.5771,-3.4729,0.0,0.0,0.0,0.0,0.0,0.0,0.0,0.0,0.0,0.0,0.0,0.0,0.0,0.0,0.0,0.0,0.0,0.0,0.0,0.0,0.0,0.0,0.0,0.0,0.0,0.0,0.0,0.0,-2.9338,-2.9775,-3.1151,0.0,0.0,0.0,0.0,0.0,0.0,0.0,0.0,0.0,0.0,-3.9088,-4.0129,-4.0568,0.0,0.0,-4.1915,-4.1762,-4.1533,-4.1504,-4.0626,-3.8078,-3.7423,0.0,0.0,0.0,0.0,0.0,0.0,0.0,0.0,0.0,0.0,0.0,0.0,0.0,0.0,0.0,0.0,0.0,0.0,0.0,0.0,0.0,0.0,0.0,0.0,0.0,0.0,0.0,0.0,0.0,0.0,0.0,0.0,0.0,0.0,0.0,0.0,0.0,0.0,0.0,0.0,0.0,0.0,0.0,0.0,0.0,0.0,0.0,0.0,0.0,0.0,0.0,0.0,-3.358,-3.4029,-3.5193,-3.5887,-3.6053,-3.5749,-3.5579,-3.5532,-3.4949,-3.3885,0.0,0.0,0.0,0.0,0.0,0.0,0.0,0.0,0.0,0.0,0.0,0.0,0.0,0.0,0.0,0.0,0.0,0.0,0.0,0.0,0.0,0.0,0.0,0.0,0.0,0.0,0.0,0.0,-3.033,-3.0932,-3.207,0.0,0.0,0.0,0.0,0.0,0.0,0.0,0.0,0.0,0.0,-3.8992,-4.0444,-4.0673,-4.0941,-4.1762,-4.1972,-4.1915,-4.1552,-4.1285,-4.0444,-3.8382,0.0,0.0,0.0,0.0,0.0,0.0,0.0,0.0,0.0,0.0,0.0,0.0,0.0,0.0,0.0,0.0,0.0,0.0,0.0,0.0,0.0,0.0,0.0,0.0,0.0,0.0,0.0,-3.1452,0.0,0.0,-3.1274,0.0,0.0,0.0,0.0,0.0,0.0,0.0,0.0,0.0,0.0,0.0,0.0,0.0,0.0,0.0,0.0,0.0,0.0,0.0,0.0,0.0,0.0,-3.2524,-3.4043,-3.4154,-3.4555,-3.5267,-3.4431,-3.3947,-3.3862,-3.3825,-3.3054,-3.1488,0.0,0.0,0.0,0.0,0.0,0.0,0.0,0.0,0.0,0.0,0.0,0.0,0.0,0.0,0.0,0.0,0.0,0.0,0.0,0.0,0.0,0.0,0.0,0.0,0.0,0.0,-3.0362,-3.0646,-3.1261,0.0,0.0,0.0,0.0,0.0,0.0,0.0,0.0,0.0,0.0,-3.9155,-4.052,-4.1304,-4.1466,-4.1705,-4.2603,-4.139,-4.0654,-4.1399,-4.0845,-4.0005,0.0,0.0,0.0,0.0,0.0,0.0,0.0,0.0,0.0,0.0,0.0,0.0,0.0,0.0,0.0,0.0,0.0,0.0,0.0,0.0,0.0,0.0,0.0,0.0,0.0,0.0,0.0,-3.2155,-3.1433,0.0,0.0,0.0,0.0,0.0,0.0,0.0,0.0,0.0,0.0,0.0,-3.1686,-3.1927,0.0,0.0,0.0,0.0,0.0,0.0,0.0,0.0,0.0,0.0,0.0,0.0,-3.1992,-3.2583,-3.3586,-3.4234,-3.4481,-3.4107,-3.3624,-3.3083,-3.3012,-3.2265,-3.065,0.0,0.0,0.0,0.0,0.0,0.0,0.0,0.0,0.0,0.0,0.0,0.0,0.0,0.0,0.0,0.0,0.0,0.0,0.0,0.0,0.0,0.0,0.0,0.0,0.0,-3.1203,0.0,0.0,0.0,0.0,0.0,0.0,0.0,0.0,0.0,0.0,0.0,-3.6806,-3.7597,-3.8706,-3.9756,-4.0568,-4.0711,-4.0998,0.0,0.0,0.0,0.0,0.0,0.0,0.0,0.0,0.0,0.0,0.0,0.0,0.0,0.0,-3.8788,-3.761,-3.7154,-3.7058,-3.7303,0.0,0.0,0.0,0.0,0.0,0.0,0.0,0.0,0.0,0.0,0.0,0.0,0.0,0.0,-3.2155,-3.1433,-3.1403,0.0,0.0,0.0,0.0,0.0,0.0,0.0,0.0,-3.2679,-3.3037,-3.2578,-3.2819,-3.2622,0.0,-3.1272,-3.0735,0.0,0.0,0.0,0.0,0.0,0.0,0.0,0.0,-3.1351,-3.144,-3.2639,-3.3271,-3.3265,-3.3179,-3.2859,-3.2299,-3.1942,-3.1133,-2.9831,-2.8778,-2.8069,0.0,0.0,0.0,0.0,0.0,0.0,0.0,0.0,0.0,0.0,0.0,0.0,0.0,0.0,0.0,0.0,0.0,0.0,0.0,0.0,0.0,0.0,0.0,-3.12,0.0,0.0,0.0,0.0,0.0,0.0,0.0,0.0,0.0,-3.563,-3.6385,-3.7207,-3.8056,-3.8897,-3.9661,-4.0225,0.0,0.0,0.0,0.0,0.0,0.0,0.0,-4.011,-3.9546,-3.8984,-3.8497,-3.8209,-3.8803,-3.9242,-3.8975,0.0,0.0,-3.8613,-3.8137,-3.8003,-3.8287,-3.8613,-3.8756,-3.8509,-3.8985,-3.9288,0.0,0.0,0.0,0.0,0.0,0.0,0.0,0.0,-3.2619,-3.2161,0.0,-3.147,0.0,0.0,0.0,0.0,-3.0341,-3.1108,0.0,0.0,-3.3636,-3.408,-3.4011,-3.3287,-3.2953,-3.2908,-3.2109,-3.1348,-3.0586,-2.9742,0.0,0.0,0.0,0.0,0.0,0.0,-3.0615,-3.0641,-3.1422,-3.1797,-3.174,-3.1728,-3.1621,-3.1452,-3.0638,-2.9812,-2.906,-2.8968,-2.7864,-2.5596,-2.7617,0.0,0.0,0.0,0.0,0.0,0.0,0.0,0.0,0.0,0.0,0.0,0.0,0.0,0.0,0.0,0.0,0.0,0.0,0.0,0.0,-3.0692,0.0,0.0,0.0,0.0,0.0,0.0,0.0,0.0,0.0,0.0,-3.6366,-3.7177,-3.7999,-3.8782,0.0,0.0,0.0,0.0,-4.032,-4.032,-4.032,-4.032,-4.032,-4.032,-4.0282,-4.0225,0.0,0.0,-3.9088,-3.968,-3.9995,-3.9164,-3.9652,-4.0263,-4.0186,-3.9462,-3.9185,-3.986,-3.9461,-3.9261,-3.9889,-4.0015,-4.0118,-3.3972,0.0,0.0,0.0,0.0,-3.3201,-3.3133,-3.3403,-3.2852,-3.2454,-3.2252,-3.2234,0.0,0.0,0.0,0.0,0.0,0.0,-3.1762,-3.2098,-3.2906,-3.3015,-3.25,-3.2258,-3.2147,-3.2128,-3.1329,-3.0827,-3.0567,-2.9776,-2.9376,-2.9357,0.0,0.0,0.0,0.0,-3.0615,-3.0641,-3.1403,-3.1801,-3.176,-3.1668,-3.1303,-3.0582,-2.9787,-2.9244,-2.9005,-2.8448,-2.8106,-2.7937,-2.7508,0.0,0.0,0.0,0.0,0.0,0.0,0.0,0.0,0.0,0.0,0.0,0.0,0.0,0.0,0.0,0.0,0.0,0.0,0.0,-2.9889,-3.0787,-3.1363,0.0,0.0,0.0,0.0,0.0,0.0,0.0,0.0,0.0,-3.6385,-3.7196,-3.7578,0.0,0.0,-4.0072,-3.9451,-3.9881,-4.032,-4.032,-4.032,0.0,-4.032,-4.032,-4.0091,-3.947,-3.9374,-3.9088,-3.8228,-3.9289,-4.0014,-3.9136,-3.9202,-3.9365,-3.9403,-3.97,-3.9938,-4.0168,-4.0043,-3.9957,-4.0168,-3.9814,-3.9391,-3.422,-3.408,-3.3881,-3.3807,-3.377,-3.3293,-3.3366,-3.377,-3.3275,-3.3078,-3.306,-3.306,-3.2205,-3.0686,-3.0067,0.0,0.0,0.0,-3.1365,-3.1755,-3.2291,-3.2258,-3.1831,-3.1801,-3.1626,-3.131,-3.0827,-3.0448,-3.0113,-2.9683,-2.9463,-2.9481,0.0,0.0,-2.9425,-2.988,-3.0121,-3.014,-3.0604,-3.0835,-3.0821,-3.0678,-3.0346,-2.9768,-2.9274,-2.8987,-2.8987,-2.8558,-2.8356,-2.851,-2.7904,-2.7556,0.0,0.0,0.0,0.0,0.0,0.0,0.0,0.0,0.0,0.0,0.0,-2.8881,-2.885,0.0,0.0,0.0,-2.9437,-2.982,-3.0408,-3.1093,0.0,0.0,0.0,0.0,0.0,0.0,0.0,-3.5114,-3.5182,-3.5392,-3.5927,-3.671,-3.7158,-3.6997,-3.8295,-3.9088,-3.8553,0.0,-3.9279,-3.9279,-3.926,-3.9279,-3.926,-3.9279,-3.9088,-3.8572,-3.8495,-3.8323,-3.7846,-3.861,-3.9049,-3.8648,-3.8495,-3.8476,-3.8476,-3.8935,-3.926,-3.9279,-3.9279,-3.926,-3.9279,-3.8858,-3.851,-3.4521,-3.4478,-3.4049,-3.3855,-3.3815,-3.382,-3.3807,-3.3807,-3.3733,-3.3697,-3.3715,-3.3642,-3.28,-3.1323,-2.9857,0.0,-3.0412,-3.0483,-3.0928,-3.1701,-3.1712,-3.1686,-3.163,-3.1633,-3.1254,-3.0546,-3.0546,-3.0174,-2.9487,-2.957,-2.9635,-2.9617,-2.9492,-2.9419,-2.9427,-2.9494,-2.9483,-2.9407,-2.9502,-2.9442,-2.9302,-2.9175,-2.9119,-2.9119,-2.904,-2.8987,-2.8987,-2.8987,-2.8656,-2.797,-2.8558,-2.7904,-2.5888,0.0,0.0,0.0,0.0,0.0,0.0,0.0,0.0,0.0,0.0,0.0,0.0,0.0,0.0,0.0,-2.9678,0.0,-3.1393,-3.1496,0.0,0.0,0.0,-3.3119,-3.4014,-3.4082,-3.4388,-3.5114,0.0,0.0,-3.5182,-3.5889,-3.668,-3.7387,-3.7617,-3.7674,-3.7617,-3.7693,-3.7693,-3.7808,-3.7731,-3.7712,-3.7865,-3.775,-3.7655,-3.7636,-3.7597,-3.7551,-3.7464,-3.7684,-3.7712,-3.7617,-3.7597,-3.7597,-3.7597,-3.7578,-3.7502,-3.7502,-3.7674,-3.775,-3.7808,-3.7729,-3.7699,-3.4851,-3.4775,-3.4529,-3.4291,-3.4086,-3.3881,-3.3807,-3.3752,-3.3146,-3.2876,-3.2839,-3.2228,-3.144,-3.0537,-2.961,-2.9654,-3.0476,-3.0487,-3.0643,-3.0875,-3.0997,-3.0721,-3.0141,-3.0273,-3.0251,-3.0089,-3.0071,-2.9957,-2.9796,-2.9811,-2.9836,-2.9828,-2.9786,-2.9689,-2.9579,-3.0198,-3.0167,-2.9407,-3.0157,-3.0137,-2.9331,-2.9218,-2.9145,-2.9108,-2.9021,-2.8987,-2.8987,-2.8987,-2.8913,-2.8712,-2.8319,-2.8099,-2.8124,-2.677,0.0,0.0,0.0,0.0,0.0,0.0,0.0,0.0,0.0,-2.9041,-2.8463,0.0,-2.9839,0.0,-2.9977,-3.0478,-3.1419,-3.1458,0.0,0.0,-3.3681,-3.4006,-3.4827,-3.4904,-3.4999,-3.5171,-3.5182,-3.5182,-3.5182,-3.5381,-3.5572,-3.5783,-3.691,-3.7464,-3.691,-3.733,-3.7693,-3.7655,-3.7617,-3.7693,-3.7597,-3.7177,-3.6795,-3.6787,-3.6761,-3.6523,-3.5908,-3.6884,-3.7505,-3.6931,-3.6787,-3.6795,-3.6787,-3.626,-3.5859,-3.5878,-3.6795,-3.7693,-3.7683,-3.7253,-3.6903,-3.5119,-3.5058,-3.4851,-3.4675,-3.4505,-3.413,-3.3705,-3.3238,-3.2784,-3.2399,-3.2008,-3.1256,-3.0698,-3.0296,-2.957,-2.9538,-3.0025,-3.0083,-3.0183,-3.0283,-3.0358,-3.0167,-2.9742,-2.9853,-2.9902,-2.9894,-2.9811,-2.975,-2.9758,-2.975,-2.975,-2.9777,-2.9758,-2.9697,-2.9636,-3.0517,-3.0706,-3.0161,-3.0706,-3.0518,-2.9569,-2.9454,-2.9372,-2.9235,-2.9267,-2.9192,-2.8998,-2.9171,-2.9026,-2.8496,-2.8124,-2.7932,-2.7915,-2.6667,-2.6135,0.0,0.0,0.0,0.0,0.0,0.0,0.0,0.0,0.0,0.0,0.0,-2.9612,-2.9996,-3.0135,-3.0529,-3.1389,-3.1439,-3.1943,-3.328,-3.3414,-3.3605,-3.4036,-3.4074,-3.4074,-3.4074,-3.4445,-3.4674,-3.4674,-3.498,-3.5182,-3.5182,-3.6012,-3.6432,-3.6042,-3.6317,-3.6585,-3.6585,-3.6585,-3.6585,-3.6585,-3.6222,-3.5908,-3.5908,-3.591,-3.5711,-3.5297,-3.5938,-3.6426,-3.6023,-3.5908,-3.5908,-3.5889,-3.5572,-3.5201,-3.5324,-3.5935,-3.6509,-3.6566,-3.632,-3.6113,-3.5304,-3.5281,-3.5119,-3.4997,-3.4888,-3.4472,-3.3734,-3.2814,-3.2612,-3.201,-3.1109,-3.0485,-3.0257,-3.025,-2.9662,-2.9453,-2.9551,-2.9607,-2.9742,-2.9902,-2.9918,-2.9934,-2.9934,-2.9969,-2.9965,-2.9977,-2.9784,-2.9688,-2.9697,-2.9716,-2.9716,-2.9716,-2.9697,-2.9688,-2.9744,-3.0682,-3.1157,-3.1097,-3.0989,-3.053,-2.9794,-2.9689,-2.9561,-2.9402,-2.9493,-2.9365,-2.9051,-2.9353,-2.9038,-2.8051,-2.8151,-2.7867,-2.6996,-2.687,-2.6769,0.0,-2.6567,0.0,0.0,0.0,0.0,0.0,0.0,0.0,0.0,-2.917,-2.9194,-3.0121,-3.0204,-3.0529,-3.1324,-3.14,-3.1763,-3.2585,-3.268,-3.268,-3.2699,-3.268,-3.268,-3.268,-3.3375,-3.3842,-3.3853,-3.4464,-3.4866,-3.4781,-3.48,-3.4838,-3.4877,-3.5114,-3.5316,-3.5182,-3.5182,-3.54,-3.5362,-3.5259,-3.5248,-3.522,-3.525,-3.5182,-3.5201,-3.5239,-3.522,-3.5076,-3.5057,-3.4999,-3.4934,-3.4838,-3.4838,-3.4762,-3.4923,-3.5152,-3.5313,-3.5442,-3.5442,-3.542,-3.5372,-3.5323,-3.5176,-3.4971,-3.4832,-3.453,-3.4057,-3.2767,-3.1281,-2.9816,-2.9861,-2.9814,-2.969,-2.9746,-2.9822,-2.9836,-2.9826,-2.9842,-2.9902,-3.0026,-3.0047,-3.0073,-3.0221,-3.0311,-3.0292,-3.0248,-3.0254,-3.0254,-3.0254,-3.0254,-3.0254,-3.0235,-3.0254,-3.0292,0.0,0.0,0.0,-3.0289,-2.9804,-2.9635,-2.9463,-2.9357,-2.9315,-2.9232,0.0,-2.9078,-2.9082,-2.9004,-2.8796,-2.8981,0.0,0.0,0.0,0.0,0.0,0.0,0.0,0.0,0.0,0.0,0.0,-2.8103,-2.8181,-2.9022,-2.9563,-2.9985,-3.0185,-3.0204,-3.0529,-3.1305,-3.1458,-3.1801,-3.2585,-3.268,-3.268,-3.268,-3.268,-3.268,-3.2699,-3.2833,-3.2947,-3.2967,-3.31,-3.3196,-3.3272,-3.3196,-3.3177,-3.3215,-3.4323,-3.5125,-3.5182,-3.5144,-3.5182,-3.5182,-3.5182,-3.5182,-3.5182,-3.5196,-3.5187,-3.5193,-3.5196,-3.492,-3.4418,-3.4235,-3.4006,-3.3368,-3.3177,-3.3272,-3.3196,-3.375,-3.4407,-3.5057,-3.5328,-3.5496,-3.5486,-3.5453,-3.5434,-3.535,0.0,-3.4694,-3.442,-3.4215,-3.2741,-3.1157,-2.9608,-2.9696,-2.9722,-2.9696,-2.9801,-2.9899,-3.0019,-3.0,-3.0037,-3.0154,-3.0241,-3.0248,-3.0254,-3.0336,-3.0404,-3.0398,-3.0305,-3.0248,-3.0248,-3.0188,-3.0154,-3.0154,-3.0154,-3.0154,-3.0154,-3.0279,-3.0464,-3.0751,-2.9832,-2.9167,-2.8771,-2.863,-2.8535,-2.8404,-2.8404,0.0,0.0,0.0,0.0,0.0,0.0,0.0,0.0,0.0,0.0,-2.7085,-2.671,-2.6338,-2.6053,-2.6492,-2.7015,-2.7485,-2.7999,-2.8478,-2.8872,-2.97,-3.0204,-3.0204,-3.0204,-3.0357,-3.0758,-3.0835,-3.1006,-3.1408,-3.1465,-3.1484,-3.1458,-3.1465,-3.1465,-3.1515,-3.1828,-3.2069,-3.2107,-3.2489,-3.268,-3.268,-3.268,-3.2661,-3.2756,-3.3406,-3.4074,-3.4541,-3.4999,-3.5182,-3.5182,-3.5182,-3.5182,-3.5182,-3.5185,-3.5185,-3.5182,-3.5185,-3.4956,-3.4197,-3.3995,-3.3719,-3.2909,-3.268,-3.268,-3.2718,-3.3043,-3.3452,-3.3937,-3.4421,-3.4852,-3.55,-3.55,-3.55,-3.546,-3.5362,-3.4471,-3.3939,-3.3583,0.0,0.0,0.0,-2.9842,-2.9867,-2.9934,-2.9883,-2.9969,-3.0155,-3.0122,-3.0202,-3.0404,-3.0404,-3.0404,-3.0404,-3.0404,-3.0404,-3.0398,-3.0235,-3.0162,-3.0162,-3.0049,-2.9981,-2.9988,-2.9981,-2.9912,-2.9722,-2.9069,-2.9047,-2.9667,-2.9156,-2.851,-2.7876,-2.7767,-2.7625,-2.7468,-2.7573,-2.7483,-2.7169,-2.7425,-2.7129,-2.6188,-2.6299,-2.6321,-2.6175,-2.6191,-2.6443,-2.6908,-2.6983,-2.669,-2.6013,-2.6743,-2.7129,-2.6855,-2.8249,-2.9127,-2.9147,-2.9784,-3.0204,-3.0204,-3.0204,-3.0204,-3.0204,-3.0204,-3.0204,-3.0204,-3.0204,-3.0223,-3.0223,-3.0204,-3.028,-3.028,-3.0815,-3.1217,-3.1274,-3.179,-3.226,-3.2222,-3.2107,-3.2241,-3.2298,-3.2546,-3.3158,-3.3949,-3.4369,-3.4713,-3.4923,-3.4942,-3.498,-3.4923,-3.4934,-3.4972,-3.4972,-3.4857,-3.4437,-3.3547,-3.3547,-3.3127,-3.2432,-3.2126,-3.226,-3.2241,-3.2374,-3.247,-3.2542,-3.3152,-3.3742,-3.5481,-3.55,-3.55,-3.55,-3.5435,-3.4485,-3.3293,-3.1955,-3.1755,-3.1059,-3.0079,-3.0234,-3.0221,-3.008,-3.0073,-3.0169,-3.0329,-3.0182,-3.0202,-3.0398,-3.0404,-3.0404,-3.0404,-3.0404,-3.0404,-3.0404,-3.0367,-3.0355,-3.0355,-3.0317,-3.0336,-3.033,-3.033,-2.9946,-2.921,-2.8434,-2.7739,-2.7154,-2.7579,-2.7765,-2.7644,-2.7459,-2.7373,-2.7324,-2.7328,-2.7346,-2.7272,-2.7199,-2.711,-2.694,-2.7141,-2.7229,-2.7188,-2.7293,-2.7159,-2.6587,-2.6511,-2.6162,-2.5398,-2.6085,-2.7122,-2.8452,-2.9471,-3.0013,-3.0013,-3.0109,-3.0204,-3.0204,-3.0204,-3.0204,-3.0204,-3.0204,-3.0204,-3.0204,-3.0204,-3.0204,-3.0204,-3.0204,-3.0204,-3.0204,-3.028,-3.0414,-3.0472,-3.0586,-3.072,-3.0624,-3.0815,-3.0643,-3.0987,-3.1782,-3.2967,-3.3662,-3.3425,-3.3433,-3.414,-3.4197,-3.4312,-3.4159,-3.4222,-3.429,-3.4246,-3.3753,-3.302,-3.205,-3.2038,-3.1637,-3.0835,-3.0548,-3.0701,-3.0777,-3.1197,-3.1553,-3.1591,-3.1845,-3.2262,-3.5231,-3.4814,-3.4795,-3.4795,-3.4737,-3.382,-3.2481,-3.0995,-3.0937,-3.0714,-3.0299,-3.0374,-3.0355,-3.026,-3.026,-3.0311,-3.0398,-3.0305,-3.0311,-3.0398,-3.0404,-3.0404,-3.0404,-3.0404,-3.0404,-3.0404,-3.0404,-3.0404,-3.0404,-3.0404,-3.0404,-3.0404,-3.0404,-2.975,-2.8506,-2.8068,-2.7236,-2.5942,-2.6187,-2.6351,-2.6345,-2.6248,-2.6218,-2.6193,-2.62,-2.6193,-2.6161,-2.6115,-2.6062,-2.6067,-2.616,-2.6193,-2.6212,-2.6295,-2.616,-2.5778,-2.574,-2.5778,-2.5854,-2.6632,-2.7625,-2.8796,-2.9261,-2.9707,-3.0185,-3.0204,-3.0204,-3.0204,-3.0204,-3.0204,-3.0204,-3.0204,-3.0204,-3.0204,-3.0204,-3.0204,-3.0204,-3.0204,-3.0204,-3.0204,-3.0204,-3.0204,-3.0204,-3.0204,-3.0204,-3.0204,-3.0204,-3.0357,-3.0758,-3.1121,-3.1828,-3.3005,-3.3692,-3.4197,-3.456,-3.4636,-3.4655,-3.4655,-3.4642,-3.4435,-3.4088,-3.3473,-3.2775,-3.1741,-3.1469,-3.114,-3.0376,-3.0204,-3.0204,-3.0223,-3.0433,-3.072,-3.0753,-3.0868,-3.1289,-3.4545,-3.3917,-3.3917,-3.3814,-3.3571,-3.291,-3.1769,-3.0442,-3.0404,-3.0404,-3.0404,-3.0404,-3.0404,-3.0398,-3.0355,-3.0355,-3.0398,-3.0355,-3.0342,-3.0404,-3.0404,-3.0404,-3.0404,-3.0404,-3.0404,-3.0404,-3.0404,-3.0404,-3.0404,-3.0404,-3.0404,-3.0404,-3.0404,-2.9583,-2.7928,-2.789,-2.7044,-2.5423,-2.5308,-2.5308,-2.5308,-2.5308,-2.5308,-2.5303,-2.5302,-2.5282,-2.5222,-2.5209,-2.5206,-2.5203,-2.5216,-2.521,-2.521,-2.521,-2.521,-2.521,-2.521,-2.5548,-2.637,-2.7205,-2.8039,-2.8815,-2.9089,-2.9471,-3.0063,-3.0185,-3.0204,-3.0204,-3.0204,-3.0204,-3.0204,-3.0204,-3.0204,-3.0204,-3.0204,-3.0204,-3.0204,-3.0204,-3.0204,-3.0204,-3.0204,-3.0204,-3.0204,-3.0204,-3.0204,-3.0204,-3.0357,-3.0739,-3.1064,-3.0835,-3.1362,-3.2222,-3.3559,-3.4331,-3.477,-3.4849,-3.4716,-3.4697,-3.4494,-3.3993,-3.3413,-3.3116,-3.2591,-3.1302,-3.1104,-3.0877,-3.0357,-3.0204,-3.0204,-3.0204,-3.028,-3.0261,-3.0287,-3.0362,-3.0634,-3.3103,-3.3026,-3.3045,-3.2583,-3.1987,-3.1872,-3.1288,-3.0462,-3.0404,-3.0404,-3.0404,-3.0404,-3.0404,-3.0367,-3.0247,-3.0279,-3.0392,-3.0228,-3.0235,-3.0379,-3.0404,-3.0404,-3.0404,-3.0404,-3.0404,-3.0404,-3.0404,-3.0404,-3.0404,-3.0404,-3.0404,-3.0404,-3.0404,-2.9563,-2.8102,-2.789,-2.7044,-2.5346,-2.5308,-2.5308,-2.5308,-2.5308,-2.5308,-2.5308,-2.5302,-2.5311,-2.5276,-2.5239,-2.5212,-2.5206,-2.5203,-2.521,-2.521,-2.521,-2.521,-2.521,-2.521,-2.5554,-2.6351,-2.7205,-2.8077,-2.8853,-2.9624,-3.0056,-3.0116,-3.0164,-3.0204,-3.0204,-3.0204,-3.0204,-3.0204,-3.0204,-3.0204,-3.0204,-3.0185,-3.0204,-3.0204,-3.0204,-3.0204,-3.0204,-3.0204,-3.0204,-3.0204,-3.0204,-3.0204,-3.0338,-3.0739,-3.1026,-3.0892,-3.1381,-3.1897,-3.1763,-3.1885,-3.2611,-3.3738,-3.4069,-3.3958,-3.3282,-3.2885,-3.2634,-3.2074,-3.12,-3.0296,-3.0685,-3.0342,-3.0295,-3.0293,-3.0204,-3.0204,-3.0204,-3.0204,-3.0204,-3.0218,-3.0343,-3.0593,-3.2891,-3.2872,-3.2391,-3.1698,-3.1038,-3.1487,-3.1198,-3.0423,-3.0404,-3.0404,-3.0404,-3.0404,-3.0404,-3.0436,-3.0849,-3.0836,-3.0456,-3.0855,-3.0797,-3.0442,-3.0404,-3.0404,-3.0404,-3.0404,-3.0404,-3.0404,-3.0404,-3.0404,-3.0404,-3.0404,-3.0404,-3.0404,-3.0404,-2.9563,-2.8025,-2.789,-2.7044,-2.5365,-2.5308,-2.5308,-2.5308,-2.5308,-2.5298,-2.5307,-2.5297,-2.5296,-2.5245,-2.5204,-2.5206,-2.5208,-2.5216,-2.521,-2.521,-2.521,-2.521,-2.5229,-2.5669,-2.6045,-2.6402,-2.7638,-2.8554,-2.8891,-2.9707,-3.0171,-3.0109,-3.0142,-3.0142,-3.0154,-3.0183,-3.0204,-3.0204,-3.0204,-3.0204,-3.0204,-3.0171,-3.0164,-3.0204,-3.0183,-3.0138,-3.0197,-3.0204,-3.0204,-3.0204,-3.0204,-3.0414,-3.0739,-3.0968,-3.093,-3.1484,-3.1477,-3.1503,-3.1992,-3.1809,-3.221,-3.3605,-3.4413,-3.4151,-3.3565,-3.3261,-3.285,-3.1421,-3.0977,-3.0585,-3.0136,-3.0095,-3.0121,-3.0197,-3.0204,-3.0204,-3.0204,-3.0249,-3.0326,-3.0861,-3.102,-3.1103,-3.241,-3.2141,-3.1564,-3.0981,-3.0462,-3.1058,-3.0981,-3.0442,-3.0404,-3.0404,-3.0404,-3.0404,-3.0404,-3.0481,-3.1077,-3.0981,-3.0538,-3.1058,-3.1019,-3.0442,-3.0404,-3.0404,-3.0404,-3.0404,-3.0404,-3.0404,-3.0404,-3.0404,-3.0404,-3.0404,-3.0404,-3.0404,-3.0404,-2.9544,-2.8063,-2.789,-2.7024,-2.5462,-2.5308,-2.5308,-2.5308,-2.5298,-2.5307,-2.5292,-2.5296,-2.5269,-2.5217,-2.5206,-2.5214,-2.5216,-2.521,-2.521,-2.521,-2.521,-2.521,-2.5249,-2.572,-2.6064,-2.6103,-2.7644,-2.8574,-2.865,-2.9555,-3.0171,-3.0116,-3.0101,-3.0079,-3.0068,-3.0106,-3.0161,-3.0164,-3.0164,-3.0164,-3.0164,-3.0123,-3.0142,-3.0178,-3.0157,-3.0157,-3.0204,-3.0204,-3.0204,-3.0204,-3.0223,-3.0479,-3.1159,-3.1159,-3.1197,-3.226,-3.1725,-3.1389,-3.2183,-3.1756,-3.2061,-3.3387,-3.4168,-3.426,-3.3562,-3.3009,-3.2597,-3.1199,-3.0839,-3.0768,-3.0076,-3.008,-3.0125,-3.019,-3.0204,-3.0249,-3.0223,-3.0268,-3.0536,-3.1217,-3.1479,-3.1659,-3.125,-3.0596,-3.0481,-3.0462,-3.0404,-3.0481,-3.0462,-3.0404,-3.0404,-3.0404,-3.0404,-3.0404,-3.0404,-3.0404,-3.0519,-3.0462,-3.0423,-3.0442,-3.0404,-3.0327,-3.0327,-3.0385,-3.0404,-3.0404,-3.0404,-3.0404,-3.0404,-3.0404,-3.0404,-3.0404,-3.0404,-3.0404,-3.0346,-2.9519,-2.8102,-2.7832,-2.7005,-2.5481,-2.5308,-2.5308,-2.5303,-2.5302,-2.5287,-2.5282,-2.522,-2.5198,-2.5212,-2.5208,-2.521,-2.521,-2.521,-2.521,-2.521,-2.521,-2.521,-2.5229,-2.5268,-2.5306,-2.5535,-2.6918,-2.7848,-2.802,-2.9325,-3.0171,-3.0109,-3.0101,-3.0072,-3.0003,-3.003,-3.0072,-3.0102,-3.0083,-3.0091,-3.0101,-3.0101,-3.0135,-3.0178,-3.0171,-3.0204,-3.0204,-3.0204,-3.0204,-3.0204,-3.0204,-3.0624,-3.135,-3.2031,-3.2527,-3.2527,-3.2527,-3.2088,-3.1641,-3.1493,-3.1695,-3.2607,-3.3391,-3.3086,-3.2389,-3.2131,-3.1955,-3.0829,-2.9956,-3.0002,-3.0065,-3.0076,-3.0121,-3.019,-3.023,-3.0287,-3.0307,-3.0376,-3.0739,-3.163,-3.1541,-3.1754,-3.1198,-3.0423,-3.0404,-3.0404,-3.0404,-3.0404,-3.0404,-3.0404,-3.0404,-3.0404,-3.0404,-3.0404,-3.0404,-3.0404,-3.0404,-3.0404,-3.0346,-2.9833,-2.9563,-2.9583,-2.9563,-2.9563,-2.9621,-3.0115,-3.0404,-3.0404,-3.0404,-3.0404,-3.0404,-3.0404,-3.0404,-3.0288,-2.9833,-2.8986,-2.7986,-2.7332,-2.6467,-2.5437,-2.5293,-2.5293,-2.5298,-2.5271,-2.525,-2.5222,-2.5209,-2.5206,-2.5208,-2.5216,-2.521,-2.521,-2.521,-2.521,-2.521,-2.521,-2.521,-2.521,-2.521,-2.5421,-2.6007,-2.7052,-2.7943,-2.8497,-2.9516,-3.0171,-3.0116,-3.0101,-3.0072,-3.003,-3.0057,-3.0072,-3.0022,-3.0007,-2.9988,-3.0019,-3.0011,-3.0026,-3.0121,-3.0135,-3.0135,-3.0197,-3.0204,-3.0204,-3.0357,-3.0682,-3.1121,-3.1408,-3.1725,-3.2145,-3.2394,-3.1859,-3.1293,-3.1343,-3.097,-3.0662,-3.0933,-3.22,-3.2579,-3.1808,-3.1322,-3.1031,-3.021,-2.9925,-2.9926,-3.008,-3.0106,-3.0395,-3.0553,-3.072,-3.0689,-3.0421,-3.0472,-3.0949,-3.2107,-3.1992,-3.2222,-3.0942,-3.0442,-3.0404,-3.0404,-3.0404,-3.0404,-3.0404,-3.0404,-3.0404,-3.0404,-3.0404,-3.0404,-3.0404,-3.0346,-3.0115,-3.016,-3.0288,-2.9506,-2.9107,-2.9088,-2.8838,-2.8857,-2.9165,-2.9698,-3.0135,-3.0365,-3.0404,-3.0404,-3.0404,-3.0404,-3.0404,-3.0346,-2.9531,-2.8684,-2.7871,-2.7044,-2.6173,-2.5466,-2.5297,-2.5292,-2.5278,-2.5225,-2.5198,-2.5215,-2.5212,-2.5208,-2.521,-2.521,-2.521,-2.521,-2.521,-2.521,-2.521,-2.521,-2.521,-2.521,-2.521,-2.5548,-2.6364,-2.7224,-2.8039,-2.8834,-2.9688,-3.0171,-3.0142,-3.0128,-3.0072,-3.0053,-3.0038,-3.0057,-2.9972,-2.9924,-2.9943,-2.9983,-2.9948,-2.9937,-3.0068,-3.0102,-3.014,-3.019,-3.0204,-3.0319,-3.0624,-3.114,-3.1694,-3.2172,-3.2267,-3.2554,-3.2776,-3.1992,-3.1006,-3.1324,-3.0707,-3.0285,-3.0346,-3.1183,-3.1621,-3.0958,-3.1056,-3.0596,-3.0198,-2.9971,-2.9934,-3.0061,-3.033,-3.0676,-3.0947,-3.1159,-3.0987,-3.0624,-3.0548,-3.0835,-3.1725,-3.2451,-3.2546,-3.0423,-3.0404,-3.0404,-3.0404,-3.0404,-3.0404,-3.0404,-3.0404,-3.0404,-3.0404,-3.0404,-3.0404,-3.0404,-3.025,-2.9717,-2.9679,-3.0154,-2.9486,-2.905,-2.8915,-2.8299,-2.8376,-2.8973,-2.9165,-2.9679,-3.0385,-3.0404,-3.0404,-3.0404,-3.0404,-3.0404,-3.0231,-2.9429,-2.8588,-2.789,-2.6967,-2.6124,-2.5489,-2.5306,-2.5276,-2.5212,-2.5204,-2.5212,-2.5212,-2.5208,-2.521,-2.521,-2.521,-2.521,-2.521,-2.521,-2.521,-2.521,-2.521,-2.521,-2.521,-2.521,-2.5587,-2.637,-2.7198,-2.8039,-2.886,-2.9707,-3.0204,-3.0197,-3.015,-3.0094,-3.0076,-3.0046,-2.9988,-2.9948,-2.9907,-2.9953,-2.9972,-2.994,-2.9932,-3.0007,-3.0053,-3.0125,-3.019,-3.0223,-3.0567,-3.1178,-3.156,-3.2095,-3.3012,-3.3555,-3.3662,-3.3643,-3.2802,-3.2222,-3.1641,-3.0963,-3.0487,-3.0255,-3.0137,-3.0151,-3.0178,-3.0608,-3.0648,-3.0268,-3.0007,-3.0038,-3.0173,-3.0512,-3.0858,-3.0801,-3.0968,-3.1006,-3.0758,-3.072,-3.0758,-3.1427,-3.2126,-3.2489,-3.0404,-3.0404,-3.0404,-3.0404,-3.0404,-3.0404,-3.0404,-3.0404,-3.0404,-3.0404,-3.0404,-3.0404,-3.0404,-3.0346,-3.0096,-3.0135,-3.0327,-2.9506,-2.88,-2.8338,-2.8011,-2.8011,-2.8338,-2.8857,-2.9563,-3.0269,-3.0404,-3.0404,-3.0404,-3.0404,-3.0404,-3.0154,-2.8986,-2.8203,-2.7832,-2.649,-2.5527,-2.5344,-2.5255,-2.522,-2.5206,-2.5206,-2.5214,-2.5206,-2.5208,-2.521,-2.521,-2.521,-2.521,-2.521,-2.521,-2.521,-2.521,-2.521,-2.521,-2.521,-2.521,-2.5548,-2.6351,-2.7198,-2.8039,-2.886,-2.9726,-3.0147,-3.0204,-3.0197,-3.015,-3.0101,-3.0121,-3.0101,-3.0057,-3.0038,-3.0022,-3.0007,-2.9943,-2.9926,-2.998,-3.0053,-3.0132,-3.019,-3.0204,-3.0357,-3.0777,-3.1427,-3.2317,-3.2592,-3.3402,-3.4033,-3.3842,-3.2936,-3.2183,-3.2107,-3.1459,-3.099,-3.0956,-3.0997,-3.1034,-3.0717,-3.075,-3.0826,-3.0441,-3.0117,-3.0154,-3.0405,-3.0751,-3.0949,-3.0873,-3.0873,-3.0987,-3.0911,-3.0815,-3.1026,-3.1389,-3.1801,-3.2298,-3.0404,-3.0404,-3.0404,-3.0404,-3.0404,-3.0404,-3.0404,-3.0404,-3.0404,-3.0404,-3.0404,-3.0404,-3.0404,-3.0404,-3.0404,-3.0404,-3.0346,-2.9794,-2.914,-2.8294,-2.7601,-2.7582,-2.803,-2.9102,-2.9813,-3.0308,-3.0404,-3.0404,-3.0404,-3.0404,-3.0404,-3.0135,-2.9025,-2.8203,-2.7813,-2.6518,-2.5676,-2.5329,-2.5215,-2.5212,-2.5212,-2.5208,-2.5216,-2.5208,-2.5203,-2.521,-2.521,-2.521,-2.521,-2.521,-2.521,-2.521,-2.521,-2.521,-2.521,-2.521,-2.5287,-2.5682,-2.6746,-2.7415,-2.8236,-2.9211,-2.9898,-3.0204,-3.0204,-3.0204,-3.0171,-3.0157,-3.0171,-3.0178,-3.013,-3.0113,-3.0091,-3.0083,-2.9967,-2.9953,-2.998,-3.0042,-3.033,-3.0496,-3.0433,-3.067,-3.1625,-3.1943,-3.2871,-3.2917,-3.3757,-3.4216,-3.3956,-3.3154,-3.2917,-3.2653,-3.2153,-3.1882,-3.1828,-3.1889,-3.2026,-3.1542,-3.1058,-3.0952,-3.0704,-3.0326,-3.0195,-3.0725,-3.1121,-3.1515,-3.1534,-3.135,-3.1331,-3.114,-3.0835,-3.0758,-3.0949,-3.1821,-3.2298,-3.0462,-3.0404,-3.0404,-3.0404,-3.0404,-3.0404,-3.0404,-3.0404,-3.0404,-3.0404,-3.0404,-3.0404,-3.0404,-3.0404,-3.0404,-3.0404,-3.0385,-3.0327,-2.9794,-2.8819,-2.7813,-2.7409,-2.8049,-2.9506,-3.0269,-3.0385,-3.0404,-3.0404,-3.0404,-3.0404,-3.0365,-3.0115,-2.9256,-2.8549,-2.7654,-2.6902,-2.5929,-2.5302,-2.5204,-2.522,-2.5197,-2.521,-2.521,-2.521,-2.521,-2.521,-2.521,-2.521,-2.521,-2.521,-2.521,-2.521,-2.521,-2.521,-2.521,-2.521,-2.521,-2.5988,-2.7166,-2.7606,-2.8332,-2.9669,-3.0032,-3.0204,-3.0204,-3.0204,-3.0204,-3.0197,-3.0204,-3.0185,-3.0197,-3.0142,-3.0116,-3.015,-3.0041,-2.9959,-2.9988,-3.0057,-3.0452,-3.1049,-3.0892,-3.1064,-3.3135,-3.3051,-3.3597,-3.4342,-3.4846,-3.4713,-3.4331,-3.3815,-3.3528,-3.3196,-3.2829,-3.2791,-3.2726,-3.2737,-3.2893,-3.2942,-3.2179,-3.1539,-3.1333,-3.0977,-3.061,-3.1095,-3.1618,-3.1992,-3.1878,-3.1503,-3.1236,-3.0987,-3.0663,-3.0338,-3.0758,-3.1687,-3.2413,-3.0981,-3.0423,-3.0404,-3.0404,-3.0404,-3.0404,-3.0404,-3.0404,-3.0404,-3.0404,-3.0404,-3.0404,-3.0404,-3.0404,-3.0404,-3.0404,-3.0404,-3.0404,-2.9923,-2.9146,-2.8723,-2.8165,-2.8294,-2.9577,-3.0404,-3.0404,-3.0404,-3.0404,-3.0404,-3.0346,-3.0058,-2.941,-2.8679,-2.7827,-2.694,-2.6102,-2.5499,-2.5242,-2.5214,-2.5216,-2.521,-2.521,-2.521,-2.521,-2.521,-2.521,-2.521,-2.521,-2.521,-2.521,-2.521,-2.521,-2.521,-2.521,-2.521,-2.521,-2.5268,-2.5644,-2.6632,-2.7396,-2.8211,-2.9147,-2.9898,-3.0204,-3.0204,-3.0204,-3.0204,-3.0204,-3.0204,-3.0204,-3.0204,-3.015,-3.0128,-3.0125,-3.0118,-3.0122,-3.0133,-3.0129,-3.0456,-3.124,-3.1255,-3.1885,-3.2821,-3.349,-3.3815,-3.4369,-3.4827,-3.5133,-3.4732,-3.435,-3.3949,-3.388,-3.3662,-3.3662,-3.3635,-3.3654,-3.3818,-3.42,-3.3543,-3.2447,-3.2264,-3.21,-3.1725,-3.1637,-3.2229,-3.268,-3.1771,-3.1045,-3.0873,-3.1026,-3.051,-3.028,-3.0911,-3.1725,-3.2573,-3.141,-3.0904,-3.0538,-3.0404,-3.0404,-3.0404,-3.0404,-3.0404,-3.0404,-3.0404,-3.0404,-3.0404,-3.0404,-3.0404,-3.0404,-3.0404,-3.0404,-3.0404,-3.0115,-2.9775,-2.964,-2.9179,-2.8929,-2.9813,-3.0404,-3.0404,-3.0404,-3.0404,-3.0327,-3.0058,-2.9563,-2.9063,-2.8269,-2.7445,-2.668,-2.6094,-2.5535,-2.5288,-2.5208,-2.521,-2.521,-2.521,-2.521,-2.521,-2.521,-2.521,-2.521,-2.521,-2.521,-2.521,-2.521,-2.521,-2.521,-2.521,-2.521,-2.521,-2.5497,-2.6084,-2.6899,-2.774,-2.8554,-2.9325,-2.9994,-3.0147,-3.0204,-3.0204,-3.0204,-3.0204,-3.0204,-3.0204,-3.0204,-3.0164,-3.015,-3.0192,-3.0426,-3.0624,-3.0669,-3.07,-3.1306,-3.2023,-3.226,-3.2451,-3.3501,-3.3929,-3.4159,-3.4503,-3.4942,-3.5114,-3.5068,-3.4713,-3.4445,-3.4388,-3.4407,-3.4388,-3.4388,-3.438,-3.4342,-3.4724,-3.4571,-3.3501,-3.3043,-3.2967,-3.2756,-3.2573,-3.2993,-3.2993,-3.2191,-3.1541,-3.1484,-3.135,-3.0663,-3.0605,-3.1255,-3.2019,-3.2802,-3.1698,-3.1641,-3.075,-3.0404,-3.0404,-3.0404,-3.0404,-3.0404,-3.0404,-3.0404,-3.0404,-3.0404,-3.0404,-3.0404,-3.0404,-3.0404,-3.0404,-3.0404,-3.0385,-3.0288,-3.0231,-2.9885,-2.9429,-2.9981,-3.0385,-3.0404,-3.0404,-3.0398,-3.0225,-2.9583,-2.9083,-2.8673,-2.8022,-2.7218,-2.6433,-2.623,-2.592,-2.5335,-2.5203,-2.521,-2.521,-2.5229,-2.5287,-2.5497,-2.5478,-2.5453,-2.5396,-2.5306,-2.521,-2.521,-2.521,-2.521,-2.521,-2.521,-2.521,-2.5338,-2.5892,-2.667,-2.7587,-2.8325,-2.9223,-2.9917,-3.0147,-3.0204,-3.0204,-3.0204,-3.0204,-3.0204,-3.0204,-3.0204,-3.0223,-3.0242,-3.0426,-3.0591,-3.1076,-3.15,-3.1645,-3.1641,-3.2248,-3.3681,-3.3223,-3.3719,-3.4407,-3.4674,-3.4369,-3.4789,-3.5114,-3.5133,-3.5182,-3.5018,-3.4923,-3.4961,-3.5018,-3.5087,-3.5087,-3.5087,-3.5029,-3.5087,-3.5068,-3.4437,-3.3731,-3.3559,-3.3578,-3.3643,-3.3834,-3.37,-3.3203,-3.2745,-3.242,-3.1943,-3.1427,-3.1408,-3.1637,-3.2497,-3.3318,-3.1698,-3.1621,-3.075,-3.0404,-3.0404,-3.0404,-3.0404,-3.0404,-3.0404,-3.0404,-3.0404,-3.0404,-3.0404,-3.0404,-3.0404,-3.0404,-3.0404,-3.0404,-3.0404,-3.0404,-3.0404,-3.0327,-3.0115,-3.0346,-3.0385,-3.0398,-3.0342,-3.0348,-3.0161,-2.9463,-2.8752,-2.8115,-2.73,-2.64,-2.5677,-2.5611,-2.543,-2.5203,-2.521,-2.521,-2.521,-2.5229,-2.5453,-2.5912,-2.6064,-2.6103,-2.5988,-2.5529,-2.5229,-2.521,-2.521,-2.521,-2.521,-2.521,-2.5249,-2.5472,-2.6026,-2.6823,-2.7663,-2.8504,-2.9275,-3.0051,-3.0204,-3.0204,-3.0204,-3.0204,-3.0204,-3.0204,-3.0204,-3.0223,-3.0338,-3.0813,-3.1099,-3.1362,-3.1901,-3.2619,-3.3112,-3.2833,-3.3032,-3.3662,-3.391,-3.4082,-3.5029,-3.5057,-3.4999,-3.5182,-3.5182,-3.5182,-3.5182,-3.5182,-3.5182,-3.5182,-3.5182,-3.5182,-3.5182,-3.5182,-3.5182,-3.5182,-3.5182,-3.5163,-3.4475,-3.4227,-3.4246,-3.4369,-3.4541,-3.4273,-3.3891,-3.3643,-3.3261,-3.2745,-3.2298,-3.242,-3.2669,-3.3318,-3.3777,-3.1733,-3.1621,-3.0769,-3.0404,-3.0404,-3.0404,-3.0404,-3.0404,-3.0404,-3.0404,-3.0404,-3.0404,-3.0404,-3.0404,-3.0404,-3.0404,-3.0404,-3.0404,-3.0404,-3.0404,-3.0404,-3.0404,-3.0404,-3.0404,-3.0404,-3.0398,-3.0342,-3.0316,-3.0047,-2.9165,-2.8257,-2.775,-2.6595,-2.5787,-2.5267,-2.5206,-2.5247,-2.5216,-2.521,-2.521,-2.521,-2.521,-2.5325,-2.5873,-2.616,-2.6275,-2.5778,-2.5873,-2.5554,-2.5325,-2.5229,-2.5229,-2.521,-2.5229,-2.5363,-2.5835,-2.6561,-2.7377,-2.8211,-2.902,-2.9714,-3.0154,-3.0204,-3.0204,-3.0204,-3.0204,-3.0204,-3.0204,-3.0242,-3.0319,-3.0777,-3.1527,-3.1958,-3.2195,-3.2787,-3.3474,-3.3796,-3.3586,-3.3643,-3.4312,-3.4579,-3.4732,-3.5057,-3.5163,-3.5182,-3.5182,-3.5182,-3.5182,-3.5182,-3.5182,-3.5182,-3.5182,-3.5182,-3.5182,-3.5182,-3.5182,-3.5182,-3.5182,-3.5182,-3.5182,-3.4915,-3.4896,-3.4972,-3.498,-3.4904,-3.4846,-3.4522,-3.4292,-3.3987,-3.349,-3.3203,-3.3394,-3.3566,-3.3777,-3.4216,-3.1644,-3.1626,-3.0756,-3.0404,-3.0404,-3.0404,-3.0404,-3.0404,-3.0404,-3.0404,-3.0404,-3.0404,-3.0404,-3.0404,-3.0404,-3.0404,-3.0404,-3.0404,-3.0404,-3.0404,-3.0404,-3.0404,-3.0404,-3.0404,-3.0379,-3.0359,-3.0329,-3.0298,-2.9863,-2.8713,-2.7934,-2.7506,-2.6071,-2.5357,-2.5225,-2.5203,-2.521,-2.521,-2.521,-2.5357,-2.5377,-2.5357,-2.5363,-2.6007,-2.6632,-2.6765,-2.644,-2.6421,-2.6332,-2.565,-2.5587,-2.5593,-2.5554,-2.5453,-2.5625,-2.6408,-2.7262,-2.8096,-2.8745,-2.9567,-3.0147,-3.0204,-3.0204,-3.0204,-3.0204,-3.0204,-3.0204,-3.03,-3.0395,-3.0777,-3.1446,-3.2355,-3.2795,-3.3062,-3.3681,-3.412,-3.4178,-3.4186,-3.4522,-3.4904,-3.4972,-3.5057,-3.5114,-3.5182,-3.5182,-3.5182,-3.5182,-3.5182,-3.5182,-3.5182,-3.5182,-3.5182,-3.5182,-3.5182,-3.5182,-3.5182,-3.5182,-3.5182,-3.5182,-3.5182,-3.5182,-3.5163,-3.5125,-3.5144,-3.5087,-3.5029,-3.4934,-3.4694,-3.4369,-3.4071,-3.4025,-3.412,-3.4159,-3.4186,-3.4617,-3.1149,-3.1704,-3.0796,-3.0404,-3.0404,-3.0404,-3.0404,-3.0404,-3.0404,-3.0404,-3.0404,-3.0404,-3.0404,-3.0404,-3.0404,-3.0404,-3.0404,-3.0404,-3.0404,-3.0404,-3.0404,-3.0404,-3.0404,-3.0404,-3.0373,-3.0329,-3.0299,-3.0305,-2.989,-2.8651,-2.7975,-2.7456,-2.62,-2.5398,-2.5411,-2.5222,-2.5357,-2.5491,-2.5415,-2.5587,-2.5988,-2.5797,-2.5988,-2.6956,-2.7771,-2.802,-2.7962,-2.7663,-2.7415,-2.73,-2.73,-2.7243,-2.7033,-2.6555,-2.646,-2.6823,-2.7848,-2.8707,-2.9108,-2.9726,-3.0147,-3.0204,-3.0204,-3.0204,-3.0204,-3.0204,-3.0204,-3.0414,-3.0854,-3.1389,-3.1522,-3.2879,-3.3643,-3.3968,-3.4388,-3.4904,-3.4923,-3.4923,-3.4923,-3.5144,-3.5182,-3.5182,-3.5182,-3.5182,-3.5182,-3.5182,-3.5182,-3.5182,-3.5182,-3.5182,-3.5182,-3.5182,-3.5182,-3.5182,-3.5182,-3.5182,-3.5182,-3.5182,-3.5182,-3.5182,-3.5182,-3.5182,-3.5182,-3.5182,-3.5182,-3.5144,-3.5037,-3.4942,-3.4885,-3.4655,-3.4694,-3.4743,-3.4713,-3.4674,-3.4789,-3.0801,-3.1076,-3.0635,-3.0422,-3.039,-3.0404,-3.0404,-3.0404,-3.0404,-3.0404,-3.0404,-3.0404,-3.0404,-3.0404,-3.0404,-3.0404,-3.0404,-3.0404,-3.0404,-3.0404,-3.0404,-3.0404,-3.0404,-3.0404,-3.0355,-3.0324,-3.0299,-3.0273,-3.0119,-2.8995,-2.8358,-2.8096,-2.7058,-2.6503,-2.635,-2.607,-2.6122,-2.6236,-2.6103,-2.6217,-2.6975,-2.6612,-2.7109,-2.7638,-2.8402,-2.8631,-2.8325,-2.8478,-2.8077,-2.7752,-2.7682,-2.772,-2.772,-2.7771,-2.7676,-2.7829,-2.8459,-2.9147,-2.9497,-3.0032,-3.0185,-3.0204,-3.0204,-3.0204,-3.0204,-3.0204,-3.0261,-3.051,-3.1465,-3.2126,-3.2203,-3.3643,-3.4445,-3.4655,-3.498,-3.5144,-3.5182,-3.5182,-3.5182,-3.5182,-3.5182,-3.5182,-3.5182,-3.5182,-3.5182,-3.5182,-3.5182,-3.5182,-3.5182,-3.5182,-3.5182,-3.5182,-3.5182,-3.5182,-3.5182,-3.5182,-3.5182,-3.5182,-3.5182,-3.5182,-3.5182,-3.5182,-3.5182,-3.5182,-3.5182,-3.5182,-3.5163,-3.5076,-3.5144,-3.5182,-3.5068,-3.4991,-3.5087,-3.5182,-3.5182,-3.0636,-3.0535,-3.0515,-3.0467,-3.0425,-3.039,-3.0404,-3.0404,-3.0404,-3.0404,-3.0404,-3.0404,-3.0404,-3.0404,-3.0404,-3.0404,-3.0404,-3.0404,-3.0404,-3.0404,-3.0404,-3.0404,-3.0404,-3.0392,-3.0349,-3.0318,-3.0273,-3.026,-3.0073,-2.9256,-2.8936,-2.8561,-2.8045,-2.7701,-2.7434,-2.6918,-2.7217,-2.7224,-2.7109,-2.709,-2.7549,-2.8026,-2.8077,-2.802,-2.8707,-2.8917,-2.8631,-2.8917,-2.8879,-2.8542,-2.8351,-2.8275,-2.8332,-2.8822,-2.9147,-2.9166,-2.9166,-2.9593,-2.9956,-3.0173,-3.0204,-3.0204,-3.0204,-3.0204,-3.0319,-3.0433,-3.0631,-3.0911,-3.1981,-3.2947,-3.3138,-3.4292,-3.4999,-3.5152,-3.5125,-3.5182,-3.5182,-3.5182,-3.5182,-3.5182,-3.5182,-3.5182,-3.5182,-3.5182,-3.5182,-3.5182,-3.5182,-3.5182,-3.5182,-3.5182,-3.5182,-3.5182,-3.5182,-3.5182,-3.5182,-3.5182,-3.5182,-3.5182,-3.5182,-3.5182,-3.5182,-3.5182,-3.5182,-3.5182,-3.5182,-3.5182,-3.5182,-3.5182,-3.5182,-3.5182,-3.5182,-3.5182,-3.5182,-3.5182,-3.5182,-3.0682,-3.0681,-3.0552,-3.0492,-3.0487,-3.0436,-3.0404,-3.0404,-3.0404,-3.0404,-3.0404,-3.0404,-3.0404,-3.0404,-3.0404,-3.0404,-3.0404,-3.0404,-3.0404,-3.0404,-3.0404,-3.0404,-3.0379,-3.0342,-3.033,-3.0286,-3.0241,-3.0226,-3.0046,-2.9363,-2.8994,-2.8841,-2.8383,-2.7797,-2.8026,-2.7714,-2.7599,-2.772,-2.7663,-2.7682,-2.8007,-2.9096,-2.9242,-2.9166,-2.9452,-2.9879,-2.9631,-2.9803,-2.9784,-2.9803,-2.9803,-2.9867,-2.9924,-2.9944,-3.0039,-3.0058,-3.0058,-3.0096,-3.0185,-3.0204,-3.0204,-3.0204,-3.0204,-3.0204,-3.0491,-3.1026,-3.158,-3.2413,-3.3261,-3.3662,-3.3796,-3.4617,-3.5076,-3.5182,-3.5182,-3.5182,-3.5182,-3.5182,-3.5182,-3.5182,-3.5182,-3.5182,-3.5182,-3.5182,-3.5182,-3.5182,-3.5182,-3.5182,-3.5182,-3.5182,-3.5182,-3.5182,-3.5182,-3.5182,-3.5182,-3.5182,-3.5182,-3.5182,-3.5182,-3.5182,-3.5182,-3.5182,-3.5182,-3.5182,-3.5182,-3.5182,-3.5182,-3.5182,-3.5182,-3.5182,-3.5182,-3.5182,-3.5182,-3.5182,-3.5182,-3.0732,-3.0704,-3.0636,-3.0576,-3.0501,-3.0467,-3.0428,-3.041,-3.0404,-3.0404,-3.0404,-3.0404,-3.0404,-3.0404,-3.0404,-3.0404,-3.0404,-3.0404,-3.0404,-3.0404,-3.0404,-3.0404,-3.0379,-3.0336,-3.0305,-3.0286,-3.0227,-3.0219,-3.0046,-2.9879,-2.9624,-2.9548,-2.9306,-2.9192,-2.8867,-2.8574,-2.8765,-2.8981,-2.9115,-2.9134,-2.9306,-2.9752,-3.0039,-2.9669,-3.0013,-3.0166,-3.0204,-3.0204,-3.0204,-3.0204,-3.0204,-3.0204,-3.0211,-3.0185,-3.0192,-3.0185,-3.0185,-3.0185,-3.0204,-3.0204,-3.0204,-3.0204,-3.0261,-3.0414,-3.0911,-3.1675,-3.226,-3.2623,-3.3471,-3.3937,-3.4159,-3.4751,-3.5037,-3.5182,-3.5182,-3.5182,-3.5182,-3.5182,-3.5182,-3.5182,-3.5182,-3.5182,-3.5182,-3.5182,-3.5182,-3.5182,-3.5182,-3.5182,-3.5182,-3.5182,-3.5182,-3.5182,-3.5182,-3.5182,-3.5182,-3.5182,-3.5182,-3.5182,-3.5182,-3.5182,-3.5182,-3.5182,-3.5182,-3.5182,-3.5182,-3.5182,-3.5182,-3.5182,-3.5182,-3.5182,-3.5182,-3.5182,-3.5182,-3.5182,-3.5182,-3.077,-3.0726,-3.0696,-3.0639,-3.0548,-3.0524,-3.0472,-3.0417,-3.0396,-3.0404,-3.0404,-3.0404,-3.0404,-3.0404,-3.0404,-3.0404,-3.0404,-3.0404,-3.0404,-3.0404,-3.0404,-3.0404,-3.0373,-3.0329,-3.0299,-3.0292,-3.024,-3.0213,-3.0211,-3.0147,-3.0109,-3.0204,-3.0013,-3.0051,-2.9956,-2.9612,-2.949,-2.9917,-3.0013,-3.0032,-3.0109,-3.0128,-3.0204,-3.0185,-3.0204,-3.0204,-3.0204,-3.0204,-3.0204,-3.0204,-3.0204,-3.0204,-3.0204,-3.0204,-3.0204,-3.0204,-3.0204,-3.0204,-3.0204,-3.0204,-3.0204,-3.0261,-3.0548,-3.0968,-3.1752,-3.2508,-3.3215,-3.3482,-3.3624,-3.4082,-3.4331,-3.477,-3.4866,-3.5057,-3.5182,-3.5182,-3.5182,-3.5182,-3.5182,-3.5182,-3.5182,-3.5182,-3.5182,-3.5182,-3.5182,-3.5182,-3.5182,-3.5182,-3.5182,-3.5182,-3.5182,-3.5182,-3.5182,-3.5182,-3.5182,-3.5182,-3.5182,-3.5182,-3.5182,-3.5182,-3.5182,-3.5182,-3.5182,-3.5182,-3.5182,-3.5182,-3.5182,-3.5182,-3.5182,-3.5182,-3.5182,-3.5182,-3.5182,-3.5182,-3.5218,-3.08,-3.0777,-3.0726,-3.0706,-3.0667,-3.0552,-3.0496,-3.0487,-3.0411,-3.0404,-3.0404,-3.0404,-3.0404,-3.0404,-3.0404,-3.0404,-3.0404,-3.0404,-3.0404,-3.0404,-3.0404,-3.0404,-3.0348,-3.0279,-3.0184,-3.0164,-3.0042,-3.0046,-3.0185,-3.0154,-3.0185,-3.0204,-3.0204,-3.0204,-3.0166,-3.0032,-2.9937,-3.0204,-3.0204,-3.0204,-3.0204,-3.0204,-3.0204,-3.0204,-3.0204,-3.0204,-3.0204,-3.0204,-3.0204,-3.0204,-3.0204,-3.0204,-3.0204,-3.0204,-3.0204,-3.0204,-3.0204,-3.0204,-3.0204,-3.0204,-3.0204,-3.0433,-3.0873,-3.1477,-3.2107,-3.3242,-3.4063,-3.4304,-3.391,-3.4197,-3.4426,-3.4636,-3.4598,-3.498,-3.5182,-3.5182,-3.5182,-3.5182,-3.5182,-3.5182,-3.5182,-3.5182,-3.5182,-3.5182,-3.5182,-3.5182,-3.5182,-3.5182,-3.5182,-3.5182,-3.5182,-3.5182,-3.5182,-3.5182,-3.5182,-3.5182,-3.5182,-3.5182,-3.5182,-3.5182,-3.5182,-3.5182,-3.5182,-3.5182,-3.5182,-3.5182,-3.5182,-3.5182,-3.5182,-3.5182,-3.5182,-3.519,-3.5218,-3.5226,-3.5261,-3.08,-3.08,-3.077,-3.0734,-3.0704,-3.0597,-3.0535,-3.0506,-3.0422,-3.0404,-3.0404,-3.0404,-3.0404,-3.0404,-3.0404,-3.0404,-3.0404,-3.0404,-3.0404,-3.0404,-3.0404,-3.0404,-3.0246,-2.9889,-2.9493,-2.9551,-2.9499,-2.9421,-2.9414,-2.9937,-3.0166,-3.0204,-3.0204,-3.0204,-3.0204,-3.0204,-3.0204,-3.0204,-3.0204,-3.0204,-3.0204,-3.0204,-3.0204,-3.0204,-3.0204,-3.0204,-3.0204,-3.0204,-3.0204,-3.0204,-3.0204,-3.0204,-3.0204,-3.0204,-3.0204,-3.0204,-3.0204,-3.0204,-3.0204,-3.0204,-3.0204,-3.0357,-3.093,-3.161,-3.2031,-3.2737,-3.3215,-3.3406,-3.3501,-3.3711,-3.4197,-3.4216,-3.4312,-3.4904,-3.5182,-3.5182,-3.5182,-3.5182,-3.5182,-3.5182,-3.5182,-3.5182,-3.5182,-3.5182,-3.5182,-3.5182,-3.5182,-3.5182,-3.5182,-3.5182,-3.5182,-3.5182,-3.5182,-3.5182,-3.5182,-3.5182,-3.5182,-3.5182,-3.5182,-3.5182,-3.5182,-3.5182,-3.5182,-3.5182,-3.5182,-3.5182,-3.5182,-3.5182,-3.5182,-3.5182,-3.519,-3.5218,-3.5226,-3.5261,-3.5285,-3.08,-3.08,-3.08,-3.077,-3.0724,-3.0675,-3.062,-3.0552,-3.0467,-3.0414,-3.0404,-3.0404,-3.0404,-3.0404,-3.0404,-3.0404,-3.0404,-3.0404,-3.0404,-3.0404,-3.0404,-3.0404,-3.0149,-2.9889,-2.964,-2.936,-2.9327,-2.9395,-2.9509,-2.9956,-3.0147,-3.0204,-3.0204,-3.0204,-3.0204,-3.0204,-3.0204,-3.0204,-3.0204,-3.0204,-3.0204,-3.0204,-3.0204,-3.0204,-3.0204,-3.0204,-3.0204,-3.0204,-3.0204,-3.0204,-3.0204,-3.0204,-3.0204,-3.0204,-3.0204,-3.0204,-3.0204,-3.0204,-3.0204,-3.0204,-3.0204,-3.03,-3.0968,-3.1343,-3.163,-3.2183,-3.2852,-3.2833,-3.2814,-3.3062,-3.3853,-3.4033,-3.4369,-3.4961,-3.5144,-3.5182,-3.5182,-3.5182,-3.5182,-3.5182,-3.5048,-3.4751,-3.4751,-3.4732,-3.5018,-3.5076,-3.5182,-3.5182,-3.5182,-3.5182,-3.5182,-3.5182,-3.5182,-3.5182,-3.5182,-3.5182,-3.5182,-3.5182,-3.5182,-3.5182,-3.5182,-3.5182,-3.5182,-3.5182,-3.5182,-3.5182,-3.5182,-3.5209,-3.519,-3.5182,-3.5218,-3.5242,-3.5258,-3.5293,-3.5304,-3.08,-3.08,-3.08,-3.082,-3.0872,-3.0726,-3.0682,-3.0653,-3.0543,-3.0451,-3.0408,-3.0396,-3.0404,-3.0404,-3.0404,-3.0404,-3.0404,-3.0404,-3.0404,-3.0404,-3.0404,-3.0404,-3.0303,-3.0119,-2.973,-3.0158,-2.9901,-2.9707,-2.9937,-3.0115,-3.0192,-3.0204,-3.0204,-3.0204,-3.0204,-3.0204,-3.0204,-3.0204,-3.0204,-3.0204,-3.0204,-3.0204,-3.0204,-3.0204,-3.0204,-3.0204,-3.0204,-3.0204,-3.0204,-3.0204,-3.0204,-3.0211,-3.0218,-3.0211,-3.0211,-3.0211,-3.0211,-3.0204,-3.0204,-3.0204,-3.0204,-3.0261,-3.0854,-3.1197,-3.1541,-3.2069,-3.2527,-3.2394,-3.2642,-3.3127,-3.3624,-3.4052,-3.4483,-3.4904,-3.5106,-3.5182,-3.5182,-3.5182,-3.5182,-3.5182,-3.4579,-3.409,-3.4109,-3.4224,-3.4655,-3.4904,-3.5106,-3.5182,-3.5182,-3.5182,-3.5182,-3.5182,-3.5182,-3.5182,-3.5182,-3.5182,-3.5182,-3.5182,-3.5182,-3.5182,-3.5182,-3.5182,-3.5182,-3.5182,-3.519,-3.5209,-3.5209,-3.5209,-3.5218,-3.5234,-3.5277,-3.5293,-3.53,-3.5324,-3.5361,-3.1153,-3.1602,-3.1055,-3.1133,-3.152,-3.0962,-3.0709,-3.0669,-3.0572,-3.0482,-3.0451,-3.0431,-3.0404,-3.0404,-3.0404,-3.0404,-3.0404,-3.0404,-3.0404,-3.0404,-3.0404,-3.0367,-3.0233,-2.9896,-2.9551,-2.9442,-2.9384,-2.9471,-2.928,-2.9879,-3.0192,-3.0204,-3.0204,-3.0204,-3.0204,-3.0204,-3.0204,-3.0204,-3.0204,-3.0204,-3.0204,-3.0204,-3.0204,-3.0204,-3.0204,-3.0204,-3.0204,-3.0204,-3.0204,-3.0204,-3.0204,-3.0218,-3.0206,-3.0218,-3.0218,-3.0225,-3.0218,-3.0204,-3.0204,-3.0204,-3.0204,-3.0345,-3.0479,-3.0739,-3.0739,-3.14,-3.1744,-3.2126,-3.2565,-3.3146,-3.3777,-3.3975,-3.4369,-3.4961,-3.5182,-3.5182,-3.5182,-3.5182,-3.5182,-3.5182,-3.4827,-3.4636,-3.4579,-3.4358,-3.4598,-3.4904,-3.5144,-3.5182,-3.5182,-3.5182,-3.5182,-3.5182,-3.5182,-3.5182,-3.5182,-3.5182,-3.5182,-3.5182,-3.5182,-3.5182,-3.5182,-3.519,-3.519,-3.5198,-3.5218,-3.5209,-3.5234,-3.5258,-3.5258,-3.5273,-3.5316,-3.5339,-3.5354,-3.5376,-3.5398,-3.1582,-3.2013,-3.1504,-3.1563,-3.1931,-3.1113,-3.0726,-3.0682,-3.062,-3.0548,-3.0496,-3.046,-3.0419,-3.0396,-3.0404,-3.0404,-3.0404,-3.0404,-3.0404,-3.0404,-3.0404,-3.0367,-3.0112,-2.9774,-2.9717,-2.941,-2.9365,-2.9414,-2.9535,-2.9937,-3.0173,-3.0204,-3.0204,-3.0204,-3.0204,-3.0204,-3.0204,-3.0204,-3.0204,-3.0204,-3.0204,-3.0204,-3.0204,-3.0204,-3.0204,-3.0204,-3.0204,-3.0204,-3.0204,-3.0204,-3.0211,-3.0218,-3.0206,-3.0213,-3.0206,-3.0206,-3.0218,-3.0211,-3.0218,-3.0211,-3.0211,-3.0242,-3.0204,-3.0204,-3.0357,-3.1083,-3.1381,-3.1782,-3.2527,-3.3261,-3.391,-3.4071,-3.4579,-3.5163,-3.5182,-3.5182,-3.5182,-3.5182,-3.5182,-3.5182,-3.4961,-3.4923,-3.4904,-3.477,-3.4636,-3.4923,-3.5182,-3.5182,-3.5182,-3.5182,-3.5182,-3.5182,-3.5182,-3.5182,-3.5182,-3.5182,-3.5182,-3.5182,-3.519,-3.5218,-3.5226,-3.5234,-3.5234,-3.5223,-3.5258,-3.5273,-3.5289,-3.5304,-3.532,-3.5335,-3.5376,-3.5391,-3.5405,-3.542,-3.5453,-3.2052,-3.211,-3.2071,-3.2013,-3.1953,-3.117,-3.0765,-3.0713,-3.0706,-3.0617,-3.0506,-3.0501,-3.0451,-3.0396,-3.0404,-3.0404,-3.0404,-3.0404,-3.0404,-3.0404,-3.0404,-3.0361,-3.0317,-3.019,-3.0017,-3.0099,-3.0072,-2.9917,-3.0135,-3.0173,-3.0204,-3.0204,-3.0204,-3.0204,-3.0204,-3.0204,-3.0204,-3.0204,-3.0204,-3.0204,-3.0204,-3.0204,-3.0204,-3.0204,-3.0204,-3.0204,-3.0204,-3.0204,-3.0204,-3.0204,-3.0204,-3.0211,-3.0218,-3.0219,-3.0206,-3.0218,-3.0204,-3.0218,-3.0213,-3.0218,-3.0211,-3.0223,-3.0338,-3.0261,-3.0586,-3.1236,-3.1763,-3.2382,-3.3184,-3.3662,-3.4147,-3.4579,-3.5029,-3.5182,-3.5182,-3.5182,-3.5182,-3.5182,-3.5182,-3.5037,-3.4655,-3.4522,-3.456,-3.4522,-3.4789,-3.498,-3.5182,-3.5182,-3.5182,-3.5182,-3.5182,-3.5182,-3.5182,-3.5182,-3.5182,-3.5182,-3.5182,-3.5182,-3.5261,-3.5269,-3.5277,-3.5258,-3.5273,-3.527,-3.5293,-3.5308,-3.53,-3.5342,-3.5379,-3.5412,-3.5412,-3.5439,-3.5453,-3.546,-3.5474,-3.1543,-3.2032,-3.1446,-3.1524,-3.1934,-3.1172,-3.0796,-3.0786,-3.0726,-3.0645,-3.0576,-3.0528,-3.0467,-3.0385,-3.0404,-3.0404,-3.0404,-3.0404,-3.0404,-3.0404,-3.0404,-3.0349,-3.0318,-3.0292,-3.0253,-3.0239,-3.0211,-3.0204,-3.0185,-3.0204,-3.0204,-3.0204,-3.0204,-3.0204,-3.0204,-3.0204,-3.0204,-3.0204,-3.0204,-3.0204,-3.0204,-3.0204,-3.0204,-3.0204,-3.0204,-3.0204,-3.0204,-3.0204,-3.0204,-3.0204,-3.0204,-3.0211,-3.0219,-3.0213,-3.0211,-3.0211,-3.0204,-3.0211,-3.0218,-3.0211,-3.0204,-3.0357,-3.0663,-3.1045,-3.1324,-3.1744,-3.2432,-3.3012,-3.3681,-3.4197,-3.4464,-3.4846,-3.5144,-3.5182,-3.5182,-3.5182,-3.5144,-3.5029,-3.5029,-3.4923,-3.4522,-3.4694,-3.4674,-3.4751,-3.5018,-3.5125,-3.5182,-3.5182,-3.5182,-3.5182,-3.5182,-3.5182,-3.5182,-3.5182,-3.5182,-3.5182,-3.5182,-3.519,-3.5269,-3.5319,-3.53,-3.5289,-3.5312,-3.5335,-3.5357,-3.535,-3.5308,-3.5364,-3.5427,-3.5427,-3.5427,-3.546,-3.5493,-3.55,-3.55,-3.1621,-3.1993,-3.1543,-3.1426,-3.1465,-3.1036,-3.08,-3.0798,-3.0762,-3.0701,-3.0593,-3.0544,-3.0496,-3.0396,-3.0404,-3.0404,-3.0404,-3.0404,-3.0404,-3.0404,-3.0404,-3.0362,-3.0331,-3.0305,-3.0253,-3.0232,-3.0204,-3.0204,-3.0204,-3.0204,-3.0204,-3.0204,-3.0204,-3.0204,-3.0204,-3.0204,-3.0204,-3.0204,-3.0204,-3.0204,-3.0204,-3.0204,-3.0204,-3.0204,-3.0204,-3.0204,-3.0204,-3.0204,-3.0204,-3.0204,-3.0204,-3.0218,-3.0213,-3.0218,-3.0219,-3.0232,-3.0218,-3.0218,-3.0206,-3.0211,-3.0211,-3.0414,-3.0949,-3.1305,-3.1706,-3.2088,-3.2661,-3.3234,-3.4044,-3.4674,-3.4827,-3.4961,-3.5068,-3.5182,-3.5182,-3.5182,-3.5029,-3.4866,-3.4808,-3.477,-3.4846,-3.5048,-3.5144,-3.5182,-3.5182,-3.5182,-3.5182,-3.5182,-3.5182,-3.5182,-3.5182,-3.5182,-3.5182,-3.5182,-3.5182,-3.519,-3.5218,-3.5234,-3.5273,-3.5316,-3.5304,-3.5354,-3.5391,-3.5405,-3.5412,-3.5405,-3.5372,-3.542,-3.5467,-3.546,-3.546,-3.5467,-3.55,-3.55,-3.55,-3.1974,-3.1974,-3.1993,-3.1485,-3.0859,-3.08,-3.08,-3.08,-3.0799,-3.0726,-3.0643,-3.0603,-3.0531,-3.0439,-3.0425,-3.0427,-3.041,-3.0404,-3.0404,-3.0404,-3.0404,-3.0355,-3.0318,-3.0305,-3.0253,-3.0232,-3.0204,-3.0204,-3.0204,-3.0204,-3.0204,-3.0204,-3.0204,-3.0204,-3.0204,-3.0204,-3.0204,-3.0204,-3.0204,-3.0204,-3.0204,-3.0204,-3.0204,-3.0204,-3.0204,-3.0204,-3.0204,-3.0204,-3.0204,-3.0204,-3.0211,-3.0211,-3.0211,-3.0211,-3.0226,-3.0233,-3.0206,-3.0225,-3.0225,-3.0218,-3.0211,-3.0472,-3.0968,-3.135,-3.1744,-3.226,-3.2814,-3.3005,-3.3624,-3.3853,-3.3968,-3.4178,-3.4323,-3.4456,-3.4533,-3.4628,-3.4674,-3.456,-3.4541,-3.4617,-3.498,-3.5163,-3.5182,-3.5182,-3.5182,-3.5182,-3.5182,-3.5182,-3.5182,-3.5182,-3.5182,-3.5182,-3.5182,-3.5182,-3.5209,-3.5218,-3.5261,-3.5285,-3.5304,-3.5327,-3.5335,-3.5405,-3.5474,-3.5474,-3.546,-3.5467,-3.5474,-3.55,-3.55,-3.5481,-3.5474,-3.5481,-3.55,-3.55,-3.55,-3.1094,-3.1114,-3.1114,-3.0977,-3.082,-3.08,-3.08,-3.08,-3.08,-3.0741,-3.0699,-3.0661,-3.0593,-3.0487,-3.0467,-3.0455,-3.0396,-3.0404,-3.0404,-3.0404,-3.0404,-3.0367,-3.0311,-3.0305,-3.0247,-3.0226,-3.0206,-3.0211,-3.0204,-3.0204,-3.0204,-3.0204,-3.0204,-3.0204,-3.0204,-3.0204,-3.0204,-3.0204,-3.0204,-3.0204,-3.0204,-3.0204,-3.0204,-3.0204,-3.0204,-3.0204,-3.0204,-3.0204,-3.0204,-3.0204,-3.0204,-3.0204,-3.0204,-3.0211,-3.0218,-3.0206,-3.0206,-3.0218,-3.0218,-3.0211,-3.0211,-3.0452,-3.0892,-3.1274,-3.1744,-3.2336,-3.268,-3.2737,-3.2833,-3.2947,-3.3108,-3.3349,-3.3597,-3.3731,-3.3826,-3.4044,-3.4254,-3.4312,-3.43,-3.4598,-3.4999,-3.5152,-3.5182,-3.5182,-3.5182,-3.5182,-3.5182,-3.5182,-3.5182,-3.5182,-3.5182,-3.5182,-3.5182,-3.519,-3.5218,-3.5234,-3.5277,-3.5308,-3.5346,-3.535,-3.5372,-3.5427,-3.55,-3.55,-3.5481,-3.55,-3.55,-3.55,-3.55,-3.55,-3.55,-3.55,-3.55,-3.55,-3.55,-3.08,-3.08,-3.08,-3.08,-3.08,-3.08,-3.08,-3.08,-3.08,-3.0792,-3.0735,-3.0694,-3.0623,-3.0519,-3.0501,-3.0467,-3.0408,-3.0404,-3.0404,-3.0404,-3.0379,-3.0348,-3.0323,-3.0305,-3.0273,-3.0241,-3.0226,-3.0206,-3.0211,-3.0204,-3.0204,-3.0211,-3.0211,-3.0211,-3.0211,-3.0211,-3.0204,-3.0204,-3.0211,-3.0211,-3.0211,-3.0211,-3.0204,-3.0204,-3.0204,-3.0204,-3.0204,-3.0204,-3.0204,-3.0211,-3.0218,-3.0206,-3.0213,-3.0233,-3.0219,-3.0206,-3.0218,-3.0218,-3.0211,-3.0204,-3.0204,-3.0452,-3.0968,-3.1427,-3.0987,-3.1484,-3.1973,-3.205,-3.2069,-3.2172,-3.2374,-3.2604,-3.2967,-3.3196,-3.3196,-3.3272,-3.3815,-3.4235,-3.4197,-3.4273,-3.4713,-3.5163,-3.5182,-3.5182,-3.5182,-3.5182,-3.5182,-3.5182,-3.5182,-3.5182,-3.5182,-3.519,-3.5209,-3.5226,-3.5242,-3.5277,-3.53,-3.5339,-3.5376,-3.5398,-3.542,-3.546,-3.55,-3.55,-3.55,-3.55,-3.55,-3.55,-3.55,-3.55,-3.55,-3.55,-3.55,-3.55,-3.55,-3.08,-3.08,-3.08,-3.08,-3.08,-3.08,-3.08,-3.08,-3.08,-3.08,-3.0796,-3.0734,-3.0633,-3.0548,-3.0495,-3.0462,-3.0417,-3.0396,-3.0385,-3.0404,-3.0404,-3.0348,-3.0316,-3.0304,-3.0273,-3.0254,-3.0214,-3.0206,-3.0204,-3.0211,-3.0211,-3.0211,-3.0211,-3.0211,-3.0211,-3.0211,-3.0211,-3.0218,-3.0218,-3.0206,-3.0218,-3.0211,-3.0211,-3.0204,-3.0204,-3.0204,-3.0204,-3.0204,-3.0204,-3.0218,-3.0213,-3.0219,-3.0207,-3.0221,-3.0226,-3.0206,-3.0206,-3.0218,-3.0218,-3.0204,-3.0204,-3.0414,-3.1052,-3.109,-3.0612,-3.0727,-3.1217,-3.1331,-3.1358,-3.1427,-3.161,-3.1782,-3.2164,-3.2661,-3.2623,-3.2737,-3.3425,-3.4113,-3.4178,-3.4159,-3.4636,-3.5144,-3.5182,-3.5182,-3.5182,-3.5182,-3.5182,-3.5182,-3.5182,-3.5182,-3.5182,-3.5209,-3.5226,-3.5261,-3.5277,-3.5316,-3.5339,-3.5369,-3.5405,-3.5446,-3.5467,-3.5481,-3.55,-3.55,-3.55,-3.55,-3.55,-3.55,-3.55,-3.55,-3.55,-3.55,-3.55,-3.55,-3.55,-3.08,-3.08,-3.08,-3.08,-3.08,-3.08,-3.08,-3.08,-3.08,-3.08,-3.0799,-3.0796,-3.0747,-3.0675,-3.0616,-3.0539,-3.0462,-3.0417,-3.039,-3.0404,-3.0404,-3.0367,-3.0336,-3.031,-3.0267,-3.0221,-3.0207,-3.0218,-3.0211,-3.0211,-3.0206,-3.0219,-3.0211,-3.0218,-3.0219,-3.0213,-3.0206,-3.0219,-3.0226,-3.0233,-3.0246,-3.0245,-3.0211,-3.0204,-3.0204,-3.0204,-3.0204,-3.0204,-3.0204,-3.0218,-3.0219,-3.0214,-3.0207,-3.0188,-3.0194,-3.0185,-3.0185,-3.0199,-3.0192,-3.0211,-3.0218,-3.0225,-3.0645,-3.0588,-3.032,-3.0333,-3.06,-3.0607,-3.0626,-3.0612,-3.0739,-3.0739,-3.1045,-3.1897,-3.2241,-3.2642,-3.3196,-3.3891,-3.4331,-3.4579,-3.4972,-3.5182,-3.5182,-3.5182,-3.5182,-3.5182,-3.5182,-3.5182,-3.5198,-3.519,-3.519,-3.5226,-3.5261,-3.5269,-3.5312,-3.5354,-3.5383,-3.5405,-3.5446,-3.5467,-3.5474,-3.5481,-3.55,-3.55,-3.55,-3.55,-3.55,-3.55,-3.55,-3.55,-3.55,-3.55,-3.55,-3.55,-3.55]},{"header":{"parameterUnit":"m.s-1","parameterCategory":1,"la1":31.0,"la2":29.5877,"lo1":-88.7671,"lo2":-86.6584,"dy":0.0162,"dx":0.0185,"nx":115,"ny":88,"refTime":"2026-04-23T12:00:00:Z","depth":0,"parameterNumber":3,"parameterNumberName":"V-component_of_WINDS"},"data":[0.0,0.0,0.0,0.0,0.0,0.0,0.0,0.0,0.0,0.0,0.0,0.0,0.0,0.0,0.0,0.0,0.0,0.0,0.0,0.0,0.0,0.0,0.0,0.0,0.0,0.0,0.0,0.0,0.0,0.0,0.0,0.0,0.0,0.0,0.0,0.0,0.0,0.0,0.0,0.0,0.0,0.0,0.0,0.0,0.0,0.0,0.0,0.0,0.0,0.0,0.0,0.0,0.0,0.0,0.0,0.0,0.0,0.0,0.0,0.0,0.0,0.0,0.0,0.0,0.0,0.0,0.0,0.0,0.0,0.0,0.0,0.0,0.0,0.0,0.0,0.0,0.0,0.0,0.0,0.0,0.0,0.0,0.0,0.0,0.0,0.0,0.0,0.0,0.0,0.0,0.0,0.0,0.0,0.0,0.0,0.0,0.0,0.0,0.0,0.0,0.0,0.0,0.0,0.0,0.0,0.0,0.0,0.0,0.0,0.0,0.0,0.0,0.0,0.0,0.0,0.0,0.0,0.0,0.0,0.0,0.0,0.0,0.0,0.0,0.0,0.0,0.0,0.0,0.0,0.0,0.0,0.0,0.0,0.0,0.0,0.0,0.0,0.0,0.0,0.0,0.0,0.0,0.0,0.0,0.0,0.0,0.0,0.0,0.0,0.0,0.0,0.0,0.0,0.0,0.0,0.0,0.0,0.0,0.0,0.0,0.0,0.0,0.0,0.0,0.0,0.0,0.0,0.0,0.0,0.0,0.0,0.0,0.0,0.0,0.0,0.0,0.0,0.0,0.0,0.0,0.0,0.0,0.0,0.0,0.0,0.0,0.0,0.0,0.0,0.0,0.0,0.0,0.0,0.0,0.0,0.0,0.0,0.0,0.0,0.0,0.0,0.0,0.0,0.0,0.0,0.0,0.0,0.0,0.0,0.0,0.0,0.0,0.0,0.0,0.0,0.0,0.0,0.0,0.0,0.0,0.0,0.0,0.0,0.0,0.0,0.0,0.0,0.0,0.0,0.0,0.0,0.0,0.0,0.0,0.0,0.0,0.0,0.0,0.0,0.0,0.0,0.0,0.0,0.0,0.0,0.0,0.0,0.0,0.0,0.0,0.0,0.0,0.0,0.0,0.0,0.0,0.0,0.0,0.0,0.0,0.0,0.0,0.0,0.0,0.0,0.0,0.0,0.0,0.0,0.0,0.0,0.0,0.0,0.0,0.0,0.0,0.0,0.0,0.0,0.0,0.0,0.0,0.0,0.0,0.0,0.0,0.0,0.0,0.0,0.0,0.0,0.0,0.0,0.0,0.0,0.0,0.0,0.0,0.0,0.0,0.0,0.0,0.0,0.0,0.0,0.0,0.0,0.0,0.0,0.0,0.0,0.0,0.0,0.0,0.0,0.0,0.0,0.0,0.0,0.0,0.0,0.0,0.0,0.0,0.0,0.0,0.0,0.0,0.0,0.0,0.0,0.0,0.0,0.0,0.0,0.0,0.0,0.0,0.0,0.0,0.0,0.0,0.0,0.0,0.0,0.0,0.0,0.0,0.0,0.0,0.0,0.0,0.0,0.0,0.0,0.0,0.0,0.0,0.0,0.0,0.0,0.0,0.0,0.0,0.0,0.0,0.0,0.0,0.0,0.0,0.0,0.0,0.0,0.0,0.0,0.0,0.0,0.0,0.0,0.0,0.0,0.0,0.0,0.0,0.0,0.0,0.0,0.0,0.0,0.0,0.0,0.0,0.0,0.0,0.0,0.0,0.0,0.0,0.0,0.0,0.0,0.0,0.0,0.0,0.0,0.0,0.0,0.0,0.0,0.0,0.0,0.0,0.0,0.0,0.0,0.0,0.0,0.0,0.0,0.0,0.0,0.0,0.0,0.0,0.0,0.0,0.0,0.0,0.0,0.0,0.0,0.0,0.0,0.0,0.0,0.0,0.0,0.0,0.0,0.0,0.0,0.0,0.0,0.0,0.0,0.0,0.0,0.0,0.0,0.0,0.0,0.0,0.0,0.0,0.0,0.0,0.0,0.0,0.0,0.0,0.0,0.0,0.0,0.0,0.0,0.0,0.0,0.0,0.0,0.0,0.0,0.0,0.0,0.0,0.0,0.0,0.0,0.0,0.0,0.0,0.0,0.0,0.0,0.0,0.0,0.0,0.0,0.0,0.0,0.0,0.0,0.0,0.0,0.0,0.0,0.0,0.0,0.0,0.0,0.0,0.0,0.0,0.0,0.0,0.0,0.0,0.0,0.0,0.0,0.0,0.0,0.0,0.0,0.0,0.0,0.0,0.0,0.0,0.0,0.0,0.0,0.0,0.0,0.0,0.0,0.0,0.0,0.0,0.0,0.0,0.0,0.0,0.0,0.0,0.0,0.0,0.0,0.0,0.0,0.0,0.0,0.0,0.0,0.0,0.0,0.0,0.0,0.0,0.0,0.0,0.0,0.0,0.0,0.0,0.0,0.0,0.0,0.0,0.0,0.0,0.0,0.0,0.0,0.0,0.0,0.0,0.0,0.0,0.0,0.0,0.0,0.0,0.0,0.0,0.0,0.0,0.0,0.0,0.0,0.0,0.0,0.0,0.0,0.0,0.0,0.0,0.0,0.0,0.0,0.0,0.0,0.0,0.0,0.0,0.0,0.0,0.0,0.0,0.0,0.0,0.0,0.0,0.0,0.0,0.0,0.0,0.0,0.0,0.0,0.0,0.0,0.0,0.0,0.0,0.0,0.0,0.0,0.0,0.0,0.0,0.0,0.0,0.0,0.0,0.0,0.0,0.0,0.0,0.0,0.0,0.0,0.0,0.0,0.0,0.0,0.0,0.0,0.0,0.0,0.0,0.0,0.0,0.0,0.0,0.0,0.0,0.0,0.0,0.0,0.0,0.0,0.0,0.0,0.0,0.0,0.0,0.0,0.0,0.0,0.0,0.0,0.0,0.0,0.0,0.0,0.0,0.0,0.0,0.0,0.0,0.0,0.0,0.0,0.0,0.0,0.0,0.0,0.0,0.0,0.0,0.0,0.0,0.0,0.0,0.0,0.0,0.0,0.0,0.0,0.0,0.0,0.0,0.0,0.0,0.0,0.0,0.0,0.0,0.0,0.0,0.0,0.0,0.0,0.0,0.0,0.0,0.0,0.0,0.0,0.0,0.0,0.0,0.0,0.0,0.0,0.0,0.0,0.0,0.0,0.0,0.0,0.0,0.0,0.0,0.0,0.0,0.0,0.0,0.0,0.0,0.0,0.0,0.0,0.0,0.0,0.0,0.0,0.0,0.0,0.0,0.0,0.0,0.0,0.0,0.0,0.0,0.0,0.0,0.0,0.0,0.0,0.0,0.0,0.0,0.0,0.0,0.0,0.0,0.0,0.0,0.0,0.0,0.0,0.0,0.0,0.0,0.0,0.0,0.0,0.0,0.0,0.0,0.0,0.0,0.0,0.0,0.0,0.0,0.0,0.0,0.0,0.0,0.0,0.0,0.0,0.0,0.0,0.0,0.0,0.0,0.0,0.0,0.0,0.0,0.0,0.0,0.0,0.0,0.0,0.0,0.0,0.0,0.0,0.0,0.0,0.0,0.0,0.0,0.0,0.0,0.0,0.0,0.0,0.0,0.0,0.0,0.0,0.0,0.0,0.0,0.0,0.0,0.0,0.0,0.0,0.0,0.0,0.0,0.0,0.0,0.0,0.0,0.0,0.0,0.0,0.0,0.0,0.0,0.0,0.0,0.0,0.0,0.0,0.0,0.0,0.0,0.0,0.0,0.0,0.0,0.0,0.0,0.0,0.0,0.0,0.0,0.0,0.0,0.0,0.0,0.0,0.0,0.0,0.0,0.0,0.0,0.0,0.0,0.0,0.0,0.0,0.0,0.0,0.0,0.0,0.0,0.0,0.0,0.0,0.0,0.0,0.0,0.0,0.0,0.0,0.0,0.0,0.0,0.0,0.0,0.0,0.0,0.0,0.0,0.0,0.0,0.0,0.0,0.0,0.0,0.0,0.0,0.0,0.0,0.0,0.0,0.0,0.0,0.0,0.0,0.0,0.0,0.0,0.0,0.0,0.0,0.0,0.0,0.0,0.0,0.0,0.0,0.0,0.0,0.0,0.0,0.0,0.0,0.0,0.0,0.0,0.0,0.0,0.0,0.0,0.0,0.0,0.0,0.0,0.0,0.0,0.0,0.0,0.0,0.0,0.0,0.0,0.0,0.0,0.0,0.0,0.0,0.0,0.0,0.0,0.0,0.0,0.0,0.0,0.0,0.0,0.0,0.0,0.0,0.0,0.0,-1.1331,0.0,0.0,0.0,0.0,0.0,0.0,0.0,0.0,0.0,0.0,0.0,0.0,0.0,0.0,0.0,0.0,0.0,0.0,0.0,0.0,0.0,0.0,0.0,0.0,0.0,0.0,0.0,0.0,0.0,0.0,0.0,0.0,0.0,0.0,0.0,0.0,0.0,0.0,0.0,0.0,0.0,0.0,0.0,0.0,0.0,0.0,0.0,0.0,0.0,0.0,0.0,0.0,0.0,0.0,0.0,0.0,0.0,0.0,0.0,0.0,0.0,0.0,0.0,0.0,0.0,0.0,0.0,0.0,0.0,0.0,0.0,0.0,0.0,0.0,0.0,0.0,0.0,0.0,0.0,0.0,0.0,0.0,0.0,0.0,0.0,0.0,0.0,0.0,0.0,0.0,0.0,0.0,0.0,0.0,0.0,0.0,0.0,0.0,0.0,0.0,0.0,0.0,0.0,0.0,0.0,0.0,0.0,0.0,0.0,0.0,-1.2238,-1.2111,-1.1986,-1.167,-1.1276,0.0,0.0,0.0,0.0,0.0,0.0,0.0,0.0,0.0,0.0,0.0,0.0,0.0,0.0,0.0,0.0,0.0,0.0,0.0,0.0,0.0,0.0,0.0,0.0,0.0,0.0,0.0,0.0,0.0,0.0,0.0,0.0,0.0,0.0,0.0,0.0,0.0,0.0,0.0,0.0,0.0,0.0,0.0,0.0,0.0,0.0,0.0,0.0,0.0,0.0,0.0,0.0,0.0,0.0,0.0,0.0,0.0,0.0,0.0,0.0,0.0,0.0,0.0,0.0,0.0,0.0,0.0,0.0,0.0,0.0,0.0,0.0,0.0,0.0,0.0,0.0,0.0,0.0,0.0,0.0,0.0,0.0,0.0,0.0,0.0,0.0,0.0,0.0,0.0,0.0,0.0,0.0,0.0,0.0,0.0,0.0,0.0,0.0,0.0,0.0,0.0,0.0,0.0,0.0,0.0,0.0,0.0,0.0,0.0,0.0,0.0,0.0,-1.2084,-1.1967,-1.186,0.0,0.0,0.0,0.0,0.0,0.0,0.0,0.0,0.0,0.0,0.0,0.0,0.0,0.0,0.0,0.0,0.0,0.0,0.0,0.0,0.0,0.0,0.0,0.0,0.0,0.0,0.0,0.0,0.0,0.0,0.0,0.0,0.0,0.0,0.0,0.0,0.0,0.0,0.0,0.0,0.0,0.0,0.0,0.0,0.0,0.0,0.0,0.0,0.0,0.0,0.0,0.0,0.0,0.0,0.0,0.0,0.0,0.0,0.0,0.0,0.0,0.0,0.0,0.0,0.0,0.0,0.0,0.0,0.0,0.0,0.0,0.0,0.0,0.0,0.0,0.0,0.0,0.0,0.0,0.0,0.0,0.0,0.0,0.0,0.0,0.0,0.0,0.0,0.0,0.0,0.0,0.0,0.0,0.0,0.0,0.0,0.0,0.0,0.0,0.0,0.0,0.0,0.0,0.0,0.0,0.0,0.0,0.0,0.0,0.0,-1.2305,-1.2305,-1.2271,0.0,-1.315,0.0,0.0,0.0,0.0,0.0,0.0,0.0,0.0,0.0,0.0,0.0,0.0,0.0,0.0,0.0,0.0,0.0,0.0,0.0,0.0,0.0,0.0,0.0,0.0,0.0,0.0,0.0,0.0,0.0,0.0,0.0,0.0,0.0,0.0,0.0,0.0,0.0,0.0,0.0,0.0,0.0,0.0,0.0,0.0,0.0,0.0,0.0,0.0,0.0,0.0,0.0,0.0,0.0,0.0,0.0,0.0,0.0,0.0,0.0,0.0,0.0,0.0,0.0,0.0,0.0,0.0,0.0,0.0,0.0,0.0,0.0,0.0,0.0,0.0,0.0,0.0,0.0,0.0,0.0,0.0,0.0,0.0,0.0,0.0,0.0,0.0,0.0,0.0,0.0,0.0,0.0,0.0,0.0,0.0,0.0,0.0,0.0,0.0,0.0,0.0,0.0,0.0,0.0,0.0,0.0,0.0,0.0,0.0,0.0,0.0,-1.2305,-1.2305,-1.1964,-1.2082,0.0,0.0,0.0,0.0,0.0,0.0,0.0,0.0,0.0,0.0,0.0,0.0,0.0,0.0,0.0,0.0,0.0,0.0,0.0,0.0,0.0,0.0,0.0,0.0,0.0,0.0,0.0,0.0,0.0,0.0,0.0,0.0,0.0,0.0,0.0,0.0,0.0,0.0,0.0,0.0,0.0,0.0,0.0,0.0,0.0,0.0,0.0,0.0,0.0,0.0,0.0,0.0,0.0,0.0,0.0,0.0,0.0,0.0,0.0,0.0,0.0,0.0,0.0,0.0,0.0,0.0,0.0,0.0,0.0,0.0,0.0,0.0,0.0,0.0,0.0,0.0,0.0,0.0,0.0,0.0,0.0,0.0,0.0,0.0,0.0,0.0,0.0,0.0,0.0,0.0,0.0,0.0,0.0,0.0,0.0,0.0,0.0,0.0,0.0,0.0,0.0,0.0,0.0,0.0,0.0,0.0,0.0,0.0,0.0,0.0,-1.2305,-1.2305,-1.2285,-1.1891,-1.1902,-1.2376,0.0,0.0,0.0,0.0,0.0,0.0,0.0,0.0,0.0,0.0,0.0,0.0,0.0,0.0,0.0,0.0,0.0,0.0,0.0,0.0,0.0,0.0,0.0,0.0,0.0,0.0,0.0,0.0,0.0,0.0,0.0,0.0,0.0,0.0,0.0,0.0,0.0,0.0,0.0,0.0,0.0,0.0,0.0,0.0,0.0,0.0,0.0,0.0,0.0,0.0,0.0,0.0,0.0,0.0,0.0,0.0,0.0,0.0,0.0,0.0,0.0,0.0,0.0,0.0,0.0,0.0,0.0,0.0,0.0,0.0,0.0,0.0,0.0,0.0,0.0,0.0,0.0,0.0,0.0,0.0,0.0,0.0,0.0,0.0,0.0,0.0,0.0,0.0,0.0,0.0,0.0,0.0,0.0,0.0,0.0,0.0,0.0,0.0,0.0,0.0,0.0,0.0,0.0,0.0,0.0,0.0,0.0,0.0,0.0,-1.2305,-1.2305,-1.2298,-1.2271,-1.2314,0.0,0.0,0.0,0.0,0.0,0.0,0.0,0.0,0.0,0.0,0.0,0.0,0.0,0.0,0.0,0.0,0.0,0.0,0.0,0.0,0.0,0.0,0.0,0.0,0.0,0.0,0.0,0.0,0.0,0.0,0.0,0.0,0.0,0.0,0.0,0.0,0.0,0.0,0.0,0.0,0.0,0.0,0.0,0.0,0.0,0.0,0.0,0.0,0.0,0.0,0.0,0.0,0.0,0.0,0.0,0.0,0.0,0.0,0.0,0.0,0.0,0.0,0.0,0.0,0.0,0.0,0.0,0.0,0.0,0.0,0.0,0.0,0.0,0.0,0.0,0.0,0.0,0.0,0.0,0.0,0.0,0.0,0.0,0.0,0.0,0.0,0.0,0.0,0.0,0.0,0.0,0.0,0.0,0.0,0.0,0.0,0.0,0.0,0.0,0.0,0.0,0.0,0.0,0.0,0.0,0.0,0.0,0.0,0.0,-1.2305,-1.2305,-1.2305,-1.2291,-1.1937,-1.1748,0.0,0.0,0.0,0.0,0.0,0.0,0.0,0.0,0.0,0.0,0.0,0.0,0.0,0.0,0.0,0.0,0.0,0.0,0.0,0.0,0.0,0.0,0.0,0.0,0.0,0.0,0.0,0.0,0.0,0.0,0.0,0.0,0.0,0.0,0.0,0.0,0.0,0.0,0.0,0.0,0.0,0.0,0.0,0.0,0.0,0.0,0.0,0.0,0.0,0.0,0.0,0.0,0.0,0.0,0.0,0.0,0.0,0.0,0.0,0.0,0.0,0.0,0.0,0.0,0.0,0.0,0.0,0.0,0.0,0.0,0.0,0.0,0.0,0.0,0.0,0.0,0.0,0.0,0.0,0.0,0.0,0.0,0.0,0.0,0.0,0.0,0.0,0.0,0.0,0.0,0.0,0.0,0.0,0.0,0.0,0.0,0.0,0.0,0.0,0.0,0.0,0.0,0.0,0.0,0.0,0.0,0.0,0.0,0.0,-1.1929,0.0,-1.204,0.0,-1.183,-1.1523,0.0,0.0,0.0,0.0,0.0,0.0,0.0,0.0,0.0,0.0,0.0,0.0,0.0,0.0,0.0,0.0,0.0,0.0,0.0,0.0,0.0,0.0,0.0,0.0,0.0,0.0,0.0,0.0,0.0,0.0,0.0,0.0,0.0,0.0,0.0,0.0,0.0,0.0,0.0,0.0,0.0,0.0,0.0,0.0,0.0,0.0,0.0,0.0,0.0,0.0,0.0,0.0,0.0,0.0,0.0,0.0,0.0,0.0,0.0,0.0,0.0,0.0,0.0,0.0,0.0,0.0,0.0,0.0,0.0,0.0,0.0,0.0,0.0,0.0,0.0,0.0,0.0,0.0,0.0,0.0,0.0,0.0,0.0,0.0,0.0,0.0,0.0,0.0,0.0,0.0,0.0,0.0,0.0,0.0,0.0,0.0,0.0,0.0,0.0,0.0,0.0,0.0,0.0,0.0,0.0,0.0,0.0,0.0,-1.1111,-1.1149,-1.1143,-1.1527,-1.2268,-1.2017,-1.1695,0.0,0.0,0.0,0.0,0.0,0.0,0.0,0.0,0.0,0.0,0.0,0.0,0.0,0.0,0.0,0.0,0.0,0.0,0.0,0.0,0.0,0.0,0.0,0.0,0.0,0.0,0.0,0.0,0.0,0.0,0.0,0.0,0.0,0.0,0.0,0.0,0.0,0.0,0.0,0.0,0.0,0.0,0.0,0.0,0.0,0.0,0.0,0.0,0.0,0.0,0.0,0.0,0.0,0.0,0.0,0.0,0.0,0.0,0.0,0.0,0.0,0.0,0.0,0.0,0.0,0.0,0.0,0.0,0.0,0.0,0.0,0.0,0.0,0.0,0.0,0.0,0.0,0.0,0.0,0.0,0.0,0.0,0.0,0.0,0.0,0.0,0.0,0.0,0.0,0.0,0.0,0.0,0.0,0.0,0.0,0.0,0.0,0.0,0.0,0.0,0.0,0.0,0.0,0.0,0.0,0.0,0.0,0.0,0.0,-1.1898,-1.1372,-1.1608,-1.2541,-1.1614,-1.1291,0.0,0.0,0.0,0.0,0.0,0.0,0.0,0.0,0.0,0.0,0.0,0.0,0.0,0.0,0.0,0.0,0.0,0.0,0.0,0.0,0.0,0.0,0.0,0.0,0.0,0.0,0.0,0.0,0.0,0.0,0.0,0.0,0.0,0.0,0.0,0.0,0.0,0.0,0.0,0.0,0.0,0.0,0.0,0.0,0.0,0.0,0.0,0.0,0.0,0.0,0.0,0.0,0.0,0.0,0.0,0.0,0.0,0.0,0.0,0.0,0.0,0.0,0.0,0.0,0.0,0.0,0.0,0.0,0.0,0.0,0.0,0.0,0.0,0.0,0.0,0.0,0.0,0.0,0.0,0.0,0.0,0.0,0.0,0.0,0.0,0.0,0.0,0.0,0.0,0.0,0.0,0.0,0.0,0.0,0.0,0.0,0.0,0.0,0.0,0.0,0.0,0.0,0.0,0.0,0.0,0.0,0.0,0.0,0.0,-1.1934,-1.1212,-1.1291,-1.2273,-1.1644,-1.1473,-1.1899,0.0,0.0,0.0,0.0,0.0,0.0,0.0,0.0,0.0,0.0,0.0,0.0,0.0,0.0,0.0,0.0,0.0,0.0,0.0,0.0,0.0,0.0,0.0,0.0,0.0,0.0,0.0,0.0,0.0,0.0,0.0,0.0,0.0,0.0,0.0,0.0,0.0,0.0,0.0,0.0,0.0,0.0,0.0,0.0,0.0,0.0,0.0,0.0,0.0,0.0,0.0,0.0,0.0,0.0,0.0,0.0,0.0,0.0,0.0,0.0,0.0,0.0,0.0,0.0,0.0,0.0,0.0,0.0,0.0,0.0,0.0,0.0,0.0,0.0,0.0,0.0,0.0,0.0,0.0,0.0,0.0,0.0,0.0,0.0,0.0,0.0,0.0,0.0,0.0,0.0,0.0,0.0,0.0,0.0,0.0,0.0,0.0,0.0,0.0,0.0,0.0,0.0,0.0,0.0,0.0,0.0,0.0,0.0,-1.1462,-1.0757,-1.079,-1.1546,-1.1991,-1.2161,0.0,0.0,0.0,0.0,0.0,0.0,0.0,0.0,0.0,0.0,0.0,0.0,0.0,0.0,0.0,0.0,0.0,0.0,0.0,0.0,0.0,0.0,0.0,0.0,0.0,0.0,0.0,0.0,0.0,0.0,0.0,0.0,0.0,0.0,0.0,0.0,0.0,0.0,0.0,0.0,0.0,0.0,0.0,0.0,0.0,0.0,0.0,0.0,0.0,0.0,0.0,0.0,0.0,0.0,0.0,0.0,0.0,0.0,0.0,0.0,0.0,0.0,0.0,0.0,0.0,0.0,0.0,0.0,0.0,0.0,0.0,0.0,0.0,0.0,0.0,0.0,0.0,0.0,0.0,0.0,0.0,0.0,0.0,0.0,0.0,0.0,0.0,0.0,0.0,0.0,0.0,0.0,0.0,0.0,0.0,0.0,0.0,0.0,0.0,0.0,0.0,0.0,0.0,0.0,0.0,0.0,0.0,0.0,0.0,-1.0833,-1.1467,-1.2211,-1.2985,-1.2156,-1.198,0.0,0.0,0.0,0.0,0.0,0.0,0.0,0.0,0.0,0.0,0.0,0.0,0.0,0.0,0.0,0.0,0.0,0.0,0.0,0.0,0.0,0.0,0.0,0.0,0.0,0.0,0.0,0.0,0.0,0.0,0.0,0.0,0.0,0.0,0.0,0.0,0.0,0.0,0.0,0.0,0.0,0.0,0.0,0.0,0.0,0.0,0.0,0.0,0.0,0.0,0.0,0.0,0.0,0.0,0.0,0.0,0.0,0.0,0.0,0.0,0.0,0.0,0.0,0.0,0.0,0.0,0.0,0.0,0.0,0.0,0.0,0.0,0.0,0.0,0.0,0.0,0.0,0.0,0.0,0.0,0.0,0.0,0.0,0.0,0.0,0.0,0.0,0.0,0.0,0.0,0.0,0.0,0.0,0.0,0.0,0.0,0.0,0.0,0.0,0.0,0.0,0.0,0.0,0.0,0.0,0.0,0.0,0.0,-1.1857,-1.1174,-1.2431,-1.3358,-1.3793,-1.2879,-1.2485,0.0,0.0,0.0,0.0,0.0,0.0,0.0,0.0,0.0,0.0,0.0,0.0,0.0,0.0,0.0,0.0,0.0,0.0,0.0,0.0,0.0,0.0,0.0,0.0,0.0,0.0,0.0,0.0,0.0,0.0,0.0,0.0,0.0,0.0,0.0,0.0,0.0,0.0,0.0,0.0,0.0,0.0,0.0,0.0,0.0,0.0,0.0,0.0,0.0,0.0,0.0,0.0,0.0,0.0,0.0,0.0,0.0,0.0,0.0,0.0,0.0,0.0,0.0,0.0,0.0,0.0,0.0,0.0,0.0,0.0,0.0,0.0,0.0,0.0,0.0,0.0,0.0,0.0,0.0,0.0,0.0,0.0,0.0,0.0,0.0,0.0,0.0,0.0,0.0,0.0,0.0,0.0,0.0,0.0,0.0,0.0,0.0,0.0,0.0,0.0,0.0,0.0,0.0,0.0,0.0,0.0,0.0,0.0,-1.2803,-1.2067,-1.3328,-1.3966,-1.386,-1.3672,-1.3347,0.0,0.0,0.0,0.0,0.0,0.0,0.0,0.0,0.0,0.0,0.0,0.0,0.0,0.0,0.0,0.0,0.0,0.0,0.0,0.0,0.0,0.0,0.0,0.0,0.0,0.0,0.0,0.0,0.0,0.0,0.0,0.0,0.0,0.0,0.0,0.0,0.0,0.0,0.0,0.0,0.0,0.0,0.0,0.0,0.0,0.0,0.0,0.0,0.0,0.0,0.0,0.0,0.0,0.0,0.0,0.0,0.0,0.0,0.0,0.0,0.0,0.0,0.0,0.0,0.0,0.0,0.0,0.0,0.0,0.0,0.0,0.0,0.0,0.0,0.0,0.0,0.0,0.0,0.0,0.0,0.0,0.0,0.0,0.0,0.0,0.0,0.0,0.0,0.0,0.0,0.0,0.0,0.0,0.0,0.0,0.0,0.0,0.0,0.0,0.0,0.0,0.0,0.0,0.0,0.0,0.0,0.0,0.0,-1.2692,-1.2266,-1.2977,-1.3082,-1.2402,-1.2956,-1.324,0.0,0.0,0.0,0.0,0.0,0.0,0.0,0.0,0.0,0.0,0.0,0.0,0.0,0.0,0.0,0.0,0.0,0.0,0.0,0.0,0.0,0.0,0.0,0.0,0.0,0.0,0.0,0.0,0.0,0.0,0.0,0.0,0.0,0.0,0.0,0.0,0.0,0.0,0.0,0.0,0.0,0.0,0.0,0.0,0.0,0.0,0.0,0.0,-1.3279,0.0,0.0,0.0,0.0,0.0,0.0,0.0,0.0,0.0,0.0,0.0,0.0,0.0,0.0,0.0,0.0,0.0,0.0,0.0,0.0,0.0,0.0,0.0,0.0,0.0,0.0,0.0,0.0,0.0,0.0,0.0,0.0,0.0,0.0,0.0,0.0,0.0,0.0,0.0,0.0,0.0,0.0,0.0,0.0,0.0,0.0,0.0,0.0,0.0,0.0,0.0,0.0,0.0,0.0,0.0,0.0,0.0,0.0,0.0,-1.2968,-1.2935,-1.3104,-1.302,-1.2729,-1.3033,-1.314,0.0,0.0,0.0,0.0,0.0,0.0,0.0,0.0,0.0,0.0,0.0,0.0,0.0,0.0,0.0,0.0,0.0,0.0,0.0,0.0,0.0,0.0,0.0,0.0,0.0,0.0,0.0,0.0,0.0,0.0,0.0,0.0,0.0,0.0,0.0,0.0,0.0,0.0,0.0,0.0,0.0,0.0,0.0,0.0,0.0,0.0,0.0,0.0,0.0,0.0,0.0,0.0,0.0,0.0,0.0,0.0,0.0,0.0,0.0,0.0,0.0,0.0,0.0,0.0,0.0,0.0,0.0,0.0,0.0,0.0,0.0,0.0,0.0,0.0,0.0,0.0,0.0,0.0,0.0,0.0,0.0,0.0,0.0,0.0,0.0,0.0,0.0,0.0,0.0,0.0,0.0,0.0,0.0,0.0,0.0,0.0,0.0,0.0,0.0,0.0,0.0,0.0,0.0,0.0,0.0,0.0,0.0,-1.3092,-1.3327,-1.3633,-1.334,-1.326,-1.358,-1.336,-1.3073,-1.2804,0.0,0.0,0.0,0.0,0.0,0.0,0.0,0.0,0.0,0.0,0.0,0.0,0.0,0.0,0.0,0.0,0.0,0.0,0.0,0.0,0.0,0.0,0.0,0.0,0.0,0.0,0.0,0.0,0.0,0.0,0.0,0.0,0.0,0.0,0.0,0.0,0.0,0.0,-1.179,-1.1288,0.0,0.0,0.0,0.0,0.0,0.0,0.0,0.0,-1.3333,0.0,0.0,0.0,0.0,0.0,0.0,0.0,0.0,0.0,0.0,0.0,0.0,0.0,0.0,0.0,0.0,0.0,0.0,0.0,0.0,0.0,0.0,0.0,0.0,0.0,0.0,0.0,0.0,0.0,0.0,0.0,0.0,0.0,0.0,0.0,0.0,0.0,0.0,0.0,0.0,0.0,0.0,0.0,0.0,0.0,0.0,0.0,0.0,0.0,0.0,0.0,0.0,0.0,0.0,0.0,0.0,-1.344,-1.3092,-1.3253,-1.3981,-1.3273,-1.308,-1.3567,-1.3327,-1.3066,-1.2842,0.0,0.0,0.0,0.0,0.0,0.0,0.0,0.0,0.0,0.0,0.0,0.0,0.0,0.0,0.0,0.0,0.0,0.0,0.0,0.0,0.0,0.0,0.0,0.0,0.0,0.0,0.0,0.0,0.0,0.0,0.0,0.0,0.0,0.0,0.0,0.0,0.0,0.0,0.0,-1.0281,-1.0495,0.0,0.0,0.0,0.0,0.0,0.0,0.0,0.0,-1.2019,0.0,0.0,0.0,0.0,0.0,0.0,0.0,0.0,0.0,0.0,0.0,0.0,0.0,0.0,0.0,0.0,0.0,0.0,0.0,0.0,0.0,0.0,0.0,0.0,0.0,0.0,0.0,0.0,0.0,0.0,0.0,0.0,0.0,0.0,0.0,0.0,0.0,0.0,0.0,0.0,0.0,0.0,0.0,0.0,0.0,0.0,0.0,0.0,0.0,0.0,0.0,0.0,0.0,0.0,0.0,-1.3347,-1.328,-1.35,-1.4041,-1.3367,-1.32,-1.358,-1.336,-1.3073,0.0,0.0,0.0,0.0,0.0,0.0,0.0,0.0,0.0,0.0,0.0,0.0,0.0,0.0,0.0,0.0,0.0,0.0,0.0,0.0,0.0,0.0,0.0,0.0,0.0,0.0,0.0,0.0,0.0,0.0,0.0,0.0,0.0,0.0,0.0,0.0,0.0,0.0,0.0,0.0,-0.9137,-0.9348,-1.0282,0.0,0.0,0.0,0.0,0.0,0.0,-1.1486,-1.1673,0.0,0.0,0.0,0.0,0.0,0.0,0.0,0.0,0.0,0.0,0.0,0.0,0.0,0.0,0.0,0.0,0.0,0.0,0.0,0.0,0.0,0.0,0.0,0.0,0.0,0.0,0.0,0.0,0.0,0.0,0.0,0.0,0.0,0.0,0.0,0.0,0.0,0.0,0.0,0.0,0.0,0.0,0.0,0.0,0.0,0.0,0.0,0.0,0.0,0.0,0.0,0.0,0.0,0.0,0.0,-1.322,-1.3453,-1.3746,-1.409,-1.3567,-1.34,-1.3673,-1.3447,-1.3153,0.0,0.0,0.0,0.0,0.0,0.0,0.0,0.0,0.0,0.0,0.0,0.0,0.0,0.0,0.0,0.0,0.0,0.0,0.0,0.0,0.0,0.0,0.0,0.0,0.0,0.0,0.0,0.0,0.0,0.0,0.0,0.0,0.0,0.0,0.0,0.0,0.0,0.0,0.0,0.0,0.0,-0.8535,-0.9648,-0.9684,0.0,0.0,0.0,0.0,-1.0995,-1.1127,0.0,0.0,0.0,0.0,0.0,0.0,0.0,0.0,0.0,0.0,0.0,0.0,0.0,0.0,0.0,0.0,0.0,0.0,0.0,0.0,0.0,0.0,0.0,0.0,0.0,0.0,0.0,0.0,0.0,0.0,0.0,0.0,0.0,0.0,0.0,0.0,0.0,0.0,0.0,0.0,0.0,0.0,0.0,0.0,0.0,0.0,0.0,0.0,0.0,0.0,0.0,0.0,0.0,0.0,0.0,0.0,-1.3206,-1.346,-1.3746,-1.4055,-1.3726,-1.3686,-1.4021,-1.3713,-1.3413,0.0,0.0,0.0,0.0,0.0,0.0,0.0,0.0,0.0,0.0,0.0,0.0,0.0,0.0,0.0,0.0,0.0,0.0,0.0,0.0,0.0,0.0,0.0,0.0,0.0,0.0,0.0,0.0,0.0,0.0,0.0,0.0,0.0,0.0,0.0,0.0,0.0,0.0,0.0,0.0,0.0,-0.8613,-0.8741,-0.8928,-0.9099,0.0,0.0,-0.9279,-0.9466,-0.9496,0.0,0.0,0.0,0.0,0.0,0.0,0.0,0.0,0.0,0.0,0.0,0.0,0.0,0.0,0.0,0.0,0.0,0.0,0.0,0.0,0.0,0.0,0.0,0.0,0.0,0.0,0.0,0.0,0.0,0.0,0.0,0.0,0.0,0.0,0.0,0.0,0.0,0.0,0.0,0.0,0.0,0.0,0.0,0.0,0.0,0.0,0.0,0.0,0.0,0.0,0.0,0.0,0.0,0.0,0.0,-1.2962,-1.318,-1.349,-1.3787,-1.4082,-1.3961,-1.3955,-1.4088,-1.3641,-1.3253,0.0,0.0,0.0,0.0,0.0,0.0,0.0,0.0,0.0,0.0,0.0,0.0,0.0,0.0,0.0,0.0,0.0,0.0,0.0,0.0,0.0,0.0,0.0,0.0,0.0,0.0,0.0,0.0,0.0,0.0,0.0,0.0,0.0,0.0,0.0,0.0,0.0,0.0,0.0,0.0,0.0,0.0,-0.8577,-0.8683,0.0,0.0,0.0,-0.909,-0.9197,0.0,0.0,0.0,0.0,0.0,0.0,0.0,0.0,0.0,0.0,0.0,0.0,0.0,0.0,0.0,0.0,0.0,0.0,0.0,0.0,0.0,0.0,0.0,0.0,0.0,0.0,0.0,0.0,0.0,0.0,0.0,0.0,0.0,0.0,0.0,0.0,0.0,0.0,0.0,0.0,0.0,0.0,0.0,0.0,0.0,0.0,0.0,0.0,0.0,0.0,0.0,0.0,0.0,0.0,0.0,0.0,0.0,-1.3094,-1.3395,-1.3644,-1.3891,-1.386,-1.3868,-1.3861,-1.344,0.0,0.0,0.0,0.0,0.0,0.0,0.0,0.0,0.0,0.0,0.0,0.0,0.0,0.0,0.0,0.0,0.0,0.0,0.0,0.0,0.0,0.0,0.0,0.0,0.0,0.0,0.0,-1.1141,0.0,0.0,0.0,0.0,0.0,0.0,0.0,0.0,0.0,0.0,0.0,0.0,0.0,0.0,-0.8256,-0.8575,-0.8613,-0.8737,0.0,0.0,-0.9048,-0.913,-0.9226,-0.9217,0.0,0.0,0.0,0.0,0.0,0.0,0.0,0.0,0.0,0.0,0.0,0.0,0.0,0.0,0.0,0.0,0.0,0.0,0.0,0.0,0.0,0.0,0.0,0.0,0.0,0.0,0.0,0.0,0.0,0.0,0.0,0.0,0.0,0.0,0.0,0.0,0.0,0.0,0.0,0.0,0.0,0.0,0.0,0.0,0.0,0.0,0.0,0.0,0.0,0.0,0.0,0.0,0.0,0.0,0.0,-1.2909,-1.2968,-1.3078,-1.3326,-1.3286,-1.3273,-1.3267,-1.3227,-1.2933,0.0,0.0,0.0,0.0,0.0,0.0,0.0,0.0,0.0,0.0,0.0,0.0,0.0,0.0,0.0,0.0,0.0,0.0,0.0,0.0,0.0,0.0,0.0,0.0,0.0,0.0,0.0,0.0,0.0,0.0,0.0,0.0,0.0,0.0,0.0,0.0,0.0,0.0,0.0,0.0,0.0,-0.858,-0.8612,-0.8694,-0.8844,0.0,-0.8816,-0.8661,-0.8804,-0.8841,-0.8798,-0.8645,0.0,0.0,0.0,0.0,0.0,0.0,0.0,0.0,0.0,0.0,0.0,0.0,0.0,0.0,0.0,0.0,0.0,0.0,0.0,0.0,0.0,0.0,0.0,0.0,0.0,0.0,0.0,0.0,0.0,0.0,0.0,0.0,0.0,0.0,0.0,0.0,0.0,0.0,0.0,0.0,0.0,0.0,0.0,0.0,0.0,0.0,0.0,0.0,0.0,0.0,0.0,0.0,0.0,-1.194,-1.224,-1.255,-1.2822,-1.3046,-1.3141,-1.3206,-1.3206,-1.3019,-1.2683,0.0,0.0,0.0,0.0,0.0,0.0,0.0,0.0,0.0,0.0,0.0,0.0,0.0,0.0,0.0,0.0,0.0,0.0,0.0,0.0,0.0,0.0,0.0,0.0,0.0,0.0,0.0,0.0,-1.0932,-1.0471,-1.0121,0.0,0.0,0.0,0.0,0.0,0.0,0.0,0.0,0.0,0.0,-0.8308,-0.8575,-0.8669,0.0,0.0,-0.8909,-0.8877,-0.8828,-0.8775,-0.8682,-0.8267,-0.8511,0.0,0.0,0.0,0.0,0.0,0.0,0.0,0.0,0.0,0.0,0.0,0.0,0.0,0.0,0.0,0.0,0.0,0.0,0.0,0.0,0.0,0.0,0.0,0.0,0.0,0.0,0.0,0.0,0.0,0.0,0.0,0.0,0.0,0.0,0.0,0.0,0.0,0.0,0.0,0.0,0.0,0.0,0.0,0.0,0.0,0.0,0.0,0.0,0.0,0.0,0.0,0.0,-1.1481,-1.1676,-1.2075,-1.2401,-1.2635,-1.2791,-1.2862,-1.2933,-1.2764,-1.2375,0.0,0.0,0.0,0.0,0.0,0.0,0.0,0.0,0.0,0.0,0.0,0.0,0.0,0.0,0.0,0.0,0.0,0.0,0.0,0.0,0.0,0.0,0.0,0.0,0.0,0.0,0.0,0.0,-1.048,-0.9716,-0.8969,0.0,0.0,0.0,0.0,0.0,0.0,0.0,0.0,0.0,0.0,-0.8288,-0.8597,-0.8645,-0.8702,-0.8877,-0.8922,-0.8909,-0.8832,-0.8775,-0.8597,-0.8246,0.0,0.0,0.0,0.0,0.0,0.0,0.0,0.0,0.0,0.0,0.0,0.0,0.0,0.0,0.0,0.0,0.0,0.0,0.0,0.0,0.0,0.0,0.0,0.0,0.0,0.0,0.0,-1.1409,0.0,0.0,-1.1383,0.0,0.0,0.0,0.0,0.0,0.0,0.0,0.0,0.0,0.0,0.0,0.0,0.0,0.0,0.0,0.0,0.0,0.0,0.0,0.0,0.0,0.0,-1.0883,-1.1391,-1.1428,-1.1646,-1.21,-1.2066,-1.2146,-1.2325,-1.2311,-1.2031,-1.1422,0.0,0.0,0.0,0.0,0.0,0.0,0.0,0.0,0.0,0.0,0.0,0.0,0.0,0.0,0.0,0.0,0.0,0.0,0.0,0.0,0.0,0.0,0.0,0.0,0.0,0.0,-1.0566,-0.9516,-0.867,0.0,0.0,0.0,0.0,0.0,0.0,0.0,0.0,0.0,0.0,-0.8367,-0.8613,-0.8779,-0.8767,-0.8865,-0.9056,-0.8845,-0.8641,-0.88,-0.8682,-0.8595,0.0,0.0,0.0,0.0,0.0,0.0,0.0,0.0,0.0,0.0,0.0,0.0,0.0,0.0,0.0,0.0,0.0,0.0,0.0,0.0,0.0,0.0,0.0,0.0,0.0,0.0,0.0,-1.1703,-1.1402,0.0,0.0,0.0,0.0,0.0,0.0,0.0,0.0,0.0,0.0,0.0,-1.0679,-1.076,0.0,0.0,0.0,0.0,0.0,0.0,0.0,0.0,0.0,0.0,0.0,0.0,-1.0627,-1.0705,-1.1156,-1.1496,-1.1621,-1.1869,-1.1948,-1.1837,-1.1975,-1.1744,-1.1156,0.0,0.0,0.0,0.0,0.0,0.0,0.0,0.0,0.0,0.0,0.0,0.0,0.0,0.0,0.0,0.0,0.0,0.0,0.0,0.0,0.0,0.0,0.0,0.0,0.0,-1.0706,0.0,0.0,0.0,0.0,0.0,0.0,0.0,0.0,0.0,0.0,0.0,-0.7865,-0.7992,-0.8227,-0.845,-0.8669,-0.8653,-0.8714,0.0,0.0,0.0,0.0,0.0,0.0,0.0,0.0,0.0,0.0,0.0,0.0,0.0,0.0,-0.9447,-0.9247,-0.9221,-0.9283,-0.943,0.0,0.0,0.0,0.0,0.0,0.0,0.0,0.0,0.0,0.0,0.0,0.0,0.0,0.0,-1.1703,-1.1402,-1.143,0.0,0.0,0.0,0.0,0.0,0.0,0.0,0.0,-1.0974,-1.1014,-1.0782,-1.0862,-1.0836,0.0,-1.0501,-1.0321,0.0,0.0,0.0,0.0,0.0,0.0,0.0,0.0,-1.0262,-1.0178,-1.0723,-1.1052,-1.113,-1.1384,-1.1475,-1.1477,-1.1547,-1.137,-1.0894,-1.0474,-1.0251,0.0,0.0,0.0,0.0,0.0,0.0,0.0,0.0,0.0,0.0,0.0,0.0,0.0,0.0,0.0,0.0,0.0,0.0,0.0,0.0,0.0,0.0,0.0,-0.9576,0.0,0.0,0.0,0.0,0.0,0.0,0.0,0.0,0.0,-0.7573,-0.7775,-0.7951,-0.8089,-0.8268,-0.843,-0.8596,0.0,0.0,0.0,0.0,0.0,0.0,0.0,-0.8571,-0.8406,-0.842,-0.8359,-0.8122,-0.8514,-0.879,-0.8551,0.0,0.0,-0.9003,-0.898,-0.9036,-0.9192,-0.9003,-0.8814,-0.8846,-0.8598,-0.8306,0.0,0.0,0.0,0.0,0.0,0.0,0.0,0.0,-1.1913,-1.1745,0.0,-1.1415,0.0,0.0,0.0,0.0,-1.0744,-1.0978,0.0,0.0,-1.1254,-1.1279,-1.1051,-1.0816,-1.0707,-1.0653,-1.0394,-1.0148,-0.9901,-0.9843,0.0,0.0,0.0,0.0,0.0,0.0,-0.9874,-0.9919,-1.0172,-1.0408,-1.0581,-1.0616,-1.0811,-1.1176,-1.1076,-1.0888,-1.0613,-1.0579,-1.0245,-0.9506,-1.0291,0.0,0.0,0.0,0.0,0.0,0.0,0.0,0.0,0.0,0.0,0.0,0.0,0.0,0.0,0.0,0.0,0.0,0.0,0.0,0.0,-0.9164,0.0,0.0,0.0,0.0,0.0,0.0,0.0,0.0,0.0,0.0,-0.7771,-0.7902,-0.8077,-0.8243,0.0,0.0,0.0,0.0,-0.8616,-0.8616,-0.8616,-0.8616,-0.8616,-0.8616,-0.8608,-0.8596,0.0,0.0,-0.8308,-0.8434,-0.8547,-0.8325,-0.8473,-0.8604,-0.8588,-0.8613,-0.8777,-0.9157,-0.8884,-0.8794,-0.9118,-0.8825,-0.8345,-1.1781,0.0,0.0,0.0,0.0,-1.2084,-1.21,-1.2158,-1.1957,-1.1852,-1.1779,-1.1772,0.0,0.0,0.0,0.0,0.0,0.0,-1.082,-1.074,-1.0851,-1.0767,-1.0521,-1.0442,-1.0406,-1.04,-1.0142,-0.9979,-0.9895,-0.9675,-0.958,-0.9574,0.0,0.0,0.0,0.0,-0.9874,-0.9919,-1.0166,-1.0333,-1.0396,-1.0673,-1.0893,-1.1056,-1.0842,-1.068,-1.0593,-1.0354,-1.0265,-1.0272,-1.008,0.0,0.0,0.0,0.0,0.0,0.0,0.0,0.0,0.0,0.0,0.0,0.0,0.0,0.0,0.0,0.0,0.0,0.0,0.0,-0.8641,-0.7712,-0.7061,0.0,0.0,0.0,0.0,0.0,0.0,0.0,0.0,0.0,-0.7775,-0.7906,-0.7988,0.0,0.0,-0.8563,-0.8385,-0.8522,-0.8616,-0.8616,-0.8616,0.0,-0.8616,-0.8616,-0.8567,-0.839,-0.8369,-0.8308,-0.8126,-0.8396,-0.8551,-0.8363,-0.8333,-0.8412,-0.842,-0.8529,-0.8626,-0.8767,-0.8694,-0.863,-0.8767,-0.8554,-0.8193,-1.0913,-1.1403,-1.204,-1.2305,-1.2291,-1.2118,-1.2144,-1.2291,-1.2111,-1.208,-1.2074,-1.2074,-1.1682,-1.1055,-1.0758,0.0,0.0,0.0,-1.0533,-1.0471,-1.0531,-1.0442,-1.0304,-1.0333,-1.0238,-1.0136,-0.9979,-0.982,-0.9712,-0.9324,-0.9113,-0.9119,0.0,0.0,-0.949,-0.9672,-0.9751,-0.9757,-0.9907,-1.0019,-1.0126,-1.0489,-1.0672,-1.0724,-1.0655,-1.0586,-1.0586,-1.0394,-1.0321,-1.0412,-1.0191,-1.0064,0.0,0.0,0.0,0.0,0.0,0.0,0.0,0.0,0.0,0.0,0.0,-1.087,-1.0787,0.0,0.0,0.0,-0.893,-0.8165,-0.7371,-0.6929,0.0,0.0,0.0,0.0,0.0,0.0,0.0,-0.7464,-0.7518,-0.7563,-0.7677,-0.7845,-0.7898,-0.7906,-0.8184,-0.8308,-0.8195,0.0,-0.8349,-0.8349,-0.8345,-0.8349,-0.8345,-0.8349,-0.8308,-0.8199,-0.8182,-0.8146,-0.8044,-0.8207,-0.83,-0.8215,-0.8182,-0.8178,-0.8178,-0.8276,-0.8345,-0.8349,-0.8349,-0.8345,-0.8349,-0.826,-0.7922,-0.9777,-0.9927,-1.1434,-1.2114,-1.2224,-1.2268,-1.2305,-1.2305,-1.2278,-1.2265,-1.2271,-1.2245,-1.1817,-1.1131,-1.0354,0.0,-1.0361,-1.0274,-1.0236,-1.0262,-1.0227,-1.0181,-1.0163,-1.0088,-0.9929,-0.9704,-0.9704,-0.9586,-0.9297,-0.8689,-0.8393,-0.8458,-0.9017,-0.9382,-0.942,-0.9406,-0.9438,-0.9484,-0.9444,-0.9566,-0.9804,-1.0117,-1.0276,-1.0276,-1.0498,-1.0586,-1.0586,-1.0586,-1.0466,-1.018,-1.0394,-1.0191,-0.9391,0.0,0.0,0.0,0.0,0.0,0.0,0.0,0.0,0.0,0.0,0.0,0.0,0.0,0.0,0.0,-0.8091,0.0,-0.6744,-0.6731,0.0,0.0,0.0,-0.7077,-0.7191,-0.7244,-0.7309,-0.7464,0.0,0.0,-0.7518,-0.7669,-0.7797,-0.7947,-0.7996,-0.8008,-0.7996,-0.8012,-0.8012,-0.8036,-0.802,-0.8016,-0.8048,-0.8024,-0.8004,-0.8,-0.7992,-0.8024,-0.7963,-0.8053,-0.8016,-0.7996,-0.7992,-0.7992,-0.7992,-0.7988,-0.7971,-0.7971,-0.8008,-0.8024,-0.8036,-0.7934,-0.7499,-0.8609,-0.8832,-0.982,-1.0689,-1.1446,-1.204,-1.2305,-1.2285,-1.2064,-1.2007,-1.1993,-1.173,-1.1327,-1.0776,-1.0232,-1.0102,-1.0234,-1.0201,-1.0104,-0.9958,-0.944,-0.9136,-0.8893,-0.836,-0.807,-0.7992,-0.7987,-0.7957,-0.7879,-0.7744,-0.7647,-0.7679,-0.7842,-0.8199,-0.8727,-0.8838,-0.9079,-0.9484,-0.9112,-0.9178,-0.9778,-0.9989,-1.0142,-1.0308,-1.0491,-1.0586,-1.0586,-1.0586,-1.0559,-1.0486,-1.0307,-1.0227,-1.0271,-0.971,0.0,0.0,0.0,0.0,0.0,0.0,0.0,0.0,0.0,-0.9471,-0.8906,0.0,-0.7717,0.0,-0.7162,-0.6722,-0.6714,-0.6722,0.0,0.0,-0.7159,-0.7228,-0.7403,-0.7419,-0.7439,-0.7476,-0.7518,-0.7518,-0.7518,-0.7521,-0.7561,-0.7606,-0.7845,-0.7963,-0.7845,-0.7935,-0.8012,-0.8004,-0.7996,-0.8012,-0.7992,-0.7902,-0.7821,-0.7861,-0.7982,-0.7972,-0.7673,-0.7966,-0.8143,-0.7934,-0.7861,-0.7821,-0.7861,-0.7707,-0.7622,-0.7626,-0.7821,-0.8012,-0.7967,-0.7537,-0.6881,-0.7625,-0.7812,-0.8609,-0.9291,-0.9976,-1.1254,-1.1894,-1.2098,-1.1973,-1.1832,-1.165,-1.1261,-1.0908,-1.058,-1.0109,-0.9776,-0.9539,-0.9485,-0.9228,-0.8755,-0.8419,-0.8154,-0.8004,-0.7582,-0.7386,-0.7419,-0.7744,-0.7902,-0.7869,-0.7902,-0.7902,-0.7874,-0.7869,-0.8096,-0.8463,-0.8356,-0.8407,-0.8684,-0.8479,-0.8499,-0.8829,-0.9075,-0.9402,-0.9817,-0.9722,-0.9945,-1.0555,-1.0009,-0.9888,-1.0336,-0.9925,-0.9823,-1.016,-0.9706,-0.9512,0.0,0.0,0.0,0.0,0.0,0.0,0.0,0.0,0.0,0.0,0.0,-0.7007,-0.6994,-0.6646,-0.6489,-0.6672,-0.6718,-0.679,-0.7074,-0.7102,-0.7143,-0.7273,-0.7282,-0.7282,-0.7282,-0.7322,-0.737,-0.737,-0.7435,-0.7518,-0.7518,-0.7655,-0.7744,-0.7702,-0.772,-0.7776,-0.7776,-0.7776,-0.7776,-0.7776,-0.7699,-0.7673,-0.7673,-0.7756,-0.7754,-0.7543,-0.7721,-0.7867,-0.7698,-0.7673,-0.7673,-0.7669,-0.7561,-0.7522,-0.7508,-0.7638,-0.776,-0.7772,-0.7224,-0.653,-0.6822,-0.6938,-0.7625,-0.808,-0.8456,-1.0088,-1.1083,-1.166,-1.1588,-1.1414,-1.1093,-1.0571,-1.0271,-1.0232,-0.9709,-0.9145,-0.8544,-0.842,-0.8004,-0.7386,-0.7321,-0.7256,-0.7256,-0.7195,-0.7125,-0.7162,-0.7772,-0.8129,-0.8096,-0.8102,-0.8102,-0.8102,-0.8096,-0.8129,-0.8074,-0.765,-0.7516,-0.7681,-0.787,-0.7931,-0.7809,-0.8199,-0.8721,-0.9306,-0.8947,-0.9294,-1.0466,-0.9396,-0.9225,-1.0071,-0.9488,-0.929,-0.9659,-0.9548,-0.948,0.0,-0.9408,0.0,0.0,0.0,0.0,0.0,0.0,0.0,0.0,-0.7172,-0.6908,-0.6437,-0.642,-0.6489,-0.6694,-0.671,-0.6788,-0.6963,-0.6984,-0.6984,-0.6988,-0.6984,-0.6984,-0.6984,-0.7094,-0.7155,-0.7196,-0.7326,-0.7411,-0.7433,-0.7437,-0.7445,-0.7453,-0.7464,-0.7547,-0.7518,-0.7518,-0.7525,-0.7516,-0.7535,-0.7492,-0.7526,-0.7573,-0.7518,-0.7522,-0.7531,-0.7526,-0.7456,-0.7452,-0.7439,-0.7465,-0.7445,-0.7445,-0.7429,-0.7423,-0.7472,-0.7466,-0.6929,-0.6289,-0.6525,-0.6676,-0.6826,-0.7357,-0.8194,-0.8685,-0.9454,-1.025,-0.9862,-0.9713,-0.9616,-0.8668,-0.8549,-0.8971,-0.8214,-0.7782,-0.7647,-0.7609,-0.7544,-0.7386,-0.6863,-0.6593,-0.6564,-0.6046,-0.5789,-0.5785,-0.5914,-0.5984,-0.5984,-0.5984,-0.5984,-0.5984,-0.598,-0.5984,-0.5991,0.0,0.0,0.0,-0.8151,-0.837,-0.8393,-0.9113,-0.9574,-0.9702,-0.9888,0.0,-1.0333,-1.0263,-1.0307,-1.0481,-0.9838,0.0,0.0,0.0,0.0,0.0,0.0,0.0,0.0,0.0,0.0,0.0,-0.6682,-0.6344,-0.6434,-0.652,-0.651,-0.6416,-0.642,-0.6489,-0.669,-0.6722,-0.6796,-0.6963,-0.6984,-0.6984,-0.6984,-0.6984,-0.6984,-0.6988,-0.7016,-0.7041,-0.7045,-0.7073,-0.7094,-0.711,-0.7094,-0.709,-0.7098,-0.7335,-0.7506,-0.7518,-0.751,-0.7518,-0.7518,-0.7518,-0.7518,-0.7518,-0.7642,-0.768,-0.7561,-0.7642,-0.7622,-0.7355,-0.7277,-0.7228,-0.7131,-0.709,-0.711,-0.7094,-0.7212,-0.7313,-0.7452,-0.6588,-0.5741,-0.6377,-0.6451,-0.6447,-0.6791,0.0,-0.7374,-0.771,-0.8333,-0.8811,-0.8824,-0.849,-0.8027,-0.7929,-0.8027,-0.7707,-0.7316,-0.6896,-0.6892,-0.6728,-0.6375,-0.605,-0.5914,-0.5881,-0.5554,-0.5395,-0.5428,-0.5719,-0.5914,-0.5914,-0.621,-0.6375,-0.6375,-0.6375,-0.6375,-0.6375,-0.6057,-0.6129,-0.6571,-0.675,-0.6767,-0.6742,-0.7238,-0.7679,-0.8011,-0.8011,0.0,0.0,0.0,0.0,0.0,0.0,0.0,0.0,0.0,0.0,-0.7862,-0.7754,-0.749,-0.7133,-0.6851,-0.6611,-0.6409,-0.6175,-0.6086,-0.6203,-0.6347,-0.642,-0.642,-0.642,-0.6453,-0.6538,-0.6554,-0.6591,-0.6676,-0.6688,-0.6692,-0.6722,-0.6688,-0.6688,-0.6735,-0.6765,-0.6853,-0.6861,-0.6943,-0.6984,-0.6984,-0.6984,-0.698,-0.7,-0.7139,-0.7282,-0.7342,-0.7439,-0.7518,-0.7518,-0.7518,-0.7518,-0.7518,-0.7599,-0.7599,-0.7518,-0.7599,-0.755,-0.7269,-0.7187,-0.7167,-0.7033,-0.6984,-0.6984,-0.6992,-0.7061,-0.711,-0.7175,-0.6341,-0.5559,-0.63,-0.63,-0.63,-0.6412,-0.6514,-0.6389,-0.6367,-0.6566,0.0,0.0,0.0,-0.7544,-0.7447,-0.7256,-0.7381,-0.7022,-0.6272,-0.6334,-0.6042,-0.5395,-0.5395,-0.5395,-0.5395,-0.5395,-0.5395,-0.5428,-0.598,-0.6239,-0.6239,-0.6765,-0.706,-0.7027,-0.706,-0.7009,-0.6964,-0.6311,-0.5745,-0.5298,-0.5272,-0.522,-0.5104,-0.5366,-0.5777,-0.631,-0.6113,-0.6503,-0.7567,-0.6743,-0.6638,-0.7448,-0.6893,-0.6807,-0.7351,-0.7294,-0.7333,-0.7557,-0.7578,-0.7245,-0.6516,-0.6575,-0.6388,-0.5739,-0.6037,-0.6224,-0.6229,-0.6331,-0.642,-0.642,-0.642,-0.642,-0.642,-0.642,-0.642,-0.642,-0.642,-0.6424,-0.6424,-0.642,-0.6436,-0.6436,-0.655,-0.6635,-0.6647,-0.6757,-0.6894,-0.6886,-0.6861,-0.689,-0.6902,-0.6955,-0.7086,-0.7216,-0.7305,-0.7378,-0.7423,-0.7427,-0.7435,-0.7423,-0.7465,-0.7473,-0.7473,-0.7449,-0.7359,-0.7131,-0.7131,-0.7041,-0.6931,-0.6865,-0.6894,-0.689,-0.6918,-0.6939,-0.688,-0.6219,-0.5571,-0.6296,-0.63,-0.63,-0.63,-0.6328,-0.6314,-0.6208,-0.6031,-0.6244,-0.6531,-0.6806,-0.6083,-0.6046,-0.6531,-0.6564,-0.6207,-0.5587,-0.6141,-0.6042,-0.5428,-0.5395,-0.5395,-0.5395,-0.5395,-0.5395,-0.5395,-0.5491,-0.5557,-0.5557,-0.5653,-0.5657,-0.569,-0.569,-0.5618,-0.5414,-0.5206,-0.4985,-0.4819,-0.5517,-0.587,-0.5876,-0.6434,-0.6793,-0.6908,-0.6972,-0.7136,-0.7339,-0.7383,-0.7486,-0.7661,-0.7146,-0.6884,-0.6968,-0.6458,-0.6083,-0.5955,-0.5938,-0.58,-0.5543,-0.5693,-0.5889,-0.6113,-0.6298,-0.6379,-0.6379,-0.64,-0.642,-0.642,-0.642,-0.642,-0.642,-0.642,-0.642,-0.642,-0.642,-0.642,-0.642,-0.642,-0.642,-0.642,-0.6436,-0.6465,-0.6477,-0.6501,-0.653,-0.6509,-0.655,-0.6513,-0.6587,-0.6792,-0.7045,-0.7155,-0.7143,-0.7106,-0.7257,-0.7269,-0.7293,-0.7261,-0.743,-0.7484,-0.7318,-0.729,-0.7169,-0.6849,-0.681,-0.6725,-0.6554,-0.6493,-0.6526,-0.6542,-0.6631,-0.6743,-0.6751,-0.619,-0.5652,-0.6252,-0.6139,-0.6135,-0.6135,-0.6125,-0.604,-0.5874,-0.564,-0.5629,-0.5762,-0.5958,-0.5561,-0.5557,-0.5848,-0.5848,-0.5686,-0.5428,-0.5719,-0.5686,-0.5428,-0.5395,-0.5395,-0.5395,-0.5395,-0.5395,-0.5395,-0.5395,-0.5395,-0.5395,-0.5395,-0.5395,-0.5395,-0.5395,-0.5279,-0.5026,-0.4918,-0.4802,-0.4604,-0.5001,-0.5182,-0.521,-0.549,-0.5633,-0.5657,-0.5808,-0.5927,-0.598,-0.6179,-0.6317,-0.6379,-0.616,-0.6017,-0.6021,-0.5739,-0.5531,-0.545,-0.5442,-0.545,-0.5466,-0.5661,-0.5872,-0.6186,-0.6253,-0.6314,-0.6416,-0.642,-0.642,-0.642,-0.642,-0.642,-0.642,-0.642,-0.642,-0.642,-0.642,-0.642,-0.642,-0.642,-0.642,-0.642,-0.642,-0.642,-0.642,-0.642,-0.642,-0.642,-0.642,-0.6453,-0.6538,-0.6615,-0.6765,-0.7053,-0.72,-0.7269,-0.7346,-0.7362,-0.7366,-0.7366,-0.7522,-0.7555,-0.7401,-0.7382,-0.7191,-0.6892,-0.6761,-0.6619,-0.6457,-0.642,-0.642,-0.6424,-0.6469,-0.653,-0.6467,-0.5895,-0.5201,-0.6091,-0.5942,-0.5942,-0.5962,-0.5882,-0.5803,-0.5638,-0.5402,-0.5395,-0.5395,-0.5395,-0.5395,-0.5395,-0.5428,-0.5557,-0.5557,-0.5428,-0.5557,-0.5521,-0.5395,-0.5395,-0.5395,-0.5395,-0.5395,-0.5395,-0.5395,-0.5395,-0.5395,-0.5395,-0.5395,-0.5395,-0.5395,-0.5395,-0.5216,-0.4925,-0.4918,-0.4769,-0.4511,-0.4491,-0.4491,-0.4491,-0.4491,-0.4491,-0.4519,-0.4632,-0.4743,-0.4846,-0.5014,-0.5128,-0.5242,-0.5274,-0.5301,-0.5301,-0.5301,-0.5301,-0.5301,-0.5301,-0.5401,-0.5575,-0.5783,-0.5992,-0.6191,-0.6216,-0.6298,-0.6424,-0.6416,-0.642,-0.642,-0.642,-0.642,-0.642,-0.642,-0.642,-0.642,-0.642,-0.642,-0.642,-0.642,-0.642,-0.642,-0.642,-0.642,-0.642,-0.642,-0.642,-0.642,-0.6453,-0.6534,-0.6603,-0.6554,-0.6702,-0.6886,-0.7171,-0.7297,-0.7391,-0.7487,-0.7458,-0.7454,-0.7647,-0.7653,-0.7561,-0.7456,-0.73,-0.6975,-0.6789,-0.6634,-0.6453,-0.642,-0.642,-0.642,-0.6436,-0.6432,-0.6403,-0.573,-0.4852,-0.5837,-0.5823,-0.5827,-0.5745,-0.564,-0.562,-0.5552,-0.5405,-0.5395,-0.5395,-0.5395,-0.5395,-0.5395,-0.5491,-0.6017,-0.5954,-0.5462,-0.6013,-0.598,-0.5425,-0.5395,-0.5395,-0.5395,-0.5395,-0.5395,-0.5395,-0.5395,-0.5395,-0.5395,-0.5395,-0.5395,-0.5395,-0.5395,-0.5213,-0.4955,-0.4918,-0.4769,-0.4498,-0.4491,-0.4491,-0.4491,-0.4491,-0.4491,-0.4491,-0.4632,-0.4691,-0.477,-0.4963,-0.5101,-0.5128,-0.5242,-0.5301,-0.5301,-0.5301,-0.5301,-0.5301,-0.5301,-0.5374,-0.5571,-0.5783,-0.6,-0.6199,-0.6331,-0.6457,-0.6642,-0.6515,-0.642,-0.642,-0.642,-0.642,-0.642,-0.642,-0.642,-0.642,-0.6416,-0.642,-0.642,-0.642,-0.642,-0.642,-0.642,-0.642,-0.642,-0.642,-0.642,-0.6448,-0.6534,-0.6595,-0.6566,-0.6706,-0.6816,-0.6788,-0.6777,-0.6932,-0.7171,-0.7397,-0.7451,-0.734,-0.7592,-0.7722,-0.7626,-0.7419,-0.7169,-0.7049,-0.6796,-0.6647,-0.6473,-0.642,-0.642,-0.642,-0.642,-0.642,-0.6354,-0.5933,-0.5222,-0.58,-0.5796,-0.5711,-0.5589,-0.5508,-0.5552,-0.5501,-0.5399,-0.5395,-0.5395,-0.5395,-0.5395,-0.5395,-0.5435,-0.5787,-0.575,-0.5439,-0.5753,-0.5743,-0.5402,-0.5395,-0.5395,-0.5395,-0.5395,-0.5395,-0.5395,-0.5395,-0.5395,-0.5395,-0.5395,-0.5395,-0.5395,-0.5395,-0.5213,-0.4942,-0.4918,-0.4769,-0.4501,-0.4491,-0.4491,-0.4491,-0.4491,-0.4546,-0.4605,-0.466,-0.4774,-0.4936,-0.5042,-0.5128,-0.5215,-0.5274,-0.5301,-0.5301,-0.5301,-0.5301,-0.5305,-0.5398,-0.5506,-0.5612,-0.5906,-0.6102,-0.6207,-0.6314,-0.6482,-0.6675,-0.6613,-0.6613,-0.6651,-0.6519,-0.642,-0.642,-0.642,-0.642,-0.642,-0.6482,-0.6515,-0.642,-0.6519,-0.6544,-0.6453,-0.642,-0.642,-0.642,-0.642,-0.6465,-0.6534,-0.6583,-0.6574,-0.6692,-0.6726,-0.6696,-0.6837,-0.6761,-0.6846,-0.7143,-0.7472,-0.7571,-0.7595,-0.787,-0.8076,-0.7834,-0.7759,-0.7555,-0.7166,-0.6913,-0.6712,-0.6453,-0.642,-0.642,-0.642,-0.6395,-0.6411,-0.6524,-0.6135,-0.5589,-0.5715,-0.5667,-0.5566,-0.5498,-0.5405,-0.5511,-0.5498,-0.5402,-0.5395,-0.5395,-0.5395,-0.5395,-0.5395,-0.5409,-0.5515,-0.5498,-0.5419,-0.5511,-0.5504,-0.5402,-0.5395,-0.5395,-0.5395,-0.5395,-0.5395,-0.5395,-0.5395,-0.5395,-0.5395,-0.5395,-0.5395,-0.5395,-0.5395,-0.5209,-0.4948,-0.4918,-0.4765,-0.4518,-0.4491,-0.4491,-0.4491,-0.4546,-0.4605,-0.4688,-0.4774,-0.4912,-0.5073,-0.5128,-0.5187,-0.5274,-0.5301,-0.5301,-0.5301,-0.5301,-0.5301,-0.5309,-0.5438,-0.551,-0.5519,-0.5876,-0.6106,-0.6122,-0.6282,-0.6482,-0.6642,-0.6708,-0.6806,-0.6942,-0.6778,-0.6618,-0.6515,-0.6515,-0.6515,-0.6515,-0.6609,-0.6613,-0.6449,-0.6548,-0.6548,-0.642,-0.642,-0.642,-0.642,-0.6424,-0.6444,-0.6623,-0.6623,-0.6631,-0.6894,-0.678,-0.6672,-0.6878,-0.6822,-0.6888,-0.7135,-0.7497,-0.7713,-0.7787,-0.8001,-0.8203,-0.7996,-0.7904,-0.7707,-0.7082,-0.6979,-0.6782,-0.6486,-0.642,-0.6395,-0.6424,-0.6399,-0.6456,-0.6635,-0.6333,-0.6226,-0.5545,-0.5429,-0.5409,-0.5405,-0.5395,-0.5409,-0.5405,-0.5395,-0.5395,-0.5395,-0.5395,-0.5395,-0.5395,-0.5395,-0.5416,-0.5405,-0.5399,-0.5402,-0.5395,-0.5382,-0.5382,-0.5392,-0.5395,-0.5395,-0.5395,-0.5395,-0.5395,-0.5395,-0.5395,-0.5395,-0.5395,-0.5395,-0.5385,-0.5238,-0.4955,-0.4908,-0.4762,-0.4522,-0.4491,-0.4491,-0.4519,-0.4632,-0.4715,-0.4743,-0.4959,-0.5069,-0.5101,-0.5215,-0.5301,-0.5301,-0.5301,-0.5301,-0.5301,-0.5301,-0.5301,-0.5305,-0.5313,-0.5321,-0.5369,-0.5722,-0.5951,-0.5988,-0.6233,-0.6482,-0.6675,-0.6708,-0.6839,-0.7134,-0.7106,-0.7012,-0.6881,-0.6876,-0.6843,-0.6708,-0.6708,-0.6646,-0.6449,-0.6482,-0.642,-0.642,-0.642,-0.642,-0.642,-0.642,-0.6509,-0.6664,-0.6845,-0.6951,-0.6951,-0.6951,-0.6857,-0.6798,-0.6838,-0.6918,-0.7043,-0.7479,-0.7677,-0.7739,-0.7974,-0.819,-0.7865,-0.7573,-0.7307,-0.7045,-0.6909,-0.6712,-0.6486,-0.6391,-0.6403,-0.6407,-0.6457,-0.6534,-0.6759,-0.6704,-0.6641,-0.5501,-0.5399,-0.5395,-0.5395,-0.5395,-0.5395,-0.5395,-0.5395,-0.5395,-0.5395,-0.5395,-0.5395,-0.5395,-0.5395,-0.5395,-0.5395,-0.5385,-0.526,-0.5213,-0.5216,-0.5213,-0.5213,-0.5223,-0.5344,-0.5395,-0.5395,-0.5395,-0.5395,-0.5395,-0.5395,-0.5395,-0.5375,-0.526,-0.5111,-0.4935,-0.4819,-0.4667,-0.4543,-0.4574,-0.4574,-0.4546,-0.4798,-0.4908,-0.4846,-0.5014,-0.5128,-0.5215,-0.5274,-0.5301,-0.5301,-0.5301,-0.5301,-0.5301,-0.5301,-0.5301,-0.5301,-0.5301,-0.5345,-0.5498,-0.575,-0.5971,-0.609,-0.6274,-0.6482,-0.6642,-0.6708,-0.6839,-0.7106,-0.7077,-0.7012,-0.7138,-0.7204,-0.7199,-0.7068,-0.7101,-0.7036,-0.6712,-0.6646,-0.6646,-0.6453,-0.642,-0.642,-0.6453,-0.6522,-0.6615,-0.6676,-0.678,-0.6869,-0.6922,-0.6808,-0.6652,-0.6698,-0.676,-0.6798,-0.6928,-0.7434,-0.7784,-0.7894,-0.8064,-0.8097,-0.7918,-0.7774,-0.7531,-0.6979,-0.6778,-0.6738,-0.6564,-0.653,-0.6488,-0.6432,-0.6477,-0.6578,-0.6861,-0.6837,-0.6886,-0.5491,-0.5402,-0.5395,-0.5395,-0.5395,-0.5395,-0.5395,-0.5395,-0.5395,-0.5395,-0.5395,-0.5395,-0.5395,-0.5385,-0.5344,-0.5318,-0.5375,-0.5203,-0.51,-0.5096,-0.5052,-0.5056,-0.511,-0.5237,-0.5347,-0.5388,-0.5395,-0.5395,-0.5395,-0.5395,-0.5395,-0.5385,-0.5174,-0.5026,-0.4914,-0.4769,-0.4644,-0.4605,-0.466,-0.4688,-0.4656,-0.4932,-0.5069,-0.4987,-0.5101,-0.5215,-0.5301,-0.5301,-0.5301,-0.5301,-0.5301,-0.5301,-0.5301,-0.5301,-0.5301,-0.5301,-0.5301,-0.5401,-0.5604,-0.5787,-0.5992,-0.6195,-0.631,-0.6482,-0.6613,-0.6679,-0.6839,-0.7007,-0.7073,-0.7077,-0.7265,-0.7461,-0.7466,-0.7302,-0.7363,-0.7326,-0.6942,-0.6881,-0.6716,-0.6486,-0.642,-0.6444,-0.6509,-0.6619,-0.6737,-0.6838,-0.6859,-0.692,-0.7004,-0.6837,-0.6591,-0.6694,-0.6773,-0.6783,-0.6867,-0.7235,-0.7592,-0.7754,-0.7923,-0.7984,-0.781,-0.7751,-0.7498,-0.6975,-0.6759,-0.6731,-0.6684,-0.6623,-0.6587,-0.6509,-0.6493,-0.6554,-0.678,-0.6935,-0.6955,-0.5399,-0.5395,-0.5395,-0.5395,-0.5395,-0.5395,-0.5395,-0.5395,-0.5395,-0.5395,-0.5395,-0.5395,-0.5395,-0.5368,-0.524,-0.5233,-0.5351,-0.5199,-0.509,-0.5066,-0.4958,-0.4972,-0.5076,-0.511,-0.5233,-0.5392,-0.5395,-0.5395,-0.5395,-0.5395,-0.5395,-0.5365,-0.5189,-0.5009,-0.4918,-0.4755,-0.4695,-0.4695,-0.4719,-0.477,-0.4901,-0.5042,-0.5101,-0.5101,-0.5215,-0.5301,-0.5301,-0.5301,-0.5301,-0.5301,-0.5301,-0.5301,-0.5301,-0.5301,-0.5301,-0.5301,-0.5301,-0.5409,-0.5575,-0.5812,-0.5992,-0.6167,-0.6314,-0.642,-0.6453,-0.6581,-0.6741,-0.6909,-0.704,-0.7199,-0.7363,-0.7526,-0.7503,-0.7265,-0.7396,-0.7428,-0.7204,-0.7007,-0.6782,-0.6486,-0.6424,-0.6497,-0.6627,-0.6708,-0.6822,-0.7017,-0.7094,-0.7155,-0.7151,-0.6972,-0.6886,-0.6798,-0.6793,-0.6864,-0.6915,-0.6992,-0.7273,-0.7489,-0.7702,-0.7784,-0.7371,-0.7204,-0.7073,-0.6655,-0.666,-0.663,-0.6617,-0.6583,-0.6591,-0.6538,-0.653,-0.6538,-0.668,-0.6865,-0.6943,-0.5395,-0.5395,-0.5395,-0.5395,-0.5395,-0.5395,-0.5395,-0.5395,-0.5395,-0.5395,-0.5395,-0.5395,-0.5395,-0.5385,-0.5341,-0.5347,-0.5382,-0.5203,-0.5046,-0.4965,-0.4908,-0.4908,-0.4965,-0.5056,-0.5213,-0.5371,-0.5395,-0.5395,-0.5395,-0.5395,-0.5395,-0.5351,-0.5111,-0.4941,-0.4908,-0.476,-0.4702,-0.4726,-0.4881,-0.4959,-0.4928,-0.5128,-0.5187,-0.5128,-0.5215,-0.5301,-0.5301,-0.5301,-0.5301,-0.5301,-0.5301,-0.5301,-0.5301,-0.5301,-0.5301,-0.5301,-0.5301,-0.5401,-0.5571,-0.5812,-0.5992,-0.6167,-0.6319,-0.6408,-0.642,-0.6453,-0.6581,-0.6708,-0.6712,-0.6708,-0.6905,-0.7073,-0.7138,-0.7204,-0.7466,-0.7531,-0.7232,-0.7007,-0.6749,-0.6486,-0.642,-0.6453,-0.6542,-0.668,-0.6906,-0.6928,-0.7062,-0.7195,-0.7155,-0.7001,-0.6878,-0.6861,-0.6902,-0.6941,-0.7005,-0.7085,-0.7272,-0.7339,-0.7453,-0.7472,-0.7063,-0.6815,-0.6651,-0.6602,-0.6571,-0.6578,-0.6562,-0.6562,-0.6587,-0.657,-0.655,-0.6595,-0.6672,-0.6796,-0.6902,-0.5395,-0.5395,-0.5395,-0.5395,-0.5395,-0.5395,-0.5395,-0.5395,-0.5395,-0.5395,-0.5395,-0.5395,-0.5395,-0.5395,-0.5395,-0.5395,-0.5385,-0.5254,-0.5138,-0.4989,-0.4867,-0.4863,-0.4911,-0.5131,-0.5257,-0.5378,-0.5395,-0.5395,-0.5395,-0.5395,-0.5395,-0.5347,-0.5118,-0.4941,-0.4904,-0.4825,-0.4759,-0.4809,-0.4987,-0.5101,-0.5101,-0.5215,-0.5274,-0.5215,-0.5242,-0.5301,-0.5301,-0.5301,-0.5301,-0.5301,-0.5301,-0.5301,-0.5301,-0.5301,-0.5301,-0.5301,-0.5317,-0.543,-0.5685,-0.5827,-0.6002,-0.6209,-0.6355,-0.642,-0.642,-0.642,-0.6482,-0.6548,-0.6482,-0.6449,-0.6576,-0.6745,-0.6843,-0.6876,-0.7368,-0.7503,-0.7232,-0.697,-0.6759,-0.6552,-0.6469,-0.6484,-0.6686,-0.679,-0.7024,-0.6997,-0.7175,-0.7273,-0.7179,-0.7009,-0.6997,-0.7015,-0.7018,-0.7068,-0.7129,-0.7216,-0.732,-0.7246,-0.717,-0.711,-0.6877,-0.6688,-0.6556,-0.6601,-0.6615,-0.6735,-0.6739,-0.6664,-0.666,-0.6619,-0.6554,-0.6538,-0.6578,-0.68,-0.6902,-0.5405,-0.5395,-0.5395,-0.5395,-0.5395,-0.5395,-0.5395,-0.5395,-0.5395,-0.5395,-0.5395,-0.5395,-0.5395,-0.5395,-0.5395,-0.5395,-0.5392,-0.5382,-0.5254,-0.5049,-0.4904,-0.4833,-0.4914,-0.5203,-0.5371,-0.5392,-0.5395,-0.5395,-0.5395,-0.5395,-0.5388,-0.5344,-0.5159,-0.5002,-0.4907,-0.4895,-0.4893,-0.4947,-0.5042,-0.516,-0.527,-0.5301,-0.5301,-0.5301,-0.5301,-0.5301,-0.5301,-0.5301,-0.5301,-0.5301,-0.5301,-0.5301,-0.5301,-0.5301,-0.5301,-0.5301,-0.5301,-0.5494,-0.5774,-0.5868,-0.6022,-0.6306,-0.6384,-0.642,-0.642,-0.642,-0.642,-0.6453,-0.642,-0.6416,-0.6453,-0.6613,-0.6642,-0.6581,-0.7143,-0.74,-0.7199,-0.6905,-0.6751,-0.6671,-0.6566,-0.6603,-0.7005,-0.7025,-0.718,-0.7339,-0.7407,-0.7378,-0.7297,-0.7188,-0.7127,-0.7094,-0.7128,-0.712,-0.7143,-0.7183,-0.7292,-0.7341,-0.7171,-0.6992,-0.6839,-0.6726,-0.6576,-0.6645,-0.6721,-0.6837,-0.6812,-0.6696,-0.6639,-0.6587,-0.6518,-0.6448,-0.6538,-0.6771,-0.6926,-0.5498,-0.5399,-0.5395,-0.5395,-0.5395,-0.5395,-0.5395,-0.5395,-0.5395,-0.5395,-0.5395,-0.5395,-0.5395,-0.5395,-0.5395,-0.5395,-0.5395,-0.5395,-0.531,-0.5106,-0.5032,-0.4935,-0.4989,-0.5248,-0.5395,-0.5395,-0.5395,-0.5395,-0.5395,-0.5385,-0.5334,-0.5186,-0.5057,-0.4938,-0.4902,-0.4926,-0.4957,-0.505,-0.5187,-0.5274,-0.5301,-0.5301,-0.5301,-0.5301,-0.5301,-0.5301,-0.5301,-0.5301,-0.5301,-0.5301,-0.5301,-0.5301,-0.5301,-0.5301,-0.5301,-0.5301,-0.5313,-0.5422,-0.5661,-0.5823,-0.6029,-0.6229,-0.6355,-0.642,-0.642,-0.642,-0.642,-0.642,-0.642,-0.642,-0.642,-0.6581,-0.6679,-0.6782,-0.6988,-0.7058,-0.6922,-0.6852,-0.6822,-0.6712,-0.6643,-0.6777,-0.6976,-0.7119,-0.7188,-0.7305,-0.7403,-0.7468,-0.7382,-0.7301,-0.7216,-0.7163,-0.7155,-0.7155,-0.7188,-0.7192,-0.7265,-0.7347,-0.7245,-0.7045,-0.6968,-0.6896,-0.678,-0.6725,-0.6851,-0.6984,-0.6753,-0.6599,-0.6562,-0.6595,-0.6485,-0.6436,-0.657,-0.678,-0.6924,-0.5538,-0.5484,-0.5419,-0.5395,-0.5395,-0.5395,-0.5395,-0.5395,-0.5395,-0.5395,-0.5395,-0.5395,-0.5395,-0.5395,-0.5395,-0.5395,-0.5395,-0.5395,-0.5344,-0.525,-0.5226,-0.5145,-0.5101,-0.5257,-0.5395,-0.5395,-0.5395,-0.5395,-0.5382,-0.5334,-0.5213,-0.5125,-0.5016,-0.4963,-0.4915,-0.5072,-0.5079,-0.5116,-0.5215,-0.5301,-0.5301,-0.5301,-0.5301,-0.5301,-0.5301,-0.5301,-0.5301,-0.5301,-0.5301,-0.5301,-0.5301,-0.5301,-0.5301,-0.5301,-0.5301,-0.5301,-0.5361,-0.5514,-0.5718,-0.5896,-0.6102,-0.6233,-0.6375,-0.6408,-0.642,-0.642,-0.642,-0.642,-0.642,-0.642,-0.642,-0.6515,-0.6581,-0.6659,-0.678,-0.6789,-0.6764,-0.6806,-0.6869,-0.688,-0.6894,-0.6935,-0.7159,-0.7212,-0.7261,-0.7334,-0.7427,-0.7464,-0.7494,-0.7378,-0.7322,-0.7309,-0.7313,-0.7309,-0.7309,-0.7347,-0.7339,-0.742,-0.7388,-0.7159,-0.7061,-0.7045,-0.7,-0.6924,-0.7013,-0.7013,-0.6842,-0.6704,-0.6692,-0.6664,-0.6518,-0.6505,-0.6643,-0.6806,-0.6972,-0.5589,-0.5579,-0.5457,-0.5395,-0.5395,-0.5395,-0.5395,-0.5395,-0.5395,-0.5395,-0.5395,-0.5395,-0.5395,-0.5395,-0.5395,-0.5395,-0.5395,-0.5395,-0.5392,-0.5375,-0.5365,-0.5303,-0.5189,-0.532,-0.5392,-0.5395,-0.5395,-0.5428,-0.5397,-0.5216,-0.5128,-0.5088,-0.5067,-0.5014,-0.4959,-0.5188,-0.5244,-0.5183,-0.5242,-0.5301,-0.5301,-0.5305,-0.5317,-0.5361,-0.5357,-0.5381,-0.5369,-0.5321,-0.5301,-0.5301,-0.5301,-0.5301,-0.5301,-0.5301,-0.5301,-0.5357,-0.5474,-0.5669,-0.5864,-0.6053,-0.6245,-0.6359,-0.6408,-0.642,-0.642,-0.642,-0.642,-0.642,-0.642,-0.642,-0.6424,-0.6428,-0.6502,-0.6572,-0.6641,-0.6803,-0.6871,-0.6798,-0.6855,-0.7159,-0.7062,-0.7167,-0.7313,-0.737,-0.7305,-0.7395,-0.7464,-0.7468,-0.7518,-0.7443,-0.7423,-0.7431,-0.7443,-0.7498,-0.7498,-0.7498,-0.7486,-0.7498,-0.7494,-0.7359,-0.7208,-0.7171,-0.7175,-0.7151,-0.7192,-0.7163,-0.7058,-0.696,-0.6891,-0.679,-0.668,-0.6676,-0.6725,-0.6907,-0.7082,-0.5589,-0.5576,-0.5457,-0.5395,-0.5395,-0.5395,-0.5395,-0.5395,-0.5395,-0.5395,-0.5395,-0.5395,-0.5395,-0.5395,-0.5395,-0.5395,-0.5395,-0.5395,-0.5395,-0.5395,-0.5395,-0.5382,-0.5344,-0.5385,-0.5392,-0.5428,-0.5521,-0.5488,-0.542,-0.5328,-0.5199,-0.4989,-0.4998,-0.4923,-0.4962,-0.5094,-0.5203,-0.5242,-0.5301,-0.5301,-0.5301,-0.5305,-0.5381,-0.5478,-0.551,-0.5519,-0.5494,-0.5397,-0.5305,-0.5301,-0.5301,-0.5301,-0.5301,-0.5301,-0.5309,-0.5385,-0.5502,-0.5701,-0.588,-0.6059,-0.6189,-0.6388,-0.642,-0.642,-0.642,-0.642,-0.642,-0.642,-0.642,-0.6424,-0.6448,-0.6655,-0.6717,-0.6702,-0.689,-0.7082,-0.7114,-0.7016,-0.7021,-0.7155,-0.7208,-0.7244,-0.7486,-0.7452,-0.7439,-0.7518,-0.7518,-0.7518,-0.7518,-0.7518,-0.7518,-0.7518,-0.7518,-0.7518,-0.7518,-0.7518,-0.7518,-0.7518,-0.7518,-0.7514,-0.7367,-0.7314,-0.7318,-0.7305,-0.7342,-0.7285,-0.7204,-0.7151,-0.707,-0.696,-0.6902,-0.6891,-0.6944,-0.7082,-0.7179,-0.5275,-0.5576,-0.546,-0.5395,-0.5395,-0.5395,-0.5395,-0.5395,-0.5395,-0.5395,-0.5395,-0.5395,-0.5395,-0.5395,-0.5395,-0.5395,-0.5395,-0.5395,-0.5395,-0.5395,-0.5395,-0.5395,-0.5395,-0.5395,-0.5395,-0.5428,-0.5521,-0.555,-0.5501,-0.5438,-0.5301,-0.5143,-0.5049,-0.5012,-0.5026,-0.5128,-0.5223,-0.5274,-0.5301,-0.5301,-0.5301,-0.5301,-0.5325,-0.547,-0.5531,-0.5555,-0.545,-0.547,-0.5374,-0.5325,-0.5305,-0.5305,-0.5301,-0.5305,-0.5333,-0.5462,-0.5615,-0.5819,-0.6029,-0.6168,-0.6282,-0.6375,-0.642,-0.642,-0.642,-0.642,-0.642,-0.642,-0.6428,-0.6444,-0.6542,-0.6773,-0.6902,-0.6917,-0.7044,-0.7192,-0.7183,-0.7139,-0.7151,-0.7293,-0.735,-0.7382,-0.7452,-0.7514,-0.7518,-0.7518,-0.7518,-0.7518,-0.7518,-0.7518,-0.7518,-0.7518,-0.7518,-0.7518,-0.7518,-0.7518,-0.7518,-0.7518,-0.7518,-0.7518,-0.7461,-0.7457,-0.7473,-0.7435,-0.7419,-0.7407,-0.7338,-0.7289,-0.7224,-0.7119,-0.7058,-0.7098,-0.7135,-0.7179,-0.7273,-0.4835,-0.5434,-0.5423,-0.5395,-0.5395,-0.5395,-0.5395,-0.5395,-0.5395,-0.5395,-0.5395,-0.5395,-0.5395,-0.5395,-0.5395,-0.5395,-0.5395,-0.5395,-0.5395,-0.5395,-0.5395,-0.5395,-0.5395,-0.5395,-0.5425,-0.5422,-0.5587,-0.565,-0.5636,-0.5516,-0.543,-0.5378,-0.5186,-0.5073,-0.5132,-0.5242,-0.5301,-0.5301,-0.5301,-0.5361,-0.5365,-0.5361,-0.5333,-0.5498,-0.5661,-0.5689,-0.562,-0.5616,-0.5567,-0.5394,-0.5409,-0.5382,-0.5374,-0.5381,-0.5418,-0.5583,-0.5795,-0.6004,-0.6143,-0.6318,-0.6408,-0.642,-0.642,-0.642,-0.642,-0.642,-0.642,-0.644,-0.6461,-0.6542,-0.6684,-0.6914,-0.7008,-0.7065,-0.7159,-0.7253,-0.7265,-0.7227,-0.7338,-0.7419,-0.7473,-0.7452,-0.7464,-0.7518,-0.7518,-0.7518,-0.7518,-0.7518,-0.7518,-0.7518,-0.7518,-0.7518,-0.7518,-0.7518,-0.7518,-0.7518,-0.7518,-0.7518,-0.7518,-0.7518,-0.7518,-0.7514,-0.7506,-0.751,-0.7498,-0.7486,-0.7465,-0.7374,-0.7305,-0.7203,-0.7232,-0.7253,-0.7261,-0.7227,-0.7358,-0.4447,-0.4703,-0.5188,-0.5395,-0.5395,-0.5395,-0.5395,-0.5395,-0.5395,-0.5395,-0.5395,-0.5395,-0.5395,-0.5395,-0.5395,-0.5395,-0.5395,-0.5395,-0.5395,-0.5395,-0.5395,-0.5395,-0.5395,-0.5395,-0.5458,-0.5587,-0.5752,-0.5822,-0.581,-0.5732,-0.5628,-0.543,-0.5241,-0.5167,-0.5199,-0.5246,-0.5361,-0.5389,-0.5373,-0.5409,-0.5494,-0.5454,-0.5494,-0.573,-0.5935,-0.5988,-0.5975,-0.588,-0.5827,-0.5803,-0.5803,-0.5791,-0.5746,-0.5644,-0.5624,-0.5701,-0.5951,-0.6135,-0.622,-0.6319,-0.6408,-0.642,-0.642,-0.642,-0.642,-0.642,-0.642,-0.6465,-0.6558,-0.6672,-0.67,-0.6989,-0.7151,-0.722,-0.7309,-0.7419,-0.7423,-0.7423,-0.7423,-0.751,-0.7518,-0.7518,-0.7518,-0.7518,-0.7518,-0.7518,-0.7518,-0.7518,-0.7518,-0.7518,-0.7518,-0.7518,-0.7518,-0.7518,-0.7518,-0.7518,-0.7518,-0.7518,-0.7518,-0.7518,-0.7518,-0.7518,-0.7518,-0.7518,-0.7518,-0.751,-0.7447,-0.7427,-0.7415,-0.7366,-0.7374,-0.7424,-0.7378,-0.737,-0.7395,-0.3645,-0.4402,-0.4715,-0.5057,-0.5359,-0.5395,-0.5395,-0.5395,-0.5395,-0.5395,-0.5395,-0.5395,-0.5395,-0.5395,-0.5395,-0.5395,-0.5395,-0.5395,-0.5395,-0.5395,-0.5395,-0.5395,-0.5395,-0.5395,-0.5557,-0.5723,-0.5855,-0.5987,-0.6059,-0.5998,-0.5898,-0.5812,-0.5628,-0.5513,-0.5481,-0.5482,-0.5523,-0.5547,-0.5519,-0.5543,-0.5734,-0.5657,-0.5762,-0.5906,-0.6069,-0.6118,-0.6053,-0.6086,-0.6,-0.5931,-0.5884,-0.5892,-0.5892,-0.5935,-0.5914,-0.5947,-0.6082,-0.6229,-0.627,-0.6384,-0.6416,-0.642,-0.642,-0.642,-0.642,-0.642,-0.6432,-0.6485,-0.6688,-0.6865,-0.6882,-0.7151,-0.7322,-0.7366,-0.7435,-0.751,-0.7518,-0.7518,-0.7518,-0.7518,-0.7518,-0.7518,-0.7518,-0.7518,-0.7518,-0.7518,-0.7518,-0.7518,-0.7518,-0.7518,-0.7518,-0.7518,-0.7518,-0.7518,-0.7518,-0.7518,-0.7518,-0.7518,-0.7518,-0.7518,-0.7518,-0.7518,-0.7518,-0.7518,-0.7518,-0.7518,-0.7514,-0.7456,-0.751,-0.7518,-0.7494,-0.7477,-0.7498,-0.7518,-0.7518,-0.2781,-0.3885,-0.4187,-0.4655,-0.516,-0.5359,-0.5395,-0.5395,-0.5395,-0.5395,-0.5395,-0.5395,-0.5395,-0.5395,-0.5395,-0.5395,-0.5395,-0.5395,-0.5395,-0.5395,-0.5395,-0.5395,-0.5395,-0.5462,-0.5591,-0.5859,-0.5987,-0.6053,-0.6187,-0.6185,-0.6184,-0.6071,-0.5961,-0.5888,-0.5831,-0.5722,-0.5816,-0.5787,-0.5762,-0.5758,-0.5856,-0.5957,-0.6,-0.5988,-0.6135,-0.618,-0.6118,-0.618,-0.6171,-0.6067,-0.6026,-0.601,-0.6022,-0.6159,-0.6229,-0.6233,-0.6233,-0.629,-0.6367,-0.6379,-0.642,-0.642,-0.642,-0.642,-0.6444,-0.6469,-0.6476,-0.657,-0.6798,-0.7041,-0.7082,-0.7289,-0.7439,-0.7472,-0.7506,-0.7518,-0.7518,-0.7518,-0.7518,-0.7518,-0.7518,-0.7518,-0.7518,-0.7518,-0.7518,-0.7518,-0.7518,-0.7518,-0.7518,-0.7518,-0.7518,-0.7518,-0.7518,-0.7518,-0.7518,-0.7518,-0.7518,-0.7518,-0.7518,-0.7518,-0.7518,-0.7518,-0.7518,-0.7518,-0.7518,-0.7518,-0.7518,-0.7518,-0.7518,-0.7518,-0.7518,-0.7518,-0.7518,-0.7518,-0.7518,-0.2213,-0.2482,-0.3751,-0.4353,-0.4522,-0.5093,-0.5395,-0.5395,-0.5395,-0.5395,-0.5395,-0.5395,-0.5395,-0.5395,-0.5395,-0.5395,-0.5395,-0.5395,-0.5395,-0.5395,-0.5395,-0.5395,-0.5425,-0.5521,-0.569,-0.5921,-0.605,-0.6218,-0.6318,-0.6241,-0.6196,-0.6163,-0.6065,-0.5908,-0.5957,-0.5922,-0.5898,-0.5892,-0.588,-0.5884,-0.5953,-0.6185,-0.6249,-0.6233,-0.6294,-0.6351,-0.6298,-0.6335,-0.6331,-0.6335,-0.6335,-0.6314,-0.6327,-0.6331,-0.6351,-0.6355,-0.6355,-0.6363,-0.6416,-0.642,-0.642,-0.642,-0.642,-0.642,-0.6481,-0.6595,-0.6712,-0.6926,-0.707,-0.7155,-0.7183,-0.7358,-0.7456,-0.7518,-0.7518,-0.7518,-0.7518,-0.7518,-0.7518,-0.7518,-0.7518,-0.7518,-0.7518,-0.7518,-0.7518,-0.7518,-0.7518,-0.7518,-0.7518,-0.7518,-0.7518,-0.7518,-0.7518,-0.7518,-0.7518,-0.7518,-0.7518,-0.7518,-0.7518,-0.7518,-0.7518,-0.7518,-0.7518,-0.7518,-0.7518,-0.7518,-0.7518,-0.7518,-0.7518,-0.7518,-0.7518,-0.7518,-0.7518,-0.7518,-0.7518,-0.1745,-0.2181,-0.2781,-0.3551,-0.4287,-0.4655,-0.5024,-0.5362,-0.5395,-0.5395,-0.5395,-0.5395,-0.5395,-0.5395,-0.5395,-0.5395,-0.5395,-0.5395,-0.5395,-0.5395,-0.5395,-0.5395,-0.5425,-0.5554,-0.5719,-0.5921,-0.6115,-0.6251,-0.6318,-0.6351,-0.6331,-0.6314,-0.6229,-0.6205,-0.6136,-0.6106,-0.6147,-0.616,-0.6189,-0.6193,-0.6229,-0.629,-0.6351,-0.6306,-0.6379,-0.6412,-0.642,-0.642,-0.642,-0.642,-0.642,-0.642,-0.6387,-0.6416,-0.6383,-0.6416,-0.6416,-0.6416,-0.642,-0.642,-0.642,-0.642,-0.6432,-0.6465,-0.657,-0.6733,-0.6894,-0.6971,-0.7114,-0.7175,-0.7261,-0.7387,-0.7447,-0.7518,-0.7518,-0.7518,-0.7518,-0.7518,-0.7518,-0.7518,-0.7518,-0.7518,-0.7518,-0.7518,-0.7518,-0.7518,-0.7518,-0.7518,-0.7518,-0.7518,-0.7518,-0.7518,-0.7518,-0.7518,-0.7518,-0.7518,-0.7518,-0.7518,-0.7518,-0.7518,-0.7518,-0.7518,-0.7518,-0.7518,-0.7518,-0.7518,-0.7518,-0.7518,-0.7518,-0.7518,-0.7518,-0.7518,-0.7518,-0.7518,-0.7518,-0.1377,-0.1846,-0.2012,-0.2748,-0.3785,-0.412,-0.4622,-0.509,-0.5326,-0.5395,-0.5395,-0.5395,-0.5395,-0.5395,-0.5395,-0.5395,-0.5395,-0.5395,-0.5395,-0.5395,-0.5395,-0.5395,-0.5458,-0.5587,-0.5752,-0.5888,-0.6152,-0.6284,-0.6387,-0.6408,-0.64,-0.642,-0.6379,-0.6388,-0.6367,-0.6294,-0.6302,-0.6359,-0.6379,-0.6384,-0.64,-0.6404,-0.642,-0.6416,-0.642,-0.642,-0.642,-0.642,-0.642,-0.642,-0.642,-0.642,-0.642,-0.642,-0.642,-0.642,-0.642,-0.642,-0.642,-0.642,-0.642,-0.6432,-0.6493,-0.6583,-0.6749,-0.6947,-0.7098,-0.7155,-0.7147,-0.7244,-0.7297,-0.7391,-0.7411,-0.7452,-0.7518,-0.7518,-0.7518,-0.7518,-0.7518,-0.7518,-0.7518,-0.7518,-0.7518,-0.7518,-0.7518,-0.7518,-0.7518,-0.7518,-0.7518,-0.7518,-0.7518,-0.7518,-0.7518,-0.7518,-0.7518,-0.7518,-0.7518,-0.7518,-0.7518,-0.7518,-0.7518,-0.7518,-0.7518,-0.7518,-0.7518,-0.7518,-0.7518,-0.7518,-0.7518,-0.7518,-0.7518,-0.7518,-0.7518,-0.7518,-0.7446,-0.1109,-0.1209,-0.1846,-0.2147,-0.2414,-0.3751,-0.432,-0.4522,-0.5123,-0.5395,-0.5395,-0.5395,-0.5395,-0.5395,-0.5395,-0.5395,-0.5395,-0.5395,-0.5395,-0.5395,-0.5395,-0.5395,-0.5488,-0.5646,-0.5833,-0.5932,-0.6146,-0.6318,-0.6416,-0.6375,-0.6416,-0.642,-0.642,-0.642,-0.6412,-0.6384,-0.6363,-0.642,-0.642,-0.642,-0.642,-0.642,-0.642,-0.642,-0.642,-0.642,-0.642,-0.642,-0.642,-0.642,-0.642,-0.642,-0.642,-0.642,-0.642,-0.642,-0.642,-0.642,-0.642,-0.642,-0.642,-0.6469,-0.6562,-0.6726,-0.6861,-0.7066,-0.724,-0.7331,-0.7208,-0.7269,-0.7317,-0.7362,-0.7354,-0.7435,-0.7518,-0.7518,-0.7518,-0.7518,-0.7518,-0.7518,-0.7518,-0.7518,-0.7518,-0.7518,-0.7518,-0.7518,-0.7518,-0.7518,-0.7518,-0.7518,-0.7518,-0.7518,-0.7518,-0.7518,-0.7518,-0.7518,-0.7518,-0.7518,-0.7518,-0.7518,-0.7518,-0.7518,-0.7518,-0.7518,-0.7518,-0.7518,-0.7518,-0.7518,-0.7518,-0.7518,-0.7518,-0.748,-0.7446,-0.7407,-0.7334,-0.1109,-0.1109,-0.1377,-0.1712,-0.2181,-0.3182,-0.3885,-0.4389,-0.5057,-0.5395,-0.5395,-0.5395,-0.5395,-0.5395,-0.5395,-0.5395,-0.5395,-0.5395,-0.5395,-0.5395,-0.5395,-0.5395,-0.5503,-0.5607,-0.57,-0.5811,-0.6069,-0.6254,-0.6286,-0.6363,-0.6412,-0.642,-0.642,-0.642,-0.642,-0.642,-0.642,-0.642,-0.642,-0.642,-0.642,-0.642,-0.642,-0.642,-0.642,-0.642,-0.642,-0.642,-0.642,-0.642,-0.642,-0.642,-0.642,-0.642,-0.642,-0.642,-0.642,-0.642,-0.642,-0.642,-0.642,-0.6453,-0.6574,-0.6755,-0.6845,-0.6996,-0.7098,-0.7139,-0.7159,-0.7204,-0.7269,-0.7273,-0.7293,-0.7419,-0.7518,-0.7518,-0.7518,-0.7518,-0.7518,-0.7518,-0.7518,-0.7518,-0.7518,-0.7518,-0.7518,-0.7518,-0.7518,-0.7518,-0.7518,-0.7518,-0.7518,-0.7518,-0.7518,-0.7518,-0.7518,-0.7518,-0.7518,-0.7518,-0.7518,-0.7518,-0.7518,-0.7518,-0.7518,-0.7518,-0.7518,-0.7518,-0.7518,-0.7518,-0.7518,-0.7518,-0.748,-0.7446,-0.7407,-0.7334,-0.7219,-0.1109,-0.1109,-0.1109,-0.1377,-0.1879,-0.2549,-0.3151,-0.3751,-0.4655,-0.5226,-0.5395,-0.5395,-0.5395,-0.5395,-0.5395,-0.5395,-0.5395,-0.5395,-0.5395,-0.5395,-0.5395,-0.5395,-0.5486,-0.5607,-0.5762,-0.5773,-0.6033,-0.6282,-0.6306,-0.6367,-0.6408,-0.642,-0.642,-0.642,-0.642,-0.642,-0.642,-0.642,-0.642,-0.642,-0.642,-0.642,-0.642,-0.642,-0.642,-0.642,-0.642,-0.642,-0.642,-0.642,-0.642,-0.642,-0.642,-0.642,-0.642,-0.642,-0.642,-0.642,-0.642,-0.642,-0.642,-0.644,-0.6583,-0.6698,-0.6759,-0.6878,-0.702,-0.7016,-0.7012,-0.7065,-0.7196,-0.7195,-0.7305,-0.7431,-0.751,-0.7518,-0.7518,-0.7518,-0.7518,-0.7518,-0.749,-0.7387,-0.7387,-0.7382,-0.7443,-0.7456,-0.7518,-0.7518,-0.7518,-0.7518,-0.7518,-0.7518,-0.7518,-0.7518,-0.7518,-0.7518,-0.7518,-0.7518,-0.7518,-0.7518,-0.7518,-0.7518,-0.7518,-0.7518,-0.7518,-0.7518,-0.7518,-0.7484,-0.748,-0.7518,-0.7446,-0.733,-0.7253,-0.718,-0.7022,-0.1109,-0.1109,-0.1109,-0.111,-0.128,-0.1846,-0.2213,-0.2581,-0.3818,-0.4755,-0.5259,-0.5326,-0.5395,-0.5395,-0.5395,-0.5395,-0.5395,-0.5395,-0.5395,-0.5395,-0.5395,-0.5395,-0.5514,-0.565,-0.5813,-0.5965,-0.6151,-0.6314,-0.6363,-0.6367,-0.6383,-0.642,-0.642,-0.642,-0.642,-0.642,-0.642,-0.642,-0.642,-0.642,-0.642,-0.642,-0.642,-0.642,-0.642,-0.642,-0.642,-0.642,-0.642,-0.642,-0.642,-0.6387,-0.6354,-0.6387,-0.6387,-0.6387,-0.6387,-0.642,-0.642,-0.642,-0.642,-0.6432,-0.6558,-0.6631,-0.6704,-0.6853,-0.6951,-0.6922,-0.6975,-0.7041,-0.7147,-0.7199,-0.733,-0.7419,-0.7502,-0.7518,-0.7518,-0.7518,-0.7518,-0.7518,-0.735,-0.7207,-0.7211,-0.7236,-0.7366,-0.7419,-0.7502,-0.7518,-0.7518,-0.7518,-0.7518,-0.7518,-0.7518,-0.7518,-0.7518,-0.7518,-0.7518,-0.7518,-0.7518,-0.7518,-0.7518,-0.7518,-0.7518,-0.7518,-0.748,-0.7484,-0.7484,-0.7484,-0.7446,-0.7369,-0.7257,-0.718,-0.7142,-0.7026,-0.6834,-0.1088,-0.1104,-0.1084,-0.1087,-0.1204,-0.1826,-0.2114,-0.238,-0.3585,-0.442,-0.4755,-0.5126,-0.5395,-0.5395,-0.5395,-0.5395,-0.5395,-0.5395,-0.5395,-0.5395,-0.5395,-0.5491,-0.5569,-0.5676,-0.5811,-0.5957,-0.6145,-0.6298,-0.6257,-0.6351,-0.6383,-0.642,-0.642,-0.642,-0.642,-0.642,-0.642,-0.642,-0.642,-0.642,-0.642,-0.642,-0.642,-0.642,-0.642,-0.642,-0.642,-0.642,-0.642,-0.642,-0.642,-0.6354,-0.6317,-0.6354,-0.6354,-0.6321,-0.6354,-0.642,-0.642,-0.642,-0.642,-0.6415,-0.6444,-0.6534,-0.6534,-0.671,-0.6784,-0.6865,-0.6959,-0.7045,-0.7179,-0.7183,-0.7305,-0.7431,-0.7518,-0.7518,-0.7518,-0.7518,-0.7518,-0.7518,-0.7403,-0.7362,-0.735,-0.7264,-0.7354,-0.7419,-0.751,-0.7518,-0.7518,-0.7518,-0.7518,-0.7518,-0.7518,-0.7518,-0.7518,-0.7518,-0.7518,-0.7518,-0.7518,-0.7518,-0.7518,-0.748,-0.748,-0.7442,-0.7446,-0.7484,-0.7369,-0.7253,-0.7253,-0.7176,-0.7065,-0.6949,-0.6872,-0.6756,-0.6641,-0.1103,-0.1083,-0.11,-0.1102,-0.1185,-0.1563,-0.1846,-0.2213,-0.3151,-0.3785,-0.432,-0.4824,-0.5193,-0.5326,-0.5395,-0.5395,-0.5395,-0.5395,-0.5395,-0.5395,-0.5395,-0.5491,-0.5581,-0.5686,-0.5877,-0.6017,-0.6141,-0.6286,-0.6278,-0.6363,-0.6379,-0.642,-0.642,-0.642,-0.642,-0.642,-0.642,-0.642,-0.642,-0.642,-0.642,-0.642,-0.642,-0.642,-0.642,-0.642,-0.642,-0.642,-0.642,-0.642,-0.6387,-0.6354,-0.6317,-0.6284,-0.6317,-0.6317,-0.6354,-0.6387,-0.6354,-0.6387,-0.6387,-0.6428,-0.642,-0.642,-0.6453,-0.6607,-0.6706,-0.6792,-0.6951,-0.707,-0.7208,-0.7203,-0.735,-0.7514,-0.7518,-0.7518,-0.7518,-0.7518,-0.7518,-0.7518,-0.7431,-0.7423,-0.7419,-0.7391,-0.7362,-0.7423,-0.7518,-0.7518,-0.7518,-0.7518,-0.7518,-0.7518,-0.7518,-0.7518,-0.7518,-0.7518,-0.7518,-0.7518,-0.748,-0.7446,-0.7407,-0.7369,-0.7369,-0.7326,-0.7253,-0.7176,-0.7099,-0.7022,-0.6945,-0.6868,-0.6756,-0.6679,-0.6602,-0.6525,-0.6451,-0.1084,-0.1086,-0.1085,-0.1083,-0.1116,-0.1157,-0.1478,-0.2047,-0.2147,-0.2982,-0.4253,-0.4287,-0.4755,-0.5326,-0.5395,-0.5395,-0.5395,-0.5395,-0.5395,-0.5395,-0.5395,-0.5524,-0.5653,-0.58,-0.5971,-0.6158,-0.6289,-0.6359,-0.6371,-0.6379,-0.642,-0.642,-0.642,-0.642,-0.642,-0.642,-0.642,-0.642,-0.642,-0.642,-0.642,-0.642,-0.642,-0.642,-0.642,-0.642,-0.642,-0.642,-0.642,-0.642,-0.642,-0.6387,-0.6354,-0.6251,-0.6317,-0.6354,-0.642,-0.6354,-0.6284,-0.6354,-0.6387,-0.6424,-0.6448,-0.6432,-0.6501,-0.6639,-0.6788,-0.6883,-0.7054,-0.7155,-0.7219,-0.735,-0.7486,-0.7518,-0.7518,-0.7518,-0.7518,-0.7518,-0.7518,-0.7447,-0.7366,-0.7338,-0.7346,-0.7338,-0.7395,-0.7435,-0.7518,-0.7518,-0.7518,-0.7518,-0.7518,-0.7518,-0.7518,-0.7518,-0.7518,-0.7518,-0.7518,-0.7518,-0.7334,-0.7296,-0.7257,-0.7253,-0.7176,-0.7096,-0.698,-0.6903,-0.6942,-0.683,-0.6637,-0.6563,-0.6563,-0.6528,-0.6451,-0.6412,-0.6335,-0.1102,-0.1084,-0.1098,-0.1101,-0.1115,-0.1089,-0.121,-0.1445,-0.1846,-0.2681,-0.3551,-0.4087,-0.4655,-0.5392,-0.5395,-0.5395,-0.5395,-0.5395,-0.5395,-0.5395,-0.5395,-0.5591,-0.5756,-0.5888,-0.6086,-0.6255,-0.6387,-0.642,-0.6416,-0.642,-0.642,-0.642,-0.642,-0.642,-0.642,-0.642,-0.642,-0.642,-0.642,-0.642,-0.642,-0.642,-0.642,-0.642,-0.642,-0.642,-0.642,-0.642,-0.642,-0.642,-0.642,-0.6387,-0.6251,-0.6284,-0.6387,-0.6387,-0.642,-0.6387,-0.6354,-0.6387,-0.642,-0.6453,-0.6518,-0.6599,-0.6694,-0.6784,-0.6931,-0.7017,-0.7159,-0.7269,-0.7326,-0.7407,-0.751,-0.7518,-0.7518,-0.7518,-0.751,-0.7486,-0.7486,-0.7423,-0.7338,-0.7374,-0.737,-0.7387,-0.7443,-0.7506,-0.7518,-0.7518,-0.7518,-0.7518,-0.7518,-0.7518,-0.7518,-0.7518,-0.7518,-0.7518,-0.7518,-0.748,-0.7296,-0.7146,-0.7142,-0.7099,-0.6984,-0.6868,-0.6753,-0.6791,-0.6903,-0.6714,-0.6486,-0.6486,-0.6486,-0.6412,-0.6338,-0.63,-0.63,-0.1104,-0.1082,-0.1102,-0.1097,-0.1099,-0.1084,-0.1109,-0.1176,-0.1545,-0.2214,-0.3215,-0.3649,-0.4456,-0.5326,-0.5395,-0.5395,-0.5395,-0.5395,-0.5395,-0.5395,-0.5395,-0.5627,-0.5793,-0.5925,-0.6086,-0.6288,-0.642,-0.642,-0.642,-0.642,-0.642,-0.642,-0.642,-0.642,-0.642,-0.642,-0.642,-0.642,-0.642,-0.642,-0.642,-0.642,-0.642,-0.642,-0.642,-0.642,-0.642,-0.642,-0.642,-0.642,-0.642,-0.6354,-0.6284,-0.6354,-0.6251,-0.6288,-0.6354,-0.6354,-0.6317,-0.6387,-0.6387,-0.6465,-0.6578,-0.669,-0.6775,-0.6857,-0.698,-0.7102,-0.7236,-0.737,-0.7403,-0.7431,-0.7494,-0.7518,-0.7518,-0.7518,-0.7486,-0.7411,-0.7399,-0.7391,-0.7407,-0.749,-0.751,-0.7518,-0.7518,-0.7518,-0.7518,-0.7518,-0.7518,-0.7518,-0.7518,-0.7518,-0.7518,-0.7518,-0.7518,-0.748,-0.7446,-0.7369,-0.7176,-0.7065,-0.7022,-0.6872,-0.6679,-0.6602,-0.6563,-0.6602,-0.6676,-0.6525,-0.6374,-0.6412,-0.6412,-0.6374,-0.63,-0.63,-0.63,-0.1082,-0.1082,-0.1082,-0.1099,-0.1111,-0.1109,-0.1109,-0.1109,-0.1143,-0.1846,-0.2917,-0.3115,-0.3918,-0.4957,-0.516,-0.5263,-0.5362,-0.5395,-0.5395,-0.5395,-0.5395,-0.5557,-0.5756,-0.5925,-0.6086,-0.6288,-0.642,-0.642,-0.642,-0.642,-0.642,-0.642,-0.642,-0.642,-0.642,-0.642,-0.642,-0.642,-0.642,-0.642,-0.642,-0.642,-0.642,-0.642,-0.642,-0.642,-0.642,-0.642,-0.642,-0.642,-0.6387,-0.6387,-0.6387,-0.6387,-0.6218,-0.6185,-0.6317,-0.6321,-0.6321,-0.6354,-0.6387,-0.6477,-0.6583,-0.6664,-0.6784,-0.6894,-0.7012,-0.7053,-0.7147,-0.7196,-0.722,-0.7265,-0.7335,-0.7363,-0.738,-0.74,-0.737,-0.7346,-0.7342,-0.7358,-0.7435,-0.7514,-0.7518,-0.7518,-0.7518,-0.7518,-0.7518,-0.7518,-0.7518,-0.7518,-0.7518,-0.7518,-0.7518,-0.7518,-0.7484,-0.7446,-0.7334,-0.7219,-0.7022,-0.6907,-0.6868,-0.6602,-0.6335,-0.6335,-0.6412,-0.6374,-0.6335,-0.63,-0.63,-0.6296,-0.6335,-0.6296,-0.63,-0.63,-0.63,-0.1086,-0.1087,-0.1087,-0.1082,-0.111,-0.1109,-0.1109,-0.1109,-0.1109,-0.1577,-0.2248,-0.248,-0.3215,-0.4522,-0.4655,-0.4858,-0.5326,-0.5395,-0.5395,-0.5395,-0.5395,-0.5491,-0.5686,-0.5822,-0.6017,-0.6218,-0.6317,-0.6387,-0.642,-0.642,-0.642,-0.642,-0.642,-0.642,-0.642,-0.642,-0.642,-0.642,-0.642,-0.642,-0.642,-0.642,-0.642,-0.642,-0.642,-0.642,-0.642,-0.642,-0.642,-0.642,-0.642,-0.642,-0.642,-0.6387,-0.6354,-0.6317,-0.6317,-0.6354,-0.6354,-0.6387,-0.6387,-0.6473,-0.6566,-0.6647,-0.6784,-0.691,-0.6984,-0.6996,-0.7016,-0.7041,-0.7037,-0.7126,-0.718,-0.7208,-0.7229,-0.7236,-0.7281,-0.7293,-0.7252,-0.7354,-0.7439,-0.7472,-0.7518,-0.7518,-0.7518,-0.7518,-0.7518,-0.7518,-0.7518,-0.7518,-0.7518,-0.7518,-0.7518,-0.748,-0.7446,-0.7369,-0.7257,-0.7103,-0.6911,-0.6791,-0.6676,-0.6486,-0.63,-0.63,-0.6296,-0.63,-0.63,-0.63,-0.63,-0.63,-0.63,-0.63,-0.63,-0.63,-0.63,-0.1109,-0.1109,-0.1109,-0.1109,-0.1109,-0.1109,-0.1109,-0.1109,-0.1109,-0.1311,-0.1678,-0.2045,-0.2915,-0.4154,-0.4287,-0.4655,-0.5259,-0.5395,-0.5395,-0.5395,-0.5425,-0.5488,-0.562,-0.5719,-0.5885,-0.605,-0.6218,-0.6317,-0.6387,-0.642,-0.642,-0.6387,-0.6387,-0.6387,-0.6387,-0.6387,-0.642,-0.642,-0.6387,-0.6387,-0.6387,-0.6387,-0.642,-0.642,-0.642,-0.642,-0.642,-0.642,-0.642,-0.6387,-0.6354,-0.6317,-0.6284,-0.6185,-0.6251,-0.6317,-0.6354,-0.6354,-0.6387,-0.642,-0.642,-0.6473,-0.6583,-0.668,-0.6587,-0.6692,-0.6833,-0.6849,-0.6853,-0.6838,-0.6918,-0.6967,-0.7045,-0.7094,-0.7094,-0.711,-0.7188,-0.7277,-0.7269,-0.7285,-0.7378,-0.7514,-0.7518,-0.7518,-0.7518,-0.7518,-0.7518,-0.7518,-0.7518,-0.7518,-0.7518,-0.748,-0.7484,-0.7407,-0.733,-0.7257,-0.7142,-0.6949,-0.6756,-0.6641,-0.6525,-0.6412,-0.63,-0.63,-0.63,-0.63,-0.63,-0.63,-0.63,-0.63,-0.63,-0.63,-0.63,-0.63,-0.63,-0.1109,-0.1109,-0.1109,-0.1109,-0.1109,-0.1109,-0.1109,-0.1109,-0.1109,-0.1109,-0.121,-0.1712,-0.2815,-0.3616,-0.4184,-0.4688,-0.509,-0.5326,-0.5392,-0.5395,-0.5395,-0.5488,-0.555,-0.5617,-0.5782,-0.5984,-0.6181,-0.6317,-0.642,-0.6387,-0.6387,-0.6387,-0.6387,-0.6387,-0.6387,-0.6387,-0.6387,-0.6354,-0.6354,-0.6317,-0.6354,-0.6387,-0.6387,-0.642,-0.642,-0.642,-0.642,-0.642,-0.642,-0.6354,-0.6284,-0.6251,-0.6214,-0.6148,-0.6218,-0.6317,-0.6317,-0.6354,-0.6354,-0.642,-0.642,-0.6465,-0.6565,-0.6573,-0.6472,-0.6496,-0.6635,-0.666,-0.663,-0.668,-0.6755,-0.6792,-0.6873,-0.698,-0.6971,-0.6996,-0.7143,-0.729,-0.7265,-0.7261,-0.7362,-0.751,-0.7518,-0.7518,-0.7518,-0.7518,-0.7518,-0.7518,-0.7518,-0.7518,-0.7518,-0.7484,-0.7407,-0.7334,-0.7257,-0.7065,-0.6949,-0.6795,-0.6602,-0.649,-0.6374,-0.6296,-0.63,-0.63,-0.63,-0.63,-0.63,-0.63,-0.63,-0.63,-0.63,-0.63,-0.63,-0.63,-0.63,-0.1109,-0.1109,-0.1109,-0.1109,-0.1109,-0.1109,-0.1109,-0.1109,-0.1109,-0.1109,-0.1143,-0.121,-0.1813,-0.2549,-0.3184,-0.3851,-0.4688,-0.509,-0.5359,-0.5395,-0.5395,-0.5491,-0.5554,-0.5583,-0.5815,-0.6046,-0.6214,-0.6354,-0.6387,-0.6387,-0.6317,-0.6251,-0.6387,-0.6354,-0.6251,-0.6284,-0.6317,-0.6251,-0.6218,-0.6185,-0.6119,-0.6222,-0.6387,-0.642,-0.642,-0.642,-0.642,-0.642,-0.642,-0.6354,-0.6251,-0.6181,-0.6214,-0.621,-0.628,-0.6416,-0.6416,-0.635,-0.6383,-0.6387,-0.6354,-0.6321,-0.6409,-0.6397,-0.6341,-0.6378,-0.6435,-0.6401,-0.6405,-0.6472,-0.6534,-0.6534,-0.6599,-0.6816,-0.689,-0.6975,-0.7094,-0.7204,-0.7297,-0.735,-0.7473,-0.7518,-0.7518,-0.7518,-0.7518,-0.7518,-0.7518,-0.7518,-0.7442,-0.748,-0.748,-0.7407,-0.7334,-0.7296,-0.7184,-0.6872,-0.6718,-0.6602,-0.649,-0.6374,-0.6335,-0.6296,-0.63,-0.63,-0.63,-0.63,-0.63,-0.63,-0.63,-0.63,-0.63,-0.63,-0.63,-0.63,-0.63]}]]